<?xml version="1.0" encoding="UTF-8" standalone="no" ?>
<gpx xmlns="http://www.topografix.com/GPX/1/1" xmlns:xsi="http://www.w3.org/2001/XMLSchema-instance" xsi:schemaLocation="http://www.topografix.com/GPX/1/1 http://www.topografix.com/GPX/1/1/gpx.xsd" version="1.1" creator="VisuGPX - https://www.visugpx.com">
  <metadata>
    <name>Rando pédestre Couëron 03_04_2016</name>
    <desc><![CDATA[Rando pédestre ACC Couëron 03_04_2016]]></desc>
  </metadata>
  <trk>
    <name><![CDATA[Boulevard François Blancho]]></name>
    <desc><![CDATA[]]></desc>
    <trkseg>
      <trkpt lat="47.21205" lon="-1.73598">
        <ele>36.9</ele>
        <time>2016-04-03T06:59:08.909Z</time>
      </trkpt>
      <trkpt lat="47.21197" lon="-1.736">
        <ele>54.1</ele>
        <time>2016-04-03T06:59:53.152Z</time>
      </trkpt>
      <trkpt lat="47.21196" lon="-1.736">
        <ele>54.1</ele>
        <time>2016-04-03T06:59:53.961Z</time>
      </trkpt>
      <trkpt lat="47.21189" lon="-1.73593">
        <ele>54</ele>
        <time>2016-04-03T07:00:01.985Z</time>
      </trkpt>
      <trkpt lat="47.21187" lon="-1.7359">
        <ele>54</ele>
        <time>2016-04-03T07:00:02.986Z</time>
      </trkpt>
      <trkpt lat="47.21181" lon="-1.73583">
        <ele>53.8</ele>
        <time>2016-04-03T07:00:08.063Z</time>
      </trkpt>
      <trkpt lat="47.21179" lon="-1.73581">
        <ele>53.7</ele>
        <time>2016-04-03T07:00:08.976Z</time>
      </trkpt>
      <trkpt lat="47.21171" lon="-1.73577">
        <ele>53.6</ele>
        <time>2016-04-03T07:00:15.072Z</time>
      </trkpt>
      <trkpt lat="47.2117" lon="-1.73577">
        <ele>53.6</ele>
        <time>2016-04-03T07:00:15.982Z</time>
      </trkpt>
      <trkpt lat="47.21165" lon="-1.73567">
        <ele>53.3</ele>
        <time>2016-04-03T07:00:22.013Z</time>
      </trkpt>
      <trkpt lat="47.21164" lon="-1.73566">
        <ele>53.3</ele>
        <time>2016-04-03T07:00:22.962Z</time>
      </trkpt>
      <trkpt lat="47.21156" lon="-1.73559">
        <ele>53.2</ele>
        <time>2016-04-03T07:00:31.689Z</time>
      </trkpt>
      <trkpt lat="47.21156" lon="-1.73557">
        <ele>53.2</ele>
        <time>2016-04-03T07:00:31.941Z</time>
      </trkpt>
      <trkpt lat="47.21149" lon="-1.73554">
        <ele>52.5</ele>
        <time>2016-04-03T07:00:51.093Z</time>
      </trkpt>
      <trkpt lat="47.21147" lon="-1.73555">
        <ele>52.6</ele>
        <time>2016-04-03T07:00:52.008Z</time>
      </trkpt>
      <trkpt lat="47.21139" lon="-1.73555">
        <ele>52.6</ele>
        <time>2016-04-03T07:00:59.066Z</time>
      </trkpt>
      <trkpt lat="47.21138" lon="-1.73555">
        <ele>52.6</ele>
        <time>2016-04-03T07:00:59.364Z</time>
      </trkpt>
      <trkpt lat="47.2113" lon="-1.73555">
        <ele>52.7</ele>
        <time>2016-04-03T07:01:05.289Z</time>
      </trkpt>
      <trkpt lat="47.21128" lon="-1.73555">
        <ele>52.7</ele>
        <time>2016-04-03T07:01:06.215Z</time>
      </trkpt>
      <trkpt lat="47.2112" lon="-1.73556">
        <ele>52.6</ele>
        <time>2016-04-03T07:01:13.121Z</time>
      </trkpt>
      <trkpt lat="47.21119" lon="-1.73554">
        <ele>52.6</ele>
        <time>2016-04-03T07:01:14.021Z</time>
      </trkpt>
      <trkpt lat="47.21117" lon="-1.73543">
        <ele>52.4</ele>
        <time>2016-04-03T07:01:19.074Z</time>
      </trkpt>
      <trkpt lat="47.21117" lon="-1.73541">
        <ele>52.4</ele>
        <time>2016-04-03T07:01:19.992Z</time>
      </trkpt>
      <trkpt lat="47.21117" lon="-1.73528">
        <ele>51.9</ele>
        <time>2016-04-03T07:01:27.103Z</time>
      </trkpt>
      <trkpt lat="47.21117" lon="-1.73526">
        <ele>51.8</ele>
        <time>2016-04-03T07:01:28.158Z</time>
      </trkpt>
      <trkpt lat="47.21118" lon="-1.73513">
        <ele>52.7</ele>
        <time>2016-04-03T07:01:38.169Z</time>
      </trkpt>
      <trkpt lat="47.21118" lon="-1.7351">
        <ele>52.8</ele>
        <time>2016-04-03T07:01:39.008Z</time>
      </trkpt>
      <trkpt lat="47.21117" lon="-1.73498">
        <ele>53</ele>
        <time>2016-04-03T07:01:45.077Z</time>
      </trkpt>
      <trkpt lat="47.21117" lon="-1.73495">
        <ele>53</ele>
        <time>2016-04-03T07:01:45.959Z</time>
      </trkpt>
      <trkpt lat="47.21118" lon="-1.73484">
        <ele>52.7</ele>
        <time>2016-04-03T07:01:51.192Z</time>
      </trkpt>
      <trkpt lat="47.21118" lon="-1.73482">
        <ele>52.7</ele>
        <time>2016-04-03T07:01:52.001Z</time>
      </trkpt>
      <trkpt lat="47.21117" lon="-1.7347">
        <ele>52.6</ele>
        <time>2016-04-03T07:01:57.092Z</time>
      </trkpt>
      <trkpt lat="47.21117" lon="-1.73468">
        <ele>52.6</ele>
        <time>2016-04-03T07:01:58.021Z</time>
      </trkpt>
      <trkpt lat="47.21116" lon="-1.73455">
        <ele>52.1</ele>
        <time>2016-04-03T07:02:04.246Z</time>
      </trkpt>
      <trkpt lat="47.21116" lon="-1.73454">
        <ele>52</ele>
        <time>2016-04-03T07:02:04.993Z</time>
      </trkpt>
      <trkpt lat="47.21117" lon="-1.73441">
        <ele>51.6</ele>
        <time>2016-04-03T07:02:11.479Z</time>
      </trkpt>
      <trkpt lat="47.21117" lon="-1.7344">
        <ele>51.5</ele>
        <time>2016-04-03T07:02:11.965Z</time>
      </trkpt>
      <trkpt lat="47.21117" lon="-1.73428">
        <ele>51.2</ele>
        <time>2016-04-03T07:02:17.152Z</time>
      </trkpt>
      <trkpt lat="47.21117" lon="-1.73425">
        <ele>51.1</ele>
        <time>2016-04-03T07:02:18.016Z</time>
      </trkpt>
      <trkpt lat="47.21117" lon="-1.73412">
        <ele>51.1</ele>
        <time>2016-04-03T07:02:24.159Z</time>
      </trkpt>
      <trkpt lat="47.21117" lon="-1.73412">
        <ele>51.1</ele>
        <time>2016-04-03T07:02:25.016Z</time>
      </trkpt>
      <trkpt lat="47.21118" lon="-1.734">
        <ele>51.6</ele>
        <time>2016-04-03T07:02:31.071Z</time>
      </trkpt>
      <trkpt lat="47.21119" lon="-1.73399">
        <ele>51.7</ele>
        <time>2016-04-03T07:02:32.003Z</time>
      </trkpt>
      <trkpt lat="47.21118" lon="-1.73387">
        <ele>52.4</ele>
        <time>2016-04-03T07:02:37.113Z</time>
      </trkpt>
      <trkpt lat="47.21118" lon="-1.73385">
        <ele>52.5</ele>
        <time>2016-04-03T07:02:38.012Z</time>
      </trkpt>
      <trkpt lat="47.21118" lon="-1.73373">
        <ele>53.1</ele>
        <time>2016-04-03T07:02:43.024Z</time>
      </trkpt>
      <trkpt lat="47.21118" lon="-1.7337">
        <ele>53.1</ele>
        <time>2016-04-03T07:02:44.185Z</time>
      </trkpt>
      <trkpt lat="47.2112" lon="-1.73358">
        <ele>53.4</ele>
        <time>2016-04-03T07:02:49.094Z</time>
      </trkpt>
      <trkpt lat="47.21121" lon="-1.73355">
        <ele>53.5</ele>
        <time>2016-04-03T07:02:50.011Z</time>
      </trkpt>
      <trkpt lat="47.21122" lon="-1.73342">
        <ele>54</ele>
        <time>2016-04-03T07:02:56.216Z</time>
      </trkpt>
      <trkpt lat="47.21122" lon="-1.7334">
        <ele>54.1</ele>
        <time>2016-04-03T07:02:57.017Z</time>
      </trkpt>
      <trkpt lat="47.21123" lon="-1.73327">
        <ele>54.8</ele>
        <time>2016-04-03T07:03:02.050Z</time>
      </trkpt>
      <trkpt lat="47.21123" lon="-1.73326">
        <ele>54.9</ele>
        <time>2016-04-03T07:03:03.018Z</time>
      </trkpt>
      <trkpt lat="47.21122" lon="-1.73315">
        <ele>55.6</ele>
        <time>2016-04-03T07:03:09.091Z</time>
      </trkpt>
      <trkpt lat="47.21122" lon="-1.73312">
        <ele>55.7</ele>
        <time>2016-04-03T07:03:10.010Z</time>
      </trkpt>
      <trkpt lat="47.21123" lon="-1.73299">
        <ele>55.7</ele>
        <time>2016-04-03T07:03:15.195Z</time>
      </trkpt>
      <trkpt lat="47.21123" lon="-1.73298">
        <ele>55.6</ele>
        <time>2016-04-03T07:03:15.983Z</time>
      </trkpt>
      <trkpt lat="47.21123" lon="-1.73286">
        <ele>55.2</ele>
        <time>2016-04-03T07:03:21.110Z</time>
      </trkpt>
      <trkpt lat="47.21123" lon="-1.73284">
        <ele>55.1</ele>
        <time>2016-04-03T07:03:22.009Z</time>
      </trkpt>
      <trkpt lat="47.21123" lon="-1.73272">
        <ele>55</ele>
        <time>2016-04-03T07:03:27.112Z</time>
      </trkpt>
      <trkpt lat="47.21123" lon="-1.7327">
        <ele>55</ele>
        <time>2016-04-03T07:03:27.958Z</time>
      </trkpt>
      <trkpt lat="47.21125" lon="-1.73257">
        <ele>54.9</ele>
        <time>2016-04-03T07:03:33.009Z</time>
      </trkpt>
      <trkpt lat="47.21125" lon="-1.73255">
        <ele>54.9</ele>
        <time>2016-04-03T07:03:34.021Z</time>
      </trkpt>
      <trkpt lat="47.21126" lon="-1.73243">
        <ele>54.7</ele>
        <time>2016-04-03T07:03:40.097Z</time>
      </trkpt>
      <trkpt lat="47.21126" lon="-1.73241">
        <ele>54.8</ele>
        <time>2016-04-03T07:03:41.026Z</time>
      </trkpt>
      <trkpt lat="47.21127" lon="-1.73229">
        <ele>55.1</ele>
        <time>2016-04-03T07:03:46.099Z</time>
      </trkpt>
      <trkpt lat="47.21127" lon="-1.73227">
        <ele>55.1</ele>
        <time>2016-04-03T07:03:47.023Z</time>
      </trkpt>
      <trkpt lat="47.21128" lon="-1.73215">
        <ele>55.3</ele>
        <time>2016-04-03T07:03:53.014Z</time>
      </trkpt>
      <trkpt lat="47.21128" lon="-1.73213">
        <ele>55.3</ele>
        <time>2016-04-03T07:03:54.037Z</time>
      </trkpt>
      <trkpt lat="47.21126" lon="-1.73201">
        <ele>55.5</ele>
        <time>2016-04-03T07:04:04.089Z</time>
      </trkpt>
      <trkpt lat="47.21126" lon="-1.732">
        <ele>55.5</ele>
        <time>2016-04-03T07:04:05.040Z</time>
      </trkpt>
      <trkpt lat="47.21118" lon="-1.73202">
        <ele>55.2</ele>
        <time>2016-04-03T07:04:14.131Z</time>
      </trkpt>
      <trkpt lat="47.21117" lon="-1.73203">
        <ele>55.2</ele>
        <time>2016-04-03T07:04:15.047Z</time>
      </trkpt>
      <trkpt lat="47.2111" lon="-1.73208">
        <ele>55.5</ele>
        <time>2016-04-03T07:04:20.133Z</time>
      </trkpt>
      <trkpt lat="47.21109" lon="-1.73209">
        <ele>55.5</ele>
        <time>2016-04-03T07:04:21.014Z</time>
      </trkpt>
      <trkpt lat="47.21102" lon="-1.73216">
        <ele>55.1</ele>
        <time>2016-04-03T07:04:29.036Z</time>
      </trkpt>
      <trkpt lat="47.211" lon="-1.73217">
        <ele>55.1</ele>
        <time>2016-04-03T07:04:30.029Z</time>
      </trkpt>
      <trkpt lat="47.21093" lon="-1.73223">
        <ele>54.8</ele>
        <time>2016-04-03T07:04:37.086Z</time>
      </trkpt>
      <trkpt lat="47.21091" lon="-1.73223">
        <ele>54.7</ele>
        <time>2016-04-03T07:04:38.024Z</time>
      </trkpt>
      <trkpt lat="47.21083" lon="-1.73228">
        <ele>54.7</ele>
        <time>2016-04-03T07:04:44.164Z</time>
      </trkpt>
      <trkpt lat="47.21082" lon="-1.73228">
        <ele>54.6</ele>
        <time>2016-04-03T07:04:45.021Z</time>
      </trkpt>
      <trkpt lat="47.21074" lon="-1.73232">
        <ele>54</ele>
        <time>2016-04-03T07:04:52.081Z</time>
      </trkpt>
      <trkpt lat="47.21073" lon="-1.73233">
        <ele>54</ele>
        <time>2016-04-03T07:04:53.043Z</time>
      </trkpt>
      <trkpt lat="47.21065" lon="-1.73237">
        <ele>53.7</ele>
        <time>2016-04-03T07:04:59.153Z</time>
      </trkpt>
      <trkpt lat="47.21064" lon="-1.73238">
        <ele>53.6</ele>
        <time>2016-04-03T07:05:00.053Z</time>
      </trkpt>
      <trkpt lat="47.21055" lon="-1.73237">
        <ele>53.3</ele>
        <time>2016-04-03T07:05:08.120Z</time>
      </trkpt>
      <trkpt lat="47.21054" lon="-1.73235">
        <ele>53.3</ele>
        <time>2016-04-03T07:05:09.098Z</time>
      </trkpt>
      <trkpt lat="47.21052" lon="-1.73224">
        <ele>53</ele>
        <time>2016-04-03T07:05:14.086Z</time>
      </trkpt>
      <trkpt lat="47.21051" lon="-1.73222">
        <ele>53</ele>
        <time>2016-04-03T07:05:15.064Z</time>
      </trkpt>
      <trkpt lat="47.2105" lon="-1.73211">
        <ele>52.6</ele>
        <time>2016-04-03T07:05:21.208Z</time>
      </trkpt>
      <trkpt lat="47.2105" lon="-1.73209">
        <ele>52.5</ele>
        <time>2016-04-03T07:05:22.070Z</time>
      </trkpt>
      <trkpt lat="47.21048" lon="-1.73198">
        <ele>52.1</ele>
        <time>2016-04-03T07:05:27.178Z</time>
      </trkpt>
      <trkpt lat="47.21047" lon="-1.73196">
        <ele>52</ele>
        <time>2016-04-03T07:05:28.033Z</time>
      </trkpt>
      <trkpt lat="47.21045" lon="-1.73183">
        <ele>51.4</ele>
        <time>2016-04-03T07:05:35.132Z</time>
      </trkpt>
      <trkpt lat="47.21045" lon="-1.73181">
        <ele>51.3</ele>
        <time>2016-04-03T07:05:36.003Z</time>
      </trkpt>
      <trkpt lat="47.21043" lon="-1.73169">
        <ele>50.8</ele>
        <time>2016-04-03T07:05:43.441Z</time>
      </trkpt>
      <trkpt lat="47.21042" lon="-1.73168">
        <ele>50.8</ele>
        <time>2016-04-03T07:05:43.996Z</time>
      </trkpt>
      <trkpt lat="47.21039" lon="-1.73157">
        <ele>50.6</ele>
        <time>2016-04-03T07:05:50.370Z</time>
      </trkpt>
      <trkpt lat="47.21039" lon="-1.73155">
        <ele>50.6</ele>
        <time>2016-04-03T07:05:51.004Z</time>
      </trkpt>
      <trkpt lat="47.21037" lon="-1.73142">
        <ele>50.6</ele>
        <time>2016-04-03T07:05:57.126Z</time>
      </trkpt>
      <trkpt lat="47.21036" lon="-1.7314">
        <ele>50.6</ele>
        <time>2016-04-03T07:05:58.005Z</time>
      </trkpt>
      <trkpt lat="47.21031" lon="-1.73132">
        <ele>50.5</ele>
        <time>2016-04-03T07:06:04.133Z</time>
      </trkpt>
      <trkpt lat="47.21029" lon="-1.73131">
        <ele>50.6</ele>
        <time>2016-04-03T07:06:05.079Z</time>
      </trkpt>
      <trkpt lat="47.21023" lon="-1.73124">
        <ele>50.5</ele>
        <time>2016-04-03T07:06:10.153Z</time>
      </trkpt>
      <trkpt lat="47.21021" lon="-1.73124">
        <ele>50.5</ele>
        <time>2016-04-03T07:06:10.990Z</time>
      </trkpt>
      <trkpt lat="47.21012" lon="-1.73125">
        <ele>50.5</ele>
        <time>2016-04-03T07:06:17.086Z</time>
      </trkpt>
      <trkpt lat="47.21011" lon="-1.73126">
        <ele>50.5</ele>
        <time>2016-04-03T07:06:18.009Z</time>
      </trkpt>
      <trkpt lat="47.21002" lon="-1.73131">
        <ele>50.7</ele>
        <time>2016-04-03T07:06:25.103Z</time>
      </trkpt>
      <trkpt lat="47.21002" lon="-1.73132">
        <ele>50.8</ele>
        <time>2016-04-03T07:06:26.147Z</time>
      </trkpt>
      <trkpt lat="47.20994" lon="-1.73137">
        <ele>51.2</ele>
        <time>2016-04-03T07:06:32.500Z</time>
      </trkpt>
      <trkpt lat="47.20993" lon="-1.73137">
        <ele>51.2</ele>
        <time>2016-04-03T07:06:33.002Z</time>
      </trkpt>
      <trkpt lat="47.20985" lon="-1.73141">
        <ele>51</ele>
        <time>2016-04-03T07:06:39.146Z</time>
      </trkpt>
      <trkpt lat="47.20983" lon="-1.73141">
        <ele>51</ele>
        <time>2016-04-03T07:06:40.009Z</time>
      </trkpt>
      <trkpt lat="47.20974" lon="-1.73138">
        <ele>50.7</ele>
        <time>2016-04-03T07:06:45.044Z</time>
      </trkpt>
      <trkpt lat="47.20973" lon="-1.73137">
        <ele>50.6</ele>
        <time>2016-04-03T07:06:46.008Z</time>
      </trkpt>
      <trkpt lat="47.20965" lon="-1.73132">
        <ele>50.6</ele>
        <time>2016-04-03T07:06:51.090Z</time>
      </trkpt>
      <trkpt lat="47.20964" lon="-1.73131">
        <ele>50.6</ele>
        <time>2016-04-03T07:06:51.997Z</time>
      </trkpt>
      <trkpt lat="47.20957" lon="-1.73125">
        <ele>50.9</ele>
        <time>2016-04-03T07:06:59.102Z</time>
      </trkpt>
      <trkpt lat="47.20956" lon="-1.73124">
        <ele>50.9</ele>
        <time>2016-04-03T07:06:59.962Z</time>
      </trkpt>
      <trkpt lat="47.2095" lon="-1.73114">
        <ele>51.2</ele>
        <time>2016-04-03T07:07:07.115Z</time>
      </trkpt>
      <trkpt lat="47.20949" lon="-1.73112">
        <ele>51.3</ele>
        <time>2016-04-03T07:07:08.011Z</time>
      </trkpt>
      <trkpt lat="47.20946" lon="-1.731">
        <ele>51.4</ele>
        <time>2016-04-03T07:07:14.236Z</time>
      </trkpt>
      <trkpt lat="47.20946" lon="-1.73098">
        <ele>51.3</ele>
        <time>2016-04-03T07:07:15.011Z</time>
      </trkpt>
      <trkpt lat="47.20944" lon="-1.73086">
        <ele>51.2</ele>
        <time>2016-04-03T07:07:21.137Z</time>
      </trkpt>
      <trkpt lat="47.20943" lon="-1.73083">
        <ele>51.1</ele>
        <time>2016-04-03T07:07:21.995Z</time>
      </trkpt>
      <trkpt lat="47.2094" lon="-1.73073">
        <ele>50.7</ele>
        <time>2016-04-03T07:07:27.024Z</time>
      </trkpt>
      <trkpt lat="47.2094" lon="-1.73071">
        <ele>50.7</ele>
        <time>2016-04-03T07:07:27.996Z</time>
      </trkpt>
      <trkpt lat="47.20936" lon="-1.7306">
        <ele>50.3</ele>
        <time>2016-04-03T07:07:33.298Z</time>
      </trkpt>
      <trkpt lat="47.20936" lon="-1.73058">
        <ele>50.3</ele>
        <time>2016-04-03T07:07:33.984Z</time>
      </trkpt>
      <trkpt lat="47.20933" lon="-1.73046">
        <ele>49.8</ele>
        <time>2016-04-03T07:07:41.061Z</time>
      </trkpt>
      <trkpt lat="47.20933" lon="-1.73044">
        <ele>49.8</ele>
        <time>2016-04-03T07:07:41.977Z</time>
      </trkpt>
      <trkpt lat="47.20929" lon="-1.73032">
        <ele>49.5</ele>
        <time>2016-04-03T07:07:48.037Z</time>
      </trkpt>
      <trkpt lat="47.20929" lon="-1.7303">
        <ele>49.5</ele>
        <time>2016-04-03T07:07:48.975Z</time>
      </trkpt>
      <trkpt lat="47.20925" lon="-1.7302">
        <ele>49.7</ele>
        <time>2016-04-03T07:07:55.047Z</time>
      </trkpt>
      <trkpt lat="47.20924" lon="-1.73018">
        <ele>49.7</ele>
        <time>2016-04-03T07:07:55.985Z</time>
      </trkpt>
      <trkpt lat="47.20922" lon="-1.73007">
        <ele>49.6</ele>
        <time>2016-04-03T07:08:02.091Z</time>
      </trkpt>
      <trkpt lat="47.20921" lon="-1.73004">
        <ele>49.5</ele>
        <time>2016-04-03T07:08:03.020Z</time>
      </trkpt>
      <trkpt lat="47.20919" lon="-1.72993">
        <ele>49.5</ele>
        <time>2016-04-03T07:08:08.092Z</time>
      </trkpt>
      <trkpt lat="47.20919" lon="-1.72991">
        <ele>49.5</ele>
        <time>2016-04-03T07:08:09.156Z</time>
      </trkpt>
      <trkpt lat="47.20921" lon="-1.72979">
        <ele>48.8</ele>
        <time>2016-04-03T07:08:16.205Z</time>
      </trkpt>
      <trkpt lat="47.20921" lon="-1.72977">
        <ele>48.6</ele>
        <time>2016-04-03T07:08:17.003Z</time>
      </trkpt>
      <trkpt lat="47.20919" lon="-1.72965">
        <ele>48.4</ele>
        <time>2016-04-03T07:08:23.027Z</time>
      </trkpt>
      <trkpt lat="47.20919" lon="-1.72963">
        <ele>48.4</ele>
        <time>2016-04-03T07:08:23.990Z</time>
      </trkpt>
      <trkpt lat="47.20917" lon="-1.7295">
        <ele>48.9</ele>
        <time>2016-04-03T07:08:32.059Z</time>
      </trkpt>
      <trkpt lat="47.20916" lon="-1.72948">
        <ele>48.9</ele>
        <time>2016-04-03T07:08:33.064Z</time>
      </trkpt>
      <trkpt lat="47.20913" lon="-1.72938">
        <ele>49</ele>
        <time>2016-04-03T07:08:38.152Z</time>
      </trkpt>
      <trkpt lat="47.20913" lon="-1.72935">
        <ele>49.1</ele>
        <time>2016-04-03T07:08:38.993Z</time>
      </trkpt>
      <trkpt lat="47.20909" lon="-1.72924">
        <ele>49.2</ele>
        <time>2016-04-03T07:08:45.263Z</time>
      </trkpt>
      <trkpt lat="47.20908" lon="-1.72921">
        <ele>49.2</ele>
        <time>2016-04-03T07:08:45.993Z</time>
      </trkpt>
      <trkpt lat="47.209" lon="-1.72916">
        <ele>49.6</ele>
        <time>2016-04-03T07:08:53.030Z</time>
      </trkpt>
      <trkpt lat="47.20898" lon="-1.72917">
        <ele>49.7</ele>
        <time>2016-04-03T07:08:53.985Z</time>
      </trkpt>
      <trkpt lat="47.2089" lon="-1.72923">
        <ele>50.3</ele>
        <time>2016-04-03T07:08:59.077Z</time>
      </trkpt>
      <trkpt lat="47.20889" lon="-1.72923">
        <ele>50.4</ele>
        <time>2016-04-03T07:08:59.999Z</time>
      </trkpt>
      <trkpt lat="47.20882" lon="-1.72925">
        <ele>50.7</ele>
        <time>2016-04-03T07:09:06.087Z</time>
      </trkpt>
      <trkpt lat="47.2088" lon="-1.72925">
        <ele>50.7</ele>
        <time>2016-04-03T07:09:06.988Z</time>
      </trkpt>
      <trkpt lat="47.20872" lon="-1.7292">
        <ele>50.9</ele>
        <time>2016-04-03T07:09:11.774Z</time>
      </trkpt>
      <trkpt lat="47.20871" lon="-1.7292">
        <ele>51</ele>
        <time>2016-04-03T07:09:11.988Z</time>
      </trkpt>
      <trkpt lat="47.20863" lon="-1.72914">
        <ele>51.1</ele>
        <time>2016-04-03T07:09:17.106Z</time>
      </trkpt>
      <trkpt lat="47.20862" lon="-1.72913">
        <ele>51.1</ele>
        <time>2016-04-03T07:09:18.184Z</time>
      </trkpt>
      <trkpt lat="47.20856" lon="-1.72903">
        <ele>51.1</ele>
        <time>2016-04-03T07:09:24.061Z</time>
      </trkpt>
      <trkpt lat="47.20855" lon="-1.72901">
        <ele>51.1</ele>
        <time>2016-04-03T07:09:24.983Z</time>
      </trkpt>
      <trkpt lat="47.20852" lon="-1.72889">
        <ele>50.8</ele>
        <time>2016-04-03T07:09:31.058Z</time>
      </trkpt>
      <trkpt lat="47.20852" lon="-1.72888">
        <ele>50.7</ele>
        <time>2016-04-03T07:09:32.300Z</time>
      </trkpt>
      <trkpt lat="47.20853" lon="-1.72876">
        <ele>50.5</ele>
        <time>2016-04-03T07:09:38.128Z</time>
      </trkpt>
      <trkpt lat="47.20853" lon="-1.72874">
        <ele>50.5</ele>
        <time>2016-04-03T07:09:39.009Z</time>
      </trkpt>
      <trkpt lat="47.20854" lon="-1.72861">
        <ele>49.8</ele>
        <time>2016-04-03T07:09:45.097Z</time>
      </trkpt>
      <trkpt lat="47.20854" lon="-1.72858">
        <ele>49.7</ele>
        <time>2016-04-03T07:09:46.000Z</time>
      </trkpt>
      <trkpt lat="47.20856" lon="-1.72846">
        <ele>48.8</ele>
        <time>2016-04-03T07:09:53.041Z</time>
      </trkpt>
      <trkpt lat="47.20856" lon="-1.72844">
        <ele>48.7</ele>
        <time>2016-04-03T07:09:54.011Z</time>
      </trkpt>
      <trkpt lat="47.2086" lon="-1.72833">
        <ele>48.9</ele>
        <time>2016-04-03T07:10:02.335Z</time>
      </trkpt>
      <trkpt lat="47.2086" lon="-1.72831">
        <ele>49</ele>
        <time>2016-04-03T07:10:03.060Z</time>
      </trkpt>
      <trkpt lat="47.20862" lon="-1.7282">
        <ele>49.6</ele>
        <time>2016-04-03T07:10:08.135Z</time>
      </trkpt>
      <trkpt lat="47.20862" lon="-1.72818">
        <ele>49.7</ele>
        <time>2016-04-03T07:10:09.112Z</time>
      </trkpt>
      <trkpt lat="47.20864" lon="-1.72806">
        <ele>49.8</ele>
        <time>2016-04-03T07:10:16.097Z</time>
      </trkpt>
      <trkpt lat="47.20865" lon="-1.72805">
        <ele>49.8</ele>
        <time>2016-04-03T07:10:17.009Z</time>
      </trkpt>
      <trkpt lat="47.20866" lon="-1.72792">
        <ele>49.8</ele>
        <time>2016-04-03T07:10:24.127Z</time>
      </trkpt>
      <trkpt lat="47.20866" lon="-1.7279">
        <ele>49.9</ele>
        <time>2016-04-03T07:10:25.001Z</time>
      </trkpt>
      <trkpt lat="47.20864" lon="-1.72777">
        <ele>50.1</ele>
        <time>2016-04-03T07:10:31.098Z</time>
      </trkpt>
      <trkpt lat="47.20864" lon="-1.72775">
        <ele>50.1</ele>
        <time>2016-04-03T07:10:32.005Z</time>
      </trkpt>
      <trkpt lat="47.20865" lon="-1.72763">
        <ele>50.2</ele>
        <time>2016-04-03T07:10:43.058Z</time>
      </trkpt>
      <trkpt lat="47.20865" lon="-1.7276">
        <ele>50.2</ele>
        <time>2016-04-03T07:10:44.000Z</time>
      </trkpt>
      <trkpt lat="47.20868" lon="-1.72747">
        <ele>50.1</ele>
        <time>2016-04-03T07:10:51.058Z</time>
      </trkpt>
      <trkpt lat="47.20868" lon="-1.72746">
        <ele>50.2</ele>
        <time>2016-04-03T07:10:52.000Z</time>
      </trkpt>
      <trkpt lat="47.20869" lon="-1.72734">
        <ele>50.3</ele>
        <time>2016-04-03T07:10:58.080Z</time>
      </trkpt>
      <trkpt lat="47.2087" lon="-1.72732">
        <ele>50.3</ele>
        <time>2016-04-03T07:10:58.976Z</time>
      </trkpt>
      <trkpt lat="47.20871" lon="-1.72719">
        <ele>50</ele>
        <time>2016-04-03T07:11:06.065Z</time>
      </trkpt>
      <trkpt lat="47.20872" lon="-1.72718">
        <ele>50</ele>
        <time>2016-04-03T07:11:06.998Z</time>
      </trkpt>
      <trkpt lat="47.20875" lon="-1.72706">
        <ele>49.7</ele>
        <time>2016-04-03T07:11:13.025Z</time>
      </trkpt>
      <trkpt lat="47.20875" lon="-1.72705">
        <ele>49.7</ele>
        <time>2016-04-03T07:11:13.976Z</time>
      </trkpt>
      <trkpt lat="47.20877" lon="-1.72692">
        <ele>49.9</ele>
        <time>2016-04-03T07:11:24.065Z</time>
      </trkpt>
      <trkpt lat="47.20877" lon="-1.7269">
        <ele>50</ele>
        <time>2016-04-03T07:11:24.984Z</time>
      </trkpt>
      <trkpt lat="47.20877" lon="-1.72678">
        <ele>50.4</ele>
        <time>2016-04-03T07:11:31.504Z</time>
      </trkpt>
      <trkpt lat="47.20876" lon="-1.72675">
        <ele>50.5</ele>
        <time>2016-04-03T07:11:31.975Z</time>
      </trkpt>
      <trkpt lat="47.20875" lon="-1.72662">
        <ele>51</ele>
        <time>2016-04-03T07:11:38.059Z</time>
      </trkpt>
      <trkpt lat="47.20876" lon="-1.7266">
        <ele>51.1</ele>
        <time>2016-04-03T07:11:38.986Z</time>
      </trkpt>
      <trkpt lat="47.20877" lon="-1.72649">
        <ele>50.5</ele>
        <time>2016-04-03T07:11:46.140Z</time>
      </trkpt>
      <trkpt lat="47.20878" lon="-1.72647">
        <ele>50.5</ele>
        <time>2016-04-03T07:11:46.988Z</time>
      </trkpt>
      <trkpt lat="47.2088" lon="-1.72636">
        <ele>51</ele>
        <time>2016-04-03T07:11:53.039Z</time>
      </trkpt>
      <trkpt lat="47.20881" lon="-1.72634">
        <ele>51.1</ele>
        <time>2016-04-03T07:11:53.985Z</time>
      </trkpt>
      <trkpt lat="47.20885" lon="-1.72623">
        <ele>51.2</ele>
        <time>2016-04-03T07:11:59.124Z</time>
      </trkpt>
      <trkpt lat="47.20886" lon="-1.7262">
        <ele>51.3</ele>
        <time>2016-04-03T07:11:59.995Z</time>
      </trkpt>
      <trkpt lat="47.20888" lon="-1.72608">
        <ele>51.3</ele>
        <time>2016-04-03T07:12:06.447Z</time>
      </trkpt>
      <trkpt lat="47.20888" lon="-1.72607">
        <ele>51.4</ele>
        <time>2016-04-03T07:12:07.025Z</time>
      </trkpt>
      <trkpt lat="47.20888" lon="-1.72595">
        <ele>51.3</ele>
        <time>2016-04-03T07:12:14.049Z</time>
      </trkpt>
      <trkpt lat="47.20888" lon="-1.72593">
        <ele>51.2</ele>
        <time>2016-04-03T07:12:15.063Z</time>
      </trkpt>
      <trkpt lat="47.20889" lon="-1.72581">
        <ele>51.3</ele>
        <time>2016-04-03T07:12:20.239Z</time>
      </trkpt>
      <trkpt lat="47.20889" lon="-1.72579">
        <ele>51.3</ele>
        <time>2016-04-03T07:12:20.988Z</time>
      </trkpt>
      <trkpt lat="47.20888" lon="-1.72567">
        <ele>51.5</ele>
        <time>2016-04-03T07:12:27.244Z</time>
      </trkpt>
      <trkpt lat="47.20888" lon="-1.72564">
        <ele>51.5</ele>
        <time>2016-04-03T07:12:27.984Z</time>
      </trkpt>
      <trkpt lat="47.20886" lon="-1.72553">
        <ele>51.8</ele>
        <time>2016-04-03T07:12:33.042Z</time>
      </trkpt>
      <trkpt lat="47.20886" lon="-1.7255">
        <ele>51.8</ele>
        <time>2016-04-03T07:12:34.015Z</time>
      </trkpt>
      <trkpt lat="47.20885" lon="-1.72538">
        <ele>51.6</ele>
        <time>2016-04-03T07:12:40.024Z</time>
      </trkpt>
      <trkpt lat="47.20885" lon="-1.72537">
        <ele>51.5</ele>
        <time>2016-04-03T07:12:41.036Z</time>
      </trkpt>
      <trkpt lat="47.20883" lon="-1.72525">
        <ele>51</ele>
        <time>2016-04-03T07:12:47.538Z</time>
      </trkpt>
      <trkpt lat="47.20882" lon="-1.72522">
        <ele>51</ele>
        <time>2016-04-03T07:12:47.968Z</time>
      </trkpt>
      <trkpt lat="47.20881" lon="-1.72509">
        <ele>51</ele>
        <time>2016-04-03T07:12:54.130Z</time>
      </trkpt>
      <trkpt lat="47.20881" lon="-1.72507">
        <ele>51</ele>
        <time>2016-04-03T07:12:55.184Z</time>
      </trkpt>
      <trkpt lat="47.20882" lon="-1.72494">
        <ele>51.1</ele>
        <time>2016-04-03T07:13:02.011Z</time>
      </trkpt>
      <trkpt lat="47.20882" lon="-1.72493">
        <ele>51</ele>
        <time>2016-04-03T07:13:03.056Z</time>
      </trkpt>
      <trkpt lat="47.2088" lon="-1.7248">
        <ele>50.3</ele>
        <time>2016-04-03T07:13:09.170Z</time>
      </trkpt>
      <trkpt lat="47.2088" lon="-1.72478">
        <ele>50.2</ele>
        <time>2016-04-03T07:13:10.071Z</time>
      </trkpt>
      <trkpt lat="47.20878" lon="-1.72466">
        <ele>49.8</ele>
        <time>2016-04-03T07:13:15.071Z</time>
      </trkpt>
      <trkpt lat="47.20877" lon="-1.72464">
        <ele>49.8</ele>
        <time>2016-04-03T07:13:15.962Z</time>
      </trkpt>
      <trkpt lat="47.20877" lon="-1.72452">
        <ele>49.4</ele>
        <time>2016-04-03T07:13:22.073Z</time>
      </trkpt>
      <trkpt lat="47.20877" lon="-1.72448">
        <ele>49.3</ele>
        <time>2016-04-03T07:13:23.020Z</time>
      </trkpt>
      <trkpt lat="47.20876" lon="-1.72436">
        <ele>49</ele>
        <time>2016-04-03T07:13:28.123Z</time>
      </trkpt>
      <trkpt lat="47.20876" lon="-1.72434">
        <ele>48.9</ele>
        <time>2016-04-03T07:13:28.980Z</time>
      </trkpt>
      <trkpt lat="47.20874" lon="-1.72422">
        <ele>49</ele>
        <time>2016-04-03T07:13:35.468Z</time>
      </trkpt>
      <trkpt lat="47.20874" lon="-1.7242">
        <ele>49</ele>
        <time>2016-04-03T07:13:36.027Z</time>
      </trkpt>
      <trkpt lat="47.20873" lon="-1.72407">
        <ele>48.7</ele>
        <time>2016-04-03T07:13:42.200Z</time>
      </trkpt>
      <trkpt lat="47.20873" lon="-1.72406">
        <ele>48.6</ele>
        <time>2016-04-03T07:13:43.026Z</time>
      </trkpt>
      <trkpt lat="47.20873" lon="-1.72393">
        <ele>48.6</ele>
        <time>2016-04-03T07:13:49.115Z</time>
      </trkpt>
      <trkpt lat="47.20873" lon="-1.72392">
        <ele>48.7</ele>
        <time>2016-04-03T07:13:50.030Z</time>
      </trkpt>
      <trkpt lat="47.20871" lon="-1.7238">
        <ele>49.1</ele>
        <time>2016-04-03T07:13:55.116Z</time>
      </trkpt>
      <trkpt lat="47.20871" lon="-1.72378">
        <ele>49.2</ele>
        <time>2016-04-03T07:13:56.034Z</time>
      </trkpt>
      <trkpt lat="47.2087" lon="-1.72367">
        <ele>49.5</ele>
        <time>2016-04-03T07:14:00.993Z</time>
      </trkpt>
      <trkpt lat="47.20869" lon="-1.72365">
        <ele>49.6</ele>
        <time>2016-04-03T07:14:02.040Z</time>
      </trkpt>
      <trkpt lat="47.20867" lon="-1.72354">
        <ele>49.1</ele>
        <time>2016-04-03T07:14:08.147Z</time>
      </trkpt>
      <trkpt lat="47.20867" lon="-1.72352">
        <ele>49</ele>
        <time>2016-04-03T07:14:09.077Z</time>
      </trkpt>
      <trkpt lat="47.20867" lon="-1.72341">
        <ele>48.7</ele>
        <time>2016-04-03T07:14:14.134Z</time>
      </trkpt>
      <trkpt lat="47.20866" lon="-1.72339">
        <ele>48.7</ele>
        <time>2016-04-03T07:14:14.985Z</time>
      </trkpt>
      <trkpt lat="47.20864" lon="-1.72326">
        <ele>48.5</ele>
        <time>2016-04-03T07:14:21.111Z</time>
      </trkpt>
      <trkpt lat="47.20863" lon="-1.72324">
        <ele>48.4</ele>
        <time>2016-04-03T07:14:22.034Z</time>
      </trkpt>
      <trkpt lat="47.20863" lon="-1.72311">
        <ele>48.2</ele>
        <time>2016-04-03T07:14:33.122Z</time>
      </trkpt>
      <trkpt lat="47.20863" lon="-1.72309">
        <ele>48.3</ele>
        <time>2016-04-03T07:14:34.022Z</time>
      </trkpt>
      <trkpt lat="47.20864" lon="-1.72298">
        <ele>49.2</ele>
        <time>2016-04-03T07:14:40.104Z</time>
      </trkpt>
      <trkpt lat="47.20864" lon="-1.72296">
        <ele>49.3</ele>
        <time>2016-04-03T07:14:41.010Z</time>
      </trkpt>
      <trkpt lat="47.20865" lon="-1.72283">
        <ele>50.8</ele>
        <time>2016-04-03T07:14:49.146Z</time>
      </trkpt>
      <trkpt lat="47.20865" lon="-1.72281">
        <ele>51.1</ele>
        <time>2016-04-03T07:14:50.043Z</time>
      </trkpt>
      <trkpt lat="47.20865" lon="-1.72269">
        <ele>51.4</ele>
        <time>2016-04-03T07:14:54.122Z</time>
      </trkpt>
      <trkpt lat="47.20865" lon="-1.72267">
        <ele>51.3</ele>
        <time>2016-04-03T07:14:54.982Z</time>
      </trkpt>
      <trkpt lat="47.20864" lon="-1.72255">
        <ele>50.9</ele>
        <time>2016-04-03T07:15:01.156Z</time>
      </trkpt>
      <trkpt lat="47.20864" lon="-1.72252">
        <ele>50.9</ele>
        <time>2016-04-03T07:15:02.034Z</time>
      </trkpt>
      <trkpt lat="47.20863" lon="-1.7224">
        <ele>50.8</ele>
        <time>2016-04-03T07:15:08.146Z</time>
      </trkpt>
      <trkpt lat="47.20863" lon="-1.72238">
        <ele>50.8</ele>
        <time>2016-04-03T07:15:09.080Z</time>
      </trkpt>
      <trkpt lat="47.20864" lon="-1.72226">
        <ele>51.2</ele>
        <time>2016-04-03T07:15:15.167Z</time>
      </trkpt>
      <trkpt lat="47.20864" lon="-1.72223">
        <ele>51.3</ele>
        <time>2016-04-03T07:15:16.042Z</time>
      </trkpt>
      <trkpt lat="47.20864" lon="-1.72211">
        <ele>51.5</ele>
        <time>2016-04-03T07:15:22.108Z</time>
      </trkpt>
      <trkpt lat="47.20864" lon="-1.72208">
        <ele>51.5</ele>
        <time>2016-04-03T07:15:23.050Z</time>
      </trkpt>
      <trkpt lat="47.20861" lon="-1.72196">
        <ele>51.7</ele>
        <time>2016-04-03T07:15:30.143Z</time>
      </trkpt>
      <trkpt lat="47.20861" lon="-1.72194">
        <ele>51.7</ele>
        <time>2016-04-03T07:15:31.026Z</time>
      </trkpt>
      <trkpt lat="47.20861" lon="-1.72181">
        <ele>51.5</ele>
        <time>2016-04-03T07:15:37.117Z</time>
      </trkpt>
      <trkpt lat="47.20862" lon="-1.72179">
        <ele>51.5</ele>
        <time>2016-04-03T07:15:38.421Z</time>
      </trkpt>
      <trkpt lat="47.20861" lon="-1.72166">
        <ele>51.9</ele>
        <time>2016-04-03T07:15:44.168Z</time>
      </trkpt>
      <trkpt lat="47.20861" lon="-1.72165">
        <ele>52.1</ele>
        <time>2016-04-03T07:15:45.127Z</time>
      </trkpt>
      <trkpt lat="47.20861" lon="-1.72152">
        <ele>52.6</ele>
        <time>2016-04-03T07:15:51.133Z</time>
      </trkpt>
      <trkpt lat="47.20861" lon="-1.7215">
        <ele>52.6</ele>
        <time>2016-04-03T07:15:52.042Z</time>
      </trkpt>
      <trkpt lat="47.2086" lon="-1.72138">
        <ele>52.7</ele>
        <time>2016-04-03T07:15:56.151Z</time>
      </trkpt>
      <trkpt lat="47.2086" lon="-1.72136">
        <ele>52.7</ele>
        <time>2016-04-03T07:15:57.062Z</time>
      </trkpt>
      <trkpt lat="47.2086" lon="-1.72123">
        <ele>52.1</ele>
        <time>2016-04-03T07:16:11.193Z</time>
      </trkpt>
      <trkpt lat="47.2086" lon="-1.72122">
        <ele>51.9</ele>
        <time>2016-04-03T07:16:12.015Z</time>
      </trkpt>
      <trkpt lat="47.20859" lon="-1.7211">
        <ele>51.9</ele>
        <time>2016-04-03T07:16:17.083Z</time>
      </trkpt>
      <trkpt lat="47.20859" lon="-1.72108">
        <ele>52.1</ele>
        <time>2016-04-03T07:16:18.005Z</time>
      </trkpt>
      <trkpt lat="47.20858" lon="-1.72096">
        <ele>52.6</ele>
        <time>2016-04-03T07:16:24.100Z</time>
      </trkpt>
      <trkpt lat="47.20858" lon="-1.72094">
        <ele>52.7</ele>
        <time>2016-04-03T07:16:25.006Z</time>
      </trkpt>
      <trkpt lat="47.20857" lon="-1.72082">
        <ele>53.7</ele>
        <time>2016-04-03T07:16:31.159Z</time>
      </trkpt>
      <trkpt lat="47.20856" lon="-1.72079">
        <ele>53.8</ele>
        <time>2016-04-03T07:16:31.996Z</time>
      </trkpt>
      <trkpt lat="47.20855" lon="-1.72066">
        <ele>55</ele>
        <time>2016-04-03T07:16:40.135Z</time>
      </trkpt>
      <trkpt lat="47.20856" lon="-1.72066">
        <ele>55.2</ele>
        <time>2016-04-03T07:16:41.016Z</time>
      </trkpt>
      <trkpt lat="47.20854" lon="-1.72057">
        <ele>56.3</ele>
        <time>2016-04-03T07:16:57.124Z</time>
      </trkpt>
      <trkpt lat="47.20854" lon="-1.72053">
        <ele>56.2</ele>
        <time>2016-04-03T07:16:58.045Z</time>
      </trkpt>
      <trkpt lat="47.20854" lon="-1.72041">
        <ele>55.7</ele>
        <time>2016-04-03T07:17:03.096Z</time>
      </trkpt>
      <trkpt lat="47.20854" lon="-1.72039">
        <ele>55.6</ele>
        <time>2016-04-03T07:17:04.071Z</time>
      </trkpt>
      <trkpt lat="47.20854" lon="-1.72029">
        <ele>55.2</ele>
        <time>2016-04-03T07:17:10.109Z</time>
      </trkpt>
      <trkpt lat="47.20854" lon="-1.72026">
        <ele>55.1</ele>
        <time>2016-04-03T07:17:11.060Z</time>
      </trkpt>
      <trkpt lat="47.20856" lon="-1.72013">
        <ele>55.2</ele>
        <time>2016-04-03T07:17:18.163Z</time>
      </trkpt>
      <trkpt lat="47.20856" lon="-1.72011">
        <ele>55.1</ele>
        <time>2016-04-03T07:17:19.021Z</time>
      </trkpt>
      <trkpt lat="47.20856" lon="-1.71999">
        <ele>55.4</ele>
        <time>2016-04-03T07:17:24.127Z</time>
      </trkpt>
      <trkpt lat="47.20856" lon="-1.71997">
        <ele>55.5</ele>
        <time>2016-04-03T07:17:25.059Z</time>
      </trkpt>
      <trkpt lat="47.20855" lon="-1.71984">
        <ele>55.8</ele>
        <time>2016-04-03T07:17:31.090Z</time>
      </trkpt>
      <trkpt lat="47.20855" lon="-1.71983">
        <ele>55.9</ele>
        <time>2016-04-03T07:17:32.014Z</time>
      </trkpt>
      <trkpt lat="47.20854" lon="-1.71971">
        <ele>55.9</ele>
        <time>2016-04-03T07:17:39.319Z</time>
      </trkpt>
      <trkpt lat="47.20854" lon="-1.71969">
        <ele>55.9</ele>
        <time>2016-04-03T07:17:40.092Z</time>
      </trkpt>
      <trkpt lat="47.20853" lon="-1.71956">
        <ele>55.9</ele>
        <time>2016-04-03T07:17:46.169Z</time>
      </trkpt>
      <trkpt lat="47.20853" lon="-1.71954">
        <ele>55.9</ele>
        <time>2016-04-03T07:17:47.004Z</time>
      </trkpt>
      <trkpt lat="47.20851" lon="-1.71942">
        <ele>56</ele>
        <time>2016-04-03T07:17:53.116Z</time>
      </trkpt>
      <trkpt lat="47.20851" lon="-1.7194">
        <ele>56</ele>
        <time>2016-04-03T07:17:54.065Z</time>
      </trkpt>
      <trkpt lat="47.2085" lon="-1.71928">
        <ele>55.6</ele>
        <time>2016-04-03T07:17:59.159Z</time>
      </trkpt>
      <trkpt lat="47.2085" lon="-1.71926">
        <ele>55.4</ele>
        <time>2016-04-03T07:18:00.070Z</time>
      </trkpt>
      <trkpt lat="47.20848" lon="-1.71916">
        <ele>55.1</ele>
        <time>2016-04-03T07:18:05.090Z</time>
      </trkpt>
      <trkpt lat="47.20847" lon="-1.71913">
        <ele>55.1</ele>
        <time>2016-04-03T07:18:06.056Z</time>
      </trkpt>
      <trkpt lat="47.20846" lon="-1.71901">
        <ele>54.7</ele>
        <time>2016-04-03T07:18:10.120Z</time>
      </trkpt>
      <trkpt lat="47.20846" lon="-1.71899">
        <ele>54.6</ele>
        <time>2016-04-03T07:18:11.239Z</time>
      </trkpt>
      <trkpt lat="47.20844" lon="-1.71887">
        <ele>53.3</ele>
        <time>2016-04-03T07:18:17.097Z</time>
      </trkpt>
      <trkpt lat="47.20844" lon="-1.71886">
        <ele>53.2</ele>
        <time>2016-04-03T07:18:18.047Z</time>
      </trkpt>
      <trkpt lat="47.20845" lon="-1.71873">
        <ele>52.4</ele>
        <time>2016-04-03T07:18:23.164Z</time>
      </trkpt>
      <trkpt lat="47.20845" lon="-1.71871">
        <ele>52.2</ele>
        <time>2016-04-03T07:18:24.023Z</time>
      </trkpt>
      <trkpt lat="47.20845" lon="-1.71858">
        <ele>51.8</ele>
        <time>2016-04-03T07:18:32.049Z</time>
      </trkpt>
      <trkpt lat="47.20845" lon="-1.71857">
        <ele>51.9</ele>
        <time>2016-04-03T07:18:33.058Z</time>
      </trkpt>
      <trkpt lat="47.20846" lon="-1.71845">
        <ele>52.5</ele>
        <time>2016-04-03T07:18:38.445Z</time>
      </trkpt>
      <trkpt lat="47.20846" lon="-1.71843">
        <ele>52.6</ele>
        <time>2016-04-03T07:18:39.047Z</time>
      </trkpt>
      <trkpt lat="47.20846" lon="-1.7183">
        <ele>52.7</ele>
        <time>2016-04-03T07:18:44.510Z</time>
      </trkpt>
      <trkpt lat="47.20845" lon="-1.71828">
        <ele>52.8</ele>
        <time>2016-04-03T07:18:45.016Z</time>
      </trkpt>
      <trkpt lat="47.20845" lon="-1.71817">
        <ele>52.5</ele>
        <time>2016-04-03T07:18:50.203Z</time>
      </trkpt>
      <trkpt lat="47.20845" lon="-1.71814">
        <ele>52.5</ele>
        <time>2016-04-03T07:18:51.065Z</time>
      </trkpt>
      <trkpt lat="47.20844" lon="-1.71801">
        <ele>52.7</ele>
        <time>2016-04-03T07:18:56.153Z</time>
      </trkpt>
      <trkpt lat="47.20844" lon="-1.71798">
        <ele>52.7</ele>
        <time>2016-04-03T07:18:57.059Z</time>
      </trkpt>
      <trkpt lat="47.20843" lon="-1.71786">
        <ele>53</ele>
        <time>2016-04-03T07:19:04.124Z</time>
      </trkpt>
      <trkpt lat="47.20843" lon="-1.71785">
        <ele>53</ele>
        <time>2016-04-03T07:19:05.020Z</time>
      </trkpt>
      <trkpt lat="47.20843" lon="-1.71774">
        <ele>52.9</ele>
        <time>2016-04-03T07:19:09.145Z</time>
      </trkpt>
      <trkpt lat="47.20842" lon="-1.71771">
        <ele>52.8</ele>
        <time>2016-04-03T07:19:10.063Z</time>
      </trkpt>
      <trkpt lat="47.20841" lon="-1.71759">
        <ele>52.4</ele>
        <time>2016-04-03T07:19:15.144Z</time>
      </trkpt>
      <trkpt lat="47.20842" lon="-1.71757">
        <ele>52.4</ele>
        <time>2016-04-03T07:19:16.056Z</time>
      </trkpt>
      <trkpt lat="47.20842" lon="-1.71746">
        <ele>52.2</ele>
        <time>2016-04-03T07:19:21.038Z</time>
      </trkpt>
      <trkpt lat="47.20842" lon="-1.71743">
        <ele>52.2</ele>
        <time>2016-04-03T07:19:22.053Z</time>
      </trkpt>
      <trkpt lat="47.2084" lon="-1.71733">
        <ele>52</ele>
        <time>2016-04-03T07:19:27.076Z</time>
      </trkpt>
      <trkpt lat="47.2084" lon="-1.7173">
        <ele>52</ele>
        <time>2016-04-03T07:19:28.041Z</time>
      </trkpt>
      <trkpt lat="47.20838" lon="-1.71718">
        <ele>51.6</ele>
        <time>2016-04-03T07:19:34.204Z</time>
      </trkpt>
      <trkpt lat="47.20838" lon="-1.71716">
        <ele>51.5</ele>
        <time>2016-04-03T07:19:35.047Z</time>
      </trkpt>
      <trkpt lat="47.20839" lon="-1.71704">
        <ele>51.8</ele>
        <time>2016-04-03T07:19:41.055Z</time>
      </trkpt>
      <trkpt lat="47.20839" lon="-1.71701">
        <ele>51.9</ele>
        <time>2016-04-03T07:19:42.045Z</time>
      </trkpt>
      <trkpt lat="47.2084" lon="-1.71688">
        <ele>52</ele>
        <time>2016-04-03T07:19:46.063Z</time>
      </trkpt>
      <trkpt lat="47.2084" lon="-1.71686">
        <ele>52</ele>
        <time>2016-04-03T07:19:47.016Z</time>
      </trkpt>
      <trkpt lat="47.20839" lon="-1.71674">
        <ele>52</ele>
        <time>2016-04-03T07:19:53.100Z</time>
      </trkpt>
      <trkpt lat="47.20839" lon="-1.71672">
        <ele>52</ele>
        <time>2016-04-03T07:19:54.075Z</time>
      </trkpt>
      <trkpt lat="47.20837" lon="-1.7166">
        <ele>52.3</ele>
        <time>2016-04-03T07:20:00.277Z</time>
      </trkpt>
      <trkpt lat="47.20836" lon="-1.71659">
        <ele>52.3</ele>
        <time>2016-04-03T07:20:01.008Z</time>
      </trkpt>
      <trkpt lat="47.20834" lon="-1.71648">
        <ele>52.2</ele>
        <time>2016-04-03T07:20:06.081Z</time>
      </trkpt>
      <trkpt lat="47.20834" lon="-1.71646">
        <ele>52.2</ele>
        <time>2016-04-03T07:20:07.059Z</time>
      </trkpt>
      <trkpt lat="47.20834" lon="-1.71633">
        <ele>51.8</ele>
        <time>2016-04-03T07:20:13.102Z</time>
      </trkpt>
      <trkpt lat="47.20834" lon="-1.71631">
        <ele>51.8</ele>
        <time>2016-04-03T07:20:14.043Z</time>
      </trkpt>
      <trkpt lat="47.20834" lon="-1.71618">
        <ele>51.8</ele>
        <time>2016-04-03T07:20:20.103Z</time>
      </trkpt>
      <trkpt lat="47.20833" lon="-1.71617">
        <ele>51.8</ele>
        <time>2016-04-03T07:20:21.066Z</time>
      </trkpt>
      <trkpt lat="47.20833" lon="-1.71605">
        <ele>51.8</ele>
        <time>2016-04-03T07:20:26.269Z</time>
      </trkpt>
      <trkpt lat="47.20833" lon="-1.71602">
        <ele>51.8</ele>
        <time>2016-04-03T07:20:27.103Z</time>
      </trkpt>
      <trkpt lat="47.20832" lon="-1.71589">
        <ele>51.6</ele>
        <time>2016-04-03T07:20:33.579Z</time>
      </trkpt>
      <trkpt lat="47.20832" lon="-1.71587">
        <ele>51.5</ele>
        <time>2016-04-03T07:20:34.009Z</time>
      </trkpt>
      <trkpt lat="47.20832" lon="-1.71575">
        <ele>51.2</ele>
        <time>2016-04-03T07:20:40.092Z</time>
      </trkpt>
      <trkpt lat="47.20832" lon="-1.71573">
        <ele>51.1</ele>
        <time>2016-04-03T07:20:41.061Z</time>
      </trkpt>
      <trkpt lat="47.20833" lon="-1.71561">
        <ele>50.7</ele>
        <time>2016-04-03T07:20:46.054Z</time>
      </trkpt>
      <trkpt lat="47.20833" lon="-1.71559">
        <ele>50.6</ele>
        <time>2016-04-03T07:20:47.004Z</time>
      </trkpt>
      <trkpt lat="47.20834" lon="-1.71547">
        <ele>50.2</ele>
        <time>2016-04-03T07:20:52.133Z</time>
      </trkpt>
      <trkpt lat="47.20834" lon="-1.71545">
        <ele>50.1</ele>
        <time>2016-04-03T07:20:53.049Z</time>
      </trkpt>
      <trkpt lat="47.20836" lon="-1.71532">
        <ele>49.5</ele>
        <time>2016-04-03T07:21:01.017Z</time>
      </trkpt>
      <trkpt lat="47.20836" lon="-1.71531">
        <ele>49.5</ele>
        <time>2016-04-03T07:21:02.002Z</time>
      </trkpt>
      <trkpt lat="47.20836" lon="-1.71519">
        <ele>49.8</ele>
        <time>2016-04-03T07:21:07.127Z</time>
      </trkpt>
      <trkpt lat="47.20836" lon="-1.71517">
        <ele>49.7</ele>
        <time>2016-04-03T07:21:08.034Z</time>
      </trkpt>
      <trkpt lat="47.20836" lon="-1.71504">
        <ele>49.5</ele>
        <time>2016-04-03T07:21:14.156Z</time>
      </trkpt>
      <trkpt lat="47.20836" lon="-1.71501">
        <ele>49.6</ele>
        <time>2016-04-03T07:21:15.057Z</time>
      </trkpt>
      <trkpt lat="47.20837" lon="-1.71491">
        <ele>49.7</ele>
        <time>2016-04-03T07:21:21.114Z</time>
      </trkpt>
      <trkpt lat="47.20837" lon="-1.71488">
        <ele>49.7</ele>
        <time>2016-04-03T07:21:22.013Z</time>
      </trkpt>
      <trkpt lat="47.20838" lon="-1.71475">
        <ele>49.6</ele>
        <time>2016-04-03T07:21:27.266Z</time>
      </trkpt>
      <trkpt lat="47.20838" lon="-1.71472">
        <ele>49.7</ele>
        <time>2016-04-03T07:21:28.047Z</time>
      </trkpt>
      <trkpt lat="47.20838" lon="-1.7146">
        <ele>50.1</ele>
        <time>2016-04-03T07:21:34.148Z</time>
      </trkpt>
      <trkpt lat="47.20837" lon="-1.71459">
        <ele>50.2</ele>
        <time>2016-04-03T07:21:35.066Z</time>
      </trkpt>
      <trkpt lat="47.20836" lon="-1.71446">
        <ele>50.1</ele>
        <time>2016-04-03T07:21:42.103Z</time>
      </trkpt>
      <trkpt lat="47.20836" lon="-1.71445">
        <ele>50.1</ele>
        <time>2016-04-03T07:21:43.049Z</time>
      </trkpt>
      <trkpt lat="47.20836" lon="-1.71432">
        <ele>50.4</ele>
        <time>2016-04-03T07:21:48.177Z</time>
      </trkpt>
      <trkpt lat="47.20836" lon="-1.7143">
        <ele>50.5</ele>
        <time>2016-04-03T07:21:49.062Z</time>
      </trkpt>
      <trkpt lat="47.20835" lon="-1.71417">
        <ele>50.9</ele>
        <time>2016-04-03T07:21:54.495Z</time>
      </trkpt>
      <trkpt lat="47.20835" lon="-1.71415">
        <ele>51</ele>
        <time>2016-04-03T07:21:55.061Z</time>
      </trkpt>
      <trkpt lat="47.20832" lon="-1.71403">
        <ele>50.8</ele>
        <time>2016-04-03T07:22:02.048Z</time>
      </trkpt>
      <trkpt lat="47.20832" lon="-1.71401">
        <ele>50.8</ele>
        <time>2016-04-03T07:22:03.051Z</time>
      </trkpt>
      <trkpt lat="47.20831" lon="-1.7139">
        <ele>50.6</ele>
        <time>2016-04-03T07:22:08.251Z</time>
      </trkpt>
      <trkpt lat="47.20831" lon="-1.71387">
        <ele>50.6</ele>
        <time>2016-04-03T07:22:09.120Z</time>
      </trkpt>
      <trkpt lat="47.2083" lon="-1.71376">
        <ele>50.8</ele>
        <time>2016-04-03T07:22:14.106Z</time>
      </trkpt>
      <trkpt lat="47.2083" lon="-1.71374">
        <ele>50.9</ele>
        <time>2016-04-03T07:22:15.052Z</time>
      </trkpt>
      <trkpt lat="47.20832" lon="-1.71362">
        <ele>51.5</ele>
        <time>2016-04-03T07:22:21.306Z</time>
      </trkpt>
      <trkpt lat="47.20832" lon="-1.7136">
        <ele>51.5</ele>
        <time>2016-04-03T07:22:22.010Z</time>
      </trkpt>
      <trkpt lat="47.20835" lon="-1.71348">
        <ele>51.4</ele>
        <time>2016-04-03T07:22:28.375Z</time>
      </trkpt>
      <trkpt lat="47.20836" lon="-1.71346">
        <ele>51.3</ele>
        <time>2016-04-03T07:22:29.108Z</time>
      </trkpt>
      <trkpt lat="47.20841" lon="-1.71337">
        <ele>51.4</ele>
        <time>2016-04-03T07:22:35.086Z</time>
      </trkpt>
      <trkpt lat="47.20842" lon="-1.71335">
        <ele>51.4</ele>
        <time>2016-04-03T07:22:36.067Z</time>
      </trkpt>
      <trkpt lat="47.20847" lon="-1.71325">
        <ele>51.3</ele>
        <time>2016-04-03T07:22:42.142Z</time>
      </trkpt>
      <trkpt lat="47.20848" lon="-1.71323">
        <ele>51.2</ele>
        <time>2016-04-03T07:22:43.056Z</time>
      </trkpt>
      <trkpt lat="47.20853" lon="-1.71313">
        <ele>51.1</ele>
        <time>2016-04-03T07:22:50.151Z</time>
      </trkpt>
      <trkpt lat="47.20854" lon="-1.71311">
        <ele>51.1</ele>
        <time>2016-04-03T07:22:51.063Z</time>
      </trkpt>
      <trkpt lat="47.2086" lon="-1.71304">
        <ele>51.1</ele>
        <time>2016-04-03T07:22:55.109Z</time>
      </trkpt>
      <trkpt lat="47.20862" lon="-1.71303">
        <ele>51.2</ele>
        <time>2016-04-03T07:22:56.046Z</time>
      </trkpt>
      <trkpt lat="47.20869" lon="-1.71296">
        <ele>50.8</ele>
        <time>2016-04-03T07:23:04.206Z</time>
      </trkpt>
      <trkpt lat="47.2087" lon="-1.71295">
        <ele>50.7</ele>
        <time>2016-04-03T07:23:05.049Z</time>
      </trkpt>
      <trkpt lat="47.20876" lon="-1.71289">
        <ele>50.7</ele>
        <time>2016-04-03T07:23:09.082Z</time>
      </trkpt>
      <trkpt lat="47.20877" lon="-1.71288">
        <ele>50.7</ele>
        <time>2016-04-03T07:23:10.072Z</time>
      </trkpt>
      <trkpt lat="47.20885" lon="-1.71282">
        <ele>50.8</ele>
        <time>2016-04-03T07:23:15.149Z</time>
      </trkpt>
      <trkpt lat="47.20886" lon="-1.71281">
        <ele>50.9</ele>
        <time>2016-04-03T07:23:16.026Z</time>
      </trkpt>
      <trkpt lat="47.20894" lon="-1.71274">
        <ele>50.6</ele>
        <time>2016-04-03T07:23:22.127Z</time>
      </trkpt>
      <trkpt lat="47.20894" lon="-1.71273">
        <ele>50.5</ele>
        <time>2016-04-03T07:23:23.051Z</time>
      </trkpt>
      <trkpt lat="47.20902" lon="-1.71269">
        <ele>50.2</ele>
        <time>2016-04-03T07:23:28.166Z</time>
      </trkpt>
      <trkpt lat="47.20904" lon="-1.71268">
        <ele>50.1</ele>
        <time>2016-04-03T07:23:29.218Z</time>
      </trkpt>
      <trkpt lat="47.20912" lon="-1.71265">
        <ele>50.3</ele>
        <time>2016-04-03T07:23:35.140Z</time>
      </trkpt>
      <trkpt lat="47.20914" lon="-1.71264">
        <ele>50.4</ele>
        <time>2016-04-03T07:23:36.138Z</time>
      </trkpt>
      <trkpt lat="47.20921" lon="-1.71259">
        <ele>51.1</ele>
        <time>2016-04-03T07:23:41.115Z</time>
      </trkpt>
      <trkpt lat="47.20922" lon="-1.71258">
        <ele>51.2</ele>
        <time>2016-04-03T07:23:42.060Z</time>
      </trkpt>
      <trkpt lat="47.2093" lon="-1.71253">
        <ele>51.7</ele>
        <time>2016-04-03T07:23:48.115Z</time>
      </trkpt>
      <trkpt lat="47.20931" lon="-1.71252">
        <ele>51.7</ele>
        <time>2016-04-03T07:23:49.051Z</time>
      </trkpt>
      <trkpt lat="47.20939" lon="-1.71247">
        <ele>51.9</ele>
        <time>2016-04-03T07:23:54.159Z</time>
      </trkpt>
      <trkpt lat="47.20941" lon="-1.71246">
        <ele>52</ele>
        <time>2016-04-03T07:23:55.053Z</time>
      </trkpt>
      <trkpt lat="47.20948" lon="-1.7124">
        <ele>52</ele>
        <time>2016-04-03T07:24:00.212Z</time>
      </trkpt>
      <trkpt lat="47.20949" lon="-1.7124">
        <ele>52</ele>
        <time>2016-04-03T07:24:01.362Z</time>
      </trkpt>
      <trkpt lat="47.20956" lon="-1.71235">
        <ele>52</ele>
        <time>2016-04-03T07:24:07.161Z</time>
      </trkpt>
      <trkpt lat="47.20957" lon="-1.71235">
        <ele>52.1</ele>
        <time>2016-04-03T07:24:08.162Z</time>
      </trkpt>
      <trkpt lat="47.20964" lon="-1.71229">
        <ele>52</ele>
        <time>2016-04-03T07:24:13.171Z</time>
      </trkpt>
      <trkpt lat="47.20965" lon="-1.71228">
        <ele>52</ele>
        <time>2016-04-03T07:24:14.051Z</time>
      </trkpt>
      <trkpt lat="47.20972" lon="-1.71222">
        <ele>52.2</ele>
        <time>2016-04-03T07:24:19.151Z</time>
      </trkpt>
      <trkpt lat="47.20973" lon="-1.7122">
        <ele>52.2</ele>
        <time>2016-04-03T07:24:20.065Z</time>
      </trkpt>
      <trkpt lat="47.20978" lon="-1.7121">
        <ele>52.5</ele>
        <time>2016-04-03T07:24:25.133Z</time>
      </trkpt>
      <trkpt lat="47.20979" lon="-1.71208">
        <ele>52.5</ele>
        <time>2016-04-03T07:24:26.062Z</time>
      </trkpt>
      <trkpt lat="47.20983" lon="-1.71196">
        <ele>52.6</ele>
        <time>2016-04-03T07:24:33.169Z</time>
      </trkpt>
      <trkpt lat="47.20983" lon="-1.71196">
        <ele>52.6</ele>
        <time>2016-04-03T07:24:34.052Z</time>
      </trkpt>
      <trkpt lat="47.20989" lon="-1.7119">
        <ele>52.8</ele>
        <time>2016-04-03T07:24:39.171Z</time>
      </trkpt>
      <trkpt lat="47.20991" lon="-1.71188">
        <ele>52.8</ele>
        <time>2016-04-03T07:24:40.053Z</time>
      </trkpt>
      <trkpt lat="47.20997" lon="-1.71181">
        <ele>52.4</ele>
        <time>2016-04-03T07:24:44.184Z</time>
      </trkpt>
      <trkpt lat="47.20998" lon="-1.71179">
        <ele>52.3</ele>
        <time>2016-04-03T07:24:45.042Z</time>
      </trkpt>
      <trkpt lat="47.21002" lon="-1.7117">
        <ele>51.7</ele>
        <time>2016-04-03T07:24:50.113Z</time>
      </trkpt>
      <trkpt lat="47.21003" lon="-1.71168">
        <ele>51.6</ele>
        <time>2016-04-03T07:24:51.050Z</time>
      </trkpt>
      <trkpt lat="47.21007" lon="-1.71157">
        <ele>51.2</ele>
        <time>2016-04-03T07:24:57.127Z</time>
      </trkpt>
      <trkpt lat="47.21008" lon="-1.71155">
        <ele>51.3</ele>
        <time>2016-04-03T07:24:58.051Z</time>
      </trkpt>
      <trkpt lat="47.21012" lon="-1.71144">
        <ele>50.9</ele>
        <time>2016-04-03T07:25:05.256Z</time>
      </trkpt>
      <trkpt lat="47.21012" lon="-1.71143">
        <ele>50.9</ele>
        <time>2016-04-03T07:25:06.018Z</time>
      </trkpt>
      <trkpt lat="47.21021" lon="-1.7114">
        <ele>50.7</ele>
        <time>2016-04-03T07:25:11.173Z</time>
      </trkpt>
      <trkpt lat="47.21023" lon="-1.7114">
        <ele>50.6</ele>
        <time>2016-04-03T07:25:12.058Z</time>
      </trkpt>
      <trkpt lat="47.21029" lon="-1.71134">
        <ele>50.4</ele>
        <time>2016-04-03T07:25:18.150Z</time>
      </trkpt>
      <trkpt lat="47.2103" lon="-1.71131">
        <ele>50.4</ele>
        <time>2016-04-03T07:25:19.057Z</time>
      </trkpt>
      <trkpt lat="47.21035" lon="-1.71121">
        <ele>51</ele>
        <time>2016-04-03T07:25:27.182Z</time>
      </trkpt>
      <trkpt lat="47.21037" lon="-1.7112">
        <ele>51.1</ele>
        <time>2016-04-03T07:25:28.061Z</time>
      </trkpt>
      <trkpt lat="47.21045" lon="-1.71116">
        <ele>52</ele>
        <time>2016-04-03T07:25:35.183Z</time>
      </trkpt>
      <trkpt lat="47.21046" lon="-1.71114">
        <ele>52.1</ele>
        <time>2016-04-03T07:25:36.047Z</time>
      </trkpt>
      <trkpt lat="47.21051" lon="-1.71105">
        <ele>52.2</ele>
        <time>2016-04-03T07:25:43.208Z</time>
      </trkpt>
      <trkpt lat="47.21051" lon="-1.71103">
        <ele>52.2</ele>
        <time>2016-04-03T07:25:44.002Z</time>
      </trkpt>
      <trkpt lat="47.21051" lon="-1.7109">
        <ele>52.9</ele>
        <time>2016-04-03T07:25:51.098Z</time>
      </trkpt>
      <trkpt lat="47.21051" lon="-1.71089">
        <ele>52.9</ele>
        <time>2016-04-03T07:25:52.010Z</time>
      </trkpt>
      <trkpt lat="47.21052" lon="-1.71076">
        <ele>53.6</ele>
        <time>2016-04-03T07:25:59.138Z</time>
      </trkpt>
      <trkpt lat="47.21052" lon="-1.71073">
        <ele>53.7</ele>
        <time>2016-04-03T07:26:00.178Z</time>
      </trkpt>
      <trkpt lat="47.21053" lon="-1.7106">
        <ele>53.6</ele>
        <time>2016-04-03T07:26:06.083Z</time>
      </trkpt>
      <trkpt lat="47.21053" lon="-1.71059">
        <ele>53.6</ele>
        <time>2016-04-03T07:26:07.057Z</time>
      </trkpt>
      <trkpt lat="47.21053" lon="-1.71046">
        <ele>53.3</ele>
        <time>2016-04-03T07:26:13.136Z</time>
      </trkpt>
      <trkpt lat="47.21054" lon="-1.71044">
        <ele>53.2</ele>
        <time>2016-04-03T07:26:14.065Z</time>
      </trkpt>
      <trkpt lat="47.21056" lon="-1.71034">
        <ele>53.1</ele>
        <time>2016-04-03T07:26:19.109Z</time>
      </trkpt>
      <trkpt lat="47.21057" lon="-1.71031">
        <ele>53</ele>
        <time>2016-04-03T07:26:20.107Z</time>
      </trkpt>
      <trkpt lat="47.21059" lon="-1.7102">
        <ele>52.7</ele>
        <time>2016-04-03T07:26:25.274Z</time>
      </trkpt>
      <trkpt lat="47.2106" lon="-1.71018">
        <ele>52.6</ele>
        <time>2016-04-03T07:26:26.048Z</time>
      </trkpt>
      <trkpt lat="47.21063" lon="-1.71006">
        <ele>52.4</ele>
        <time>2016-04-03T07:26:32.398Z</time>
      </trkpt>
      <trkpt lat="47.21063" lon="-1.71004">
        <ele>52.3</ele>
        <time>2016-04-03T07:26:33.045Z</time>
      </trkpt>
      <trkpt lat="47.21066" lon="-1.70994">
        <ele>52.1</ele>
        <time>2016-04-03T07:26:38.145Z</time>
      </trkpt>
      <trkpt lat="47.21067" lon="-1.70991">
        <ele>52</ele>
        <time>2016-04-03T07:26:39.050Z</time>
      </trkpt>
      <trkpt lat="47.2107" lon="-1.70979">
        <ele>51.4</ele>
        <time>2016-04-03T07:26:45.074Z</time>
      </trkpt>
      <trkpt lat="47.21071" lon="-1.70977">
        <ele>51.3</ele>
        <time>2016-04-03T07:26:46.052Z</time>
      </trkpt>
      <trkpt lat="47.21073" lon="-1.70966">
        <ele>50.9</ele>
        <time>2016-04-03T07:26:51.136Z</time>
      </trkpt>
      <trkpt lat="47.21073" lon="-1.70964">
        <ele>50.8</ele>
        <time>2016-04-03T07:26:52.079Z</time>
      </trkpt>
      <trkpt lat="47.21076" lon="-1.70953">
        <ele>50.4</ele>
        <time>2016-04-03T07:26:57.150Z</time>
      </trkpt>
      <trkpt lat="47.21076" lon="-1.70951">
        <ele>50.3</ele>
        <time>2016-04-03T07:26:58.049Z</time>
      </trkpt>
      <trkpt lat="47.21079" lon="-1.70938">
        <ele>49.6</ele>
        <time>2016-04-03T07:27:04.150Z</time>
      </trkpt>
      <trkpt lat="47.21079" lon="-1.70936">
        <ele>49.5</ele>
        <time>2016-04-03T07:27:05.070Z</time>
      </trkpt>
      <trkpt lat="47.21082" lon="-1.70924">
        <ele>49</ele>
        <time>2016-04-03T07:27:11.155Z</time>
      </trkpt>
      <trkpt lat="47.21082" lon="-1.70922">
        <ele>48.8</ele>
        <time>2016-04-03T07:27:12.043Z</time>
      </trkpt>
      <trkpt lat="47.21084" lon="-1.70909">
        <ele>48.6</ele>
        <time>2016-04-03T07:27:19.099Z</time>
      </trkpt>
      <trkpt lat="47.21085" lon="-1.70907">
        <ele>48.6</ele>
        <time>2016-04-03T07:27:20.051Z</time>
      </trkpt>
      <trkpt lat="47.21088" lon="-1.70896">
        <ele>48.8</ele>
        <time>2016-04-03T07:27:26.113Z</time>
      </trkpt>
      <trkpt lat="47.21088" lon="-1.70894">
        <ele>48.7</ele>
        <time>2016-04-03T07:27:26.996Z</time>
      </trkpt>
      <trkpt lat="47.21092" lon="-1.70883">
        <ele>48.2</ele>
        <time>2016-04-03T07:27:33.342Z</time>
      </trkpt>
      <trkpt lat="47.21092" lon="-1.70881">
        <ele>48.2</ele>
        <time>2016-04-03T07:27:34.049Z</time>
      </trkpt>
      <trkpt lat="47.21096" lon="-1.70871">
        <ele>47.8</ele>
        <time>2016-04-03T07:27:39.096Z</time>
      </trkpt>
      <trkpt lat="47.21096" lon="-1.70869">
        <ele>47.8</ele>
        <time>2016-04-03T07:27:40.047Z</time>
      </trkpt>
      <trkpt lat="47.21099" lon="-1.70858">
        <ele>47.6</ele>
        <time>2016-04-03T07:27:45.118Z</time>
      </trkpt>
      <trkpt lat="47.211" lon="-1.70856">
        <ele>47.6</ele>
        <time>2016-04-03T07:27:46.058Z</time>
      </trkpt>
      <trkpt lat="47.21104" lon="-1.70847">
        <ele>47.6</ele>
        <time>2016-04-03T07:27:51.116Z</time>
      </trkpt>
      <trkpt lat="47.21105" lon="-1.70845">
        <ele>47.6</ele>
        <time>2016-04-03T07:27:52.066Z</time>
      </trkpt>
      <trkpt lat="47.2111" lon="-1.70835">
        <ele>47.6</ele>
        <time>2016-04-03T07:27:58.127Z</time>
      </trkpt>
      <trkpt lat="47.21111" lon="-1.70833">
        <ele>47.5</ele>
        <time>2016-04-03T07:27:59.055Z</time>
      </trkpt>
      <trkpt lat="47.21116" lon="-1.70824">
        <ele>47.7</ele>
        <time>2016-04-03T07:28:06.161Z</time>
      </trkpt>
      <trkpt lat="47.21117" lon="-1.70822">
        <ele>47.7</ele>
        <time>2016-04-03T07:28:07.011Z</time>
      </trkpt>
      <trkpt lat="47.21122" lon="-1.70812">
        <ele>47.6</ele>
        <time>2016-04-03T07:28:12.108Z</time>
      </trkpt>
      <trkpt lat="47.21123" lon="-1.7081">
        <ele>47.6</ele>
        <time>2016-04-03T07:28:13.021Z</time>
      </trkpt>
      <trkpt lat="47.21127" lon="-1.708">
        <ele>47.3</ele>
        <time>2016-04-03T07:28:18.157Z</time>
      </trkpt>
      <trkpt lat="47.21127" lon="-1.70797">
        <ele>47.2</ele>
        <time>2016-04-03T07:28:19.031Z</time>
      </trkpt>
      <trkpt lat="47.21131" lon="-1.70786">
        <ele>47.3</ele>
        <time>2016-04-03T07:28:25.319Z</time>
      </trkpt>
      <trkpt lat="47.21131" lon="-1.70784">
        <ele>47.4</ele>
        <time>2016-04-03T07:28:26.055Z</time>
      </trkpt>
      <trkpt lat="47.21134" lon="-1.70773">
        <ele>48.4</ele>
        <time>2016-04-03T07:28:33.141Z</time>
      </trkpt>
      <trkpt lat="47.21135" lon="-1.70771">
        <ele>48.5</ele>
        <time>2016-04-03T07:28:34.093Z</time>
      </trkpt>
      <trkpt lat="47.21137" lon="-1.7076">
        <ele>48.7</ele>
        <time>2016-04-03T07:28:38.135Z</time>
      </trkpt>
      <trkpt lat="47.21138" lon="-1.70757">
        <ele>48.7</ele>
        <time>2016-04-03T07:28:39.061Z</time>
      </trkpt>
      <trkpt lat="47.2114" lon="-1.70746">
        <ele>48.7</ele>
        <time>2016-04-03T07:28:45.141Z</time>
      </trkpt>
      <trkpt lat="47.21141" lon="-1.70744">
        <ele>48.7</ele>
        <time>2016-04-03T07:28:46.060Z</time>
      </trkpt>
      <trkpt lat="47.21144" lon="-1.70734">
        <ele>48.7</ele>
        <time>2016-04-03T07:28:51.180Z</time>
      </trkpt>
      <trkpt lat="47.21145" lon="-1.70731">
        <ele>48.7</ele>
        <time>2016-04-03T07:28:52.022Z</time>
      </trkpt>
      <trkpt lat="47.21148" lon="-1.70721">
        <ele>48.4</ele>
        <time>2016-04-03T07:28:57.165Z</time>
      </trkpt>
      <trkpt lat="47.21149" lon="-1.70719">
        <ele>48.3</ele>
        <time>2016-04-03T07:28:58.067Z</time>
      </trkpt>
      <trkpt lat="47.21153" lon="-1.70708">
        <ele>47.7</ele>
        <time>2016-04-03T07:29:04.078Z</time>
      </trkpt>
      <trkpt lat="47.21153" lon="-1.70706">
        <ele>47.7</ele>
        <time>2016-04-03T07:29:05.095Z</time>
      </trkpt>
      <trkpt lat="47.21157" lon="-1.70694">
        <ele>47.7</ele>
        <time>2016-04-03T07:29:12.145Z</time>
      </trkpt>
      <trkpt lat="47.21157" lon="-1.70692">
        <ele>47.8</ele>
        <time>2016-04-03T07:29:13.030Z</time>
      </trkpt>
      <trkpt lat="47.2116" lon="-1.70681">
        <ele>48.2</ele>
        <time>2016-04-03T07:29:19.143Z</time>
      </trkpt>
      <trkpt lat="47.21161" lon="-1.70679">
        <ele>48.3</ele>
        <time>2016-04-03T07:29:20.043Z</time>
      </trkpt>
      <trkpt lat="47.21165" lon="-1.70668">
        <ele>48.5</ele>
        <time>2016-04-03T07:29:26.133Z</time>
      </trkpt>
      <trkpt lat="47.21166" lon="-1.70666">
        <ele>48.5</ele>
        <time>2016-04-03T07:29:27.088Z</time>
      </trkpt>
      <trkpt lat="47.2117" lon="-1.70656">
        <ele>49.1</ele>
        <time>2016-04-03T07:29:32.113Z</time>
      </trkpt>
      <trkpt lat="47.2117" lon="-1.70654">
        <ele>49.3</ele>
        <time>2016-04-03T07:29:33.049Z</time>
      </trkpt>
      <trkpt lat="47.21174" lon="-1.70642">
        <ele>50</ele>
        <time>2016-04-03T07:29:38.173Z</time>
      </trkpt>
      <trkpt lat="47.21174" lon="-1.7064">
        <ele>50.2</ele>
        <time>2016-04-03T07:29:39.041Z</time>
      </trkpt>
      <trkpt lat="47.21178" lon="-1.70629">
        <ele>51</ele>
        <time>2016-04-03T07:29:45.111Z</time>
      </trkpt>
      <trkpt lat="47.21179" lon="-1.70628">
        <ele>51.1</ele>
        <time>2016-04-03T07:29:46.068Z</time>
      </trkpt>
      <trkpt lat="47.21182" lon="-1.70618">
        <ele>51.2</ele>
        <time>2016-04-03T07:29:52.147Z</time>
      </trkpt>
      <trkpt lat="47.21183" lon="-1.70616">
        <ele>51.1</ele>
        <time>2016-04-03T07:29:53.071Z</time>
      </trkpt>
      <trkpt lat="47.21187" lon="-1.70606">
        <ele>50.4</ele>
        <time>2016-04-03T07:29:58.207Z</time>
      </trkpt>
      <trkpt lat="47.21188" lon="-1.70604">
        <ele>50.3</ele>
        <time>2016-04-03T07:29:59.082Z</time>
      </trkpt>
      <trkpt lat="47.21192" lon="-1.70594">
        <ele>50.2</ele>
        <time>2016-04-03T07:30:04.190Z</time>
      </trkpt>
      <trkpt lat="47.21193" lon="-1.70592">
        <ele>50.2</ele>
        <time>2016-04-03T07:30:05.059Z</time>
      </trkpt>
      <trkpt lat="47.21197" lon="-1.70581">
        <ele>50.7</ele>
        <time>2016-04-03T07:30:12.151Z</time>
      </trkpt>
      <trkpt lat="47.21198" lon="-1.70579">
        <ele>50.7</ele>
        <time>2016-04-03T07:30:13.065Z</time>
      </trkpt>
      <trkpt lat="47.21203" lon="-1.70569">
        <ele>51</ele>
        <time>2016-04-03T07:30:18.123Z</time>
      </trkpt>
      <trkpt lat="47.21203" lon="-1.70567">
        <ele>51</ele>
        <time>2016-04-03T07:30:19.061Z</time>
      </trkpt>
      <trkpt lat="47.21207" lon="-1.70557">
        <ele>51.2</ele>
        <time>2016-04-03T07:30:25.140Z</time>
      </trkpt>
      <trkpt lat="47.21208" lon="-1.70556">
        <ele>51.1</ele>
        <time>2016-04-03T07:30:26.152Z</time>
      </trkpt>
      <trkpt lat="47.21213" lon="-1.70545">
        <ele>51</ele>
        <time>2016-04-03T07:30:32.059Z</time>
      </trkpt>
      <trkpt lat="47.21214" lon="-1.70544">
        <ele>51.1</ele>
        <time>2016-04-03T07:30:33.066Z</time>
      </trkpt>
      <trkpt lat="47.21218" lon="-1.70532">
        <ele>51.6</ele>
        <time>2016-04-03T07:30:39.147Z</time>
      </trkpt>
      <trkpt lat="47.21218" lon="-1.7053">
        <ele>51.8</ele>
        <time>2016-04-03T07:30:40.116Z</time>
      </trkpt>
      <trkpt lat="47.21224" lon="-1.70519">
        <ele>52.3</ele>
        <time>2016-04-03T07:30:47.091Z</time>
      </trkpt>
      <trkpt lat="47.21224" lon="-1.70519">
        <ele>52.4</ele>
        <time>2016-04-03T07:30:48.101Z</time>
      </trkpt>
      <trkpt lat="47.21227" lon="-1.70508">
        <ele>52.7</ele>
        <time>2016-04-03T07:30:53.143Z</time>
      </trkpt>
      <trkpt lat="47.21228" lon="-1.70505">
        <ele>52.9</ele>
        <time>2016-04-03T07:30:54.064Z</time>
      </trkpt>
      <trkpt lat="47.2123" lon="-1.70494">
        <ele>54</ele>
        <time>2016-04-03T07:31:01.047Z</time>
      </trkpt>
      <trkpt lat="47.21231" lon="-1.70493">
        <ele>54.2</ele>
        <time>2016-04-03T07:31:02.022Z</time>
      </trkpt>
      <trkpt lat="47.21236" lon="-1.70484">
        <ele>54.9</ele>
        <time>2016-04-03T07:31:07.126Z</time>
      </trkpt>
      <trkpt lat="47.21237" lon="-1.70482">
        <ele>55</ele>
        <time>2016-04-03T07:31:08.063Z</time>
      </trkpt>
      <trkpt lat="47.21241" lon="-1.70473">
        <ele>55.5</ele>
        <time>2016-04-03T07:31:13.131Z</time>
      </trkpt>
      <trkpt lat="47.21242" lon="-1.70471">
        <ele>55.6</ele>
        <time>2016-04-03T07:31:14.065Z</time>
      </trkpt>
      <trkpt lat="47.21246" lon="-1.70462">
        <ele>56</ele>
        <time>2016-04-03T07:31:19.155Z</time>
      </trkpt>
      <trkpt lat="47.21247" lon="-1.70459">
        <ele>56</ele>
        <time>2016-04-03T07:31:20.053Z</time>
      </trkpt>
      <trkpt lat="47.21253" lon="-1.70449">
        <ele>55.8</ele>
        <time>2016-04-03T07:31:25.131Z</time>
      </trkpt>
      <trkpt lat="47.21254" lon="-1.70447">
        <ele>55.7</ele>
        <time>2016-04-03T07:31:26.215Z</time>
      </trkpt>
      <trkpt lat="47.21259" lon="-1.70438">
        <ele>55.3</ele>
        <time>2016-04-03T07:31:31.128Z</time>
      </trkpt>
      <trkpt lat="47.2126" lon="-1.70436">
        <ele>55.3</ele>
        <time>2016-04-03T07:31:32.051Z</time>
      </trkpt>
      <trkpt lat="47.21264" lon="-1.70425">
        <ele>54.6</ele>
        <time>2016-04-03T07:31:38.046Z</time>
      </trkpt>
      <trkpt lat="47.21264" lon="-1.70424">
        <ele>54.5</ele>
        <time>2016-04-03T07:31:39.057Z</time>
      </trkpt>
      <trkpt lat="47.21268" lon="-1.70414">
        <ele>54.2</ele>
        <time>2016-04-03T07:31:44.147Z</time>
      </trkpt>
      <trkpt lat="47.21269" lon="-1.70413">
        <ele>54.1</ele>
        <time>2016-04-03T07:31:45.068Z</time>
      </trkpt>
      <trkpt lat="47.21275" lon="-1.70403">
        <ele>54</ele>
        <time>2016-04-03T07:31:52.145Z</time>
      </trkpt>
      <trkpt lat="47.21275" lon="-1.704">
        <ele>54</ele>
        <time>2016-04-03T07:31:53.135Z</time>
      </trkpt>
      <trkpt lat="47.21279" lon="-1.70391">
        <ele>54.3</ele>
        <time>2016-04-03T07:31:58.231Z</time>
      </trkpt>
      <trkpt lat="47.2128" lon="-1.70388">
        <ele>54.4</ele>
        <time>2016-04-03T07:31:59.177Z</time>
      </trkpt>
      <trkpt lat="47.21284" lon="-1.70378">
        <ele>55.2</ele>
        <time>2016-04-03T07:32:05.127Z</time>
      </trkpt>
      <trkpt lat="47.21285" lon="-1.70376">
        <ele>55.2</ele>
        <time>2016-04-03T07:32:06.053Z</time>
      </trkpt>
      <trkpt lat="47.21287" lon="-1.70365">
        <ele>55.5</ele>
        <time>2016-04-03T07:32:10.158Z</time>
      </trkpt>
      <trkpt lat="47.21287" lon="-1.70362">
        <ele>55.5</ele>
        <time>2016-04-03T07:32:11.052Z</time>
      </trkpt>
      <trkpt lat="47.21288" lon="-1.7035">
        <ele>55.6</ele>
        <time>2016-04-03T07:32:17.087Z</time>
      </trkpt>
      <trkpt lat="47.21289" lon="-1.70348">
        <ele>55.7</ele>
        <time>2016-04-03T07:32:18.063Z</time>
      </trkpt>
      <trkpt lat="47.21289" lon="-1.70336">
        <ele>55.4</ele>
        <time>2016-04-03T07:32:26.126Z</time>
      </trkpt>
      <trkpt lat="47.21289" lon="-1.70334">
        <ele>55.3</ele>
        <time>2016-04-03T07:32:27.073Z</time>
      </trkpt>
      <trkpt lat="47.2129" lon="-1.70323">
        <ele>55</ele>
        <time>2016-04-03T07:32:33.128Z</time>
      </trkpt>
      <trkpt lat="47.2129" lon="-1.7032">
        <ele>55</ele>
        <time>2016-04-03T07:32:34.067Z</time>
      </trkpt>
      <trkpt lat="47.21291" lon="-1.70307">
        <ele>54.8</ele>
        <time>2016-04-03T07:32:39.052Z</time>
      </trkpt>
      <trkpt lat="47.21291" lon="-1.70305">
        <ele>54.7</ele>
        <time>2016-04-03T07:32:40.054Z</time>
      </trkpt>
      <trkpt lat="47.21298" lon="-1.70297">
        <ele>54.9</ele>
        <time>2016-04-03T07:32:48.168Z</time>
      </trkpt>
      <trkpt lat="47.21299" lon="-1.70298">
        <ele>54.9</ele>
        <time>2016-04-03T07:32:49.065Z</time>
      </trkpt>
      <trkpt lat="47.21303" lon="-1.70309">
        <ele>55.4</ele>
        <time>2016-04-03T07:32:56.138Z</time>
      </trkpt>
      <trkpt lat="47.21303" lon="-1.70311">
        <ele>55.5</ele>
        <time>2016-04-03T07:32:57.064Z</time>
      </trkpt>
      <trkpt lat="47.21307" lon="-1.70321">
        <ele>55.9</ele>
        <time>2016-04-03T07:33:03.076Z</time>
      </trkpt>
      <trkpt lat="47.21308" lon="-1.70323">
        <ele>56</ele>
        <time>2016-04-03T07:33:04.056Z</time>
      </trkpt>
      <trkpt lat="47.21314" lon="-1.70331">
        <ele>56.3</ele>
        <time>2016-04-03T07:33:10.530Z</time>
      </trkpt>
      <trkpt lat="47.21315" lon="-1.70333">
        <ele>56.4</ele>
        <time>2016-04-03T07:33:11.065Z</time>
      </trkpt>
      <trkpt lat="47.2132" lon="-1.70343">
        <ele>56.9</ele>
        <time>2016-04-03T07:33:17.148Z</time>
      </trkpt>
      <trkpt lat="47.21321" lon="-1.70345">
        <ele>57</ele>
        <time>2016-04-03T07:33:18.068Z</time>
      </trkpt>
      <trkpt lat="47.21324" lon="-1.70354">
        <ele>57.4</ele>
        <time>2016-04-03T07:33:22.126Z</time>
      </trkpt>
      <trkpt lat="47.21325" lon="-1.70356">
        <ele>57.5</ele>
        <time>2016-04-03T07:33:23.064Z</time>
      </trkpt>
      <trkpt lat="47.21329" lon="-1.70366">
        <ele>57.8</ele>
        <time>2016-04-03T07:33:28.162Z</time>
      </trkpt>
      <trkpt lat="47.2133" lon="-1.70368">
        <ele>57.9</ele>
        <time>2016-04-03T07:33:29.059Z</time>
      </trkpt>
      <trkpt lat="47.21334" lon="-1.70376">
        <ele>58.2</ele>
        <time>2016-04-03T07:33:34.141Z</time>
      </trkpt>
      <trkpt lat="47.21336" lon="-1.70378">
        <ele>58.2</ele>
        <time>2016-04-03T07:33:35.039Z</time>
      </trkpt>
      <trkpt lat="47.21341" lon="-1.70389">
        <ele>58.2</ele>
        <time>2016-04-03T07:33:42.215Z</time>
      </trkpt>
      <trkpt lat="47.21342" lon="-1.7039">
        <ele>58.2</ele>
        <time>2016-04-03T07:33:43.079Z</time>
      </trkpt>
      <trkpt lat="47.21347" lon="-1.70401">
        <ele>58.4</ele>
        <time>2016-04-03T07:33:50.113Z</time>
      </trkpt>
      <trkpt lat="47.21348" lon="-1.70403">
        <ele>58.4</ele>
        <time>2016-04-03T07:33:51.062Z</time>
      </trkpt>
      <trkpt lat="47.21352" lon="-1.70412">
        <ele>58</ele>
        <time>2016-04-03T07:33:56.480Z</time>
      </trkpt>
      <trkpt lat="47.21353" lon="-1.70414">
        <ele>57.9</ele>
        <time>2016-04-03T07:33:57.060Z</time>
      </trkpt>
      <trkpt lat="47.21357" lon="-1.70423">
        <ele>58.2</ele>
        <time>2016-04-03T07:34:04.145Z</time>
      </trkpt>
      <trkpt lat="47.21358" lon="-1.70425">
        <ele>58.3</ele>
        <time>2016-04-03T07:34:05.063Z</time>
      </trkpt>
      <trkpt lat="47.21363" lon="-1.70434">
        <ele>58.3</ele>
        <time>2016-04-03T07:34:11.128Z</time>
      </trkpt>
      <trkpt lat="47.21364" lon="-1.70436">
        <ele>58.3</ele>
        <time>2016-04-03T07:34:12.080Z</time>
      </trkpt>
      <trkpt lat="47.21368" lon="-1.70446">
        <ele>58.9</ele>
        <time>2016-04-03T07:34:19.183Z</time>
      </trkpt>
      <trkpt lat="47.21368" lon="-1.70448">
        <ele>59</ele>
        <time>2016-04-03T07:34:20.064Z</time>
      </trkpt>
      <trkpt lat="47.21369" lon="-1.7046">
        <ele>59.5</ele>
        <time>2016-04-03T07:34:26.133Z</time>
      </trkpt>
      <trkpt lat="47.21368" lon="-1.70462">
        <ele>59.5</ele>
        <time>2016-04-03T07:34:27.082Z</time>
      </trkpt>
      <trkpt lat="47.21367" lon="-1.70474">
        <ele>59.7</ele>
        <time>2016-04-03T07:34:33.151Z</time>
      </trkpt>
      <trkpt lat="47.21366" lon="-1.70476">
        <ele>59.6</ele>
        <time>2016-04-03T07:34:34.064Z</time>
      </trkpt>
      <trkpt lat="47.21365" lon="-1.70489">
        <ele>59.8</ele>
        <time>2016-04-03T07:34:40.187Z</time>
      </trkpt>
      <trkpt lat="47.21365" lon="-1.70491">
        <ele>59.8</ele>
        <time>2016-04-03T07:34:41.066Z</time>
      </trkpt>
      <trkpt lat="47.21364" lon="-1.70503">
        <ele>60.2</ele>
        <time>2016-04-03T07:34:47.076Z</time>
      </trkpt>
      <trkpt lat="47.21364" lon="-1.70505">
        <ele>60.3</ele>
        <time>2016-04-03T07:34:48.185Z</time>
      </trkpt>
      <trkpt lat="47.21364" lon="-1.70515">
        <ele>60.6</ele>
        <time>2016-04-03T07:34:52.309Z</time>
      </trkpt>
      <trkpt lat="47.21364" lon="-1.70519">
        <ele>60.6</ele>
        <time>2016-04-03T07:34:53.063Z</time>
      </trkpt>
      <trkpt lat="47.21364" lon="-1.7053">
        <ele>61.2</ele>
        <time>2016-04-03T07:34:59.261Z</time>
      </trkpt>
      <trkpt lat="47.21364" lon="-1.70532">
        <ele>61.3</ele>
        <time>2016-04-03T07:35:00.106Z</time>
      </trkpt>
      <trkpt lat="47.21363" lon="-1.70543">
        <ele>61.6</ele>
        <time>2016-04-03T07:35:05.219Z</time>
      </trkpt>
      <trkpt lat="47.21363" lon="-1.70545">
        <ele>61.7</ele>
        <time>2016-04-03T07:35:06.025Z</time>
      </trkpt>
      <trkpt lat="47.21362" lon="-1.70557">
        <ele>61.9</ele>
        <time>2016-04-03T07:35:12.143Z</time>
      </trkpt>
      <trkpt lat="47.21362" lon="-1.70559">
        <ele>61.9</ele>
        <time>2016-04-03T07:35:13.068Z</time>
      </trkpt>
      <trkpt lat="47.21359" lon="-1.7057">
        <ele>62</ele>
        <time>2016-04-03T07:35:19.155Z</time>
      </trkpt>
      <trkpt lat="47.21358" lon="-1.70573">
        <ele>62</ele>
        <time>2016-04-03T07:35:20.067Z</time>
      </trkpt>
      <trkpt lat="47.2135" lon="-1.70569">
        <ele>62.4</ele>
        <time>2016-04-03T07:35:29.198Z</time>
      </trkpt>
      <trkpt lat="47.21349" lon="-1.70568">
        <ele>62.5</ele>
        <time>2016-04-03T07:35:30.070Z</time>
      </trkpt>
      <trkpt lat="47.21343" lon="-1.70558">
        <ele>62.2</ele>
        <time>2016-04-03T07:35:36.147Z</time>
      </trkpt>
      <trkpt lat="47.21342" lon="-1.70555">
        <ele>62</ele>
        <time>2016-04-03T07:35:37.059Z</time>
      </trkpt>
      <trkpt lat="47.21339" lon="-1.70544">
        <ele>61.2</ele>
        <time>2016-04-03T07:35:43.127Z</time>
      </trkpt>
      <trkpt lat="47.21338" lon="-1.70542">
        <ele>61.1</ele>
        <time>2016-04-03T07:35:44.088Z</time>
      </trkpt>
      <trkpt lat="47.21336" lon="-1.7053">
        <ele>60.3</ele>
        <time>2016-04-03T07:35:51.155Z</time>
      </trkpt>
      <trkpt lat="47.21336" lon="-1.70528">
        <ele>60.2</ele>
        <time>2016-04-03T07:35:52.062Z</time>
      </trkpt>
      <trkpt lat="47.21337" lon="-1.70517">
        <ele>59.6</ele>
        <time>2016-04-03T07:35:58.163Z</time>
      </trkpt>
      <trkpt lat="47.21338" lon="-1.70515">
        <ele>59.6</ele>
        <time>2016-04-03T07:35:59.093Z</time>
      </trkpt>
      <trkpt lat="47.21338" lon="-1.70502">
        <ele>59.4</ele>
        <time>2016-04-03T07:36:05.192Z</time>
      </trkpt>
      <trkpt lat="47.21338" lon="-1.705">
        <ele>59.4</ele>
        <time>2016-04-03T07:36:06.062Z</time>
      </trkpt>
      <trkpt lat="47.2134" lon="-1.70489">
        <ele>59.3</ele>
        <time>2016-04-03T07:36:12.122Z</time>
      </trkpt>
      <trkpt lat="47.2134" lon="-1.70487">
        <ele>59.2</ele>
        <time>2016-04-03T07:36:13.073Z</time>
      </trkpt>
      <trkpt lat="47.21342" lon="-1.70476">
        <ele>59.5</ele>
        <time>2016-04-03T07:36:19.152Z</time>
      </trkpt>
      <trkpt lat="47.21342" lon="-1.70474">
        <ele>59.6</ele>
        <time>2016-04-03T07:36:20.078Z</time>
      </trkpt>
      <trkpt lat="47.21344" lon="-1.70462">
        <ele>59.8</ele>
        <time>2016-04-03T07:36:26.140Z</time>
      </trkpt>
      <trkpt lat="47.21344" lon="-1.7046">
        <ele>59.8</ele>
        <time>2016-04-03T07:36:27.110Z</time>
      </trkpt>
      <trkpt lat="47.21346" lon="-1.70448">
        <ele>59.9</ele>
        <time>2016-04-03T07:36:33.137Z</time>
      </trkpt>
      <trkpt lat="47.21346" lon="-1.70447">
        <ele>59.9</ele>
        <time>2016-04-03T07:36:34.071Z</time>
      </trkpt>
      <trkpt lat="47.21349" lon="-1.70434">
        <ele>60</ele>
        <time>2016-04-03T07:36:41.299Z</time>
      </trkpt>
      <trkpt lat="47.21349" lon="-1.70432">
        <ele>60</ele>
        <time>2016-04-03T07:36:42.067Z</time>
      </trkpt>
      <trkpt lat="47.21351" lon="-1.7042">
        <ele>59.8</ele>
        <time>2016-04-03T07:36:49.157Z</time>
      </trkpt>
      <trkpt lat="47.21351" lon="-1.70418">
        <ele>59.8</ele>
        <time>2016-04-03T07:36:50.077Z</time>
      </trkpt>
      <trkpt lat="47.21352" lon="-1.70406">
        <ele>59.4</ele>
        <time>2016-04-03T07:36:57.161Z</time>
      </trkpt>
      <trkpt lat="47.21353" lon="-1.70404">
        <ele>59.5</ele>
        <time>2016-04-03T07:36:58.062Z</time>
      </trkpt>
      <trkpt lat="47.21355" lon="-1.70392">
        <ele>59.8</ele>
        <time>2016-04-03T07:37:05.338Z</time>
      </trkpt>
      <trkpt lat="47.21356" lon="-1.7039">
        <ele>59.8</ele>
        <time>2016-04-03T07:37:06.136Z</time>
      </trkpt>
      <trkpt lat="47.21358" lon="-1.70379">
        <ele>59.8</ele>
        <time>2016-04-03T07:37:13.530Z</time>
      </trkpt>
      <trkpt lat="47.21358" lon="-1.70376">
        <ele>59.8</ele>
        <time>2016-04-03T07:37:14.068Z</time>
      </trkpt>
      <trkpt lat="47.2136" lon="-1.70365">
        <ele>60.2</ele>
        <time>2016-04-03T07:37:19.142Z</time>
      </trkpt>
      <trkpt lat="47.2136" lon="-1.70362">
        <ele>60.3</ele>
        <time>2016-04-03T07:37:20.063Z</time>
      </trkpt>
      <trkpt lat="47.21361" lon="-1.7035">
        <ele>60.5</ele>
        <time>2016-04-03T07:37:26.183Z</time>
      </trkpt>
      <trkpt lat="47.21361" lon="-1.70348">
        <ele>60.4</ele>
        <time>2016-04-03T07:37:27.012Z</time>
      </trkpt>
      <trkpt lat="47.21363" lon="-1.70337">
        <ele>59.7</ele>
        <time>2016-04-03T07:37:33.152Z</time>
      </trkpt>
      <trkpt lat="47.21363" lon="-1.70335">
        <ele>59.6</ele>
        <time>2016-04-03T07:37:34.138Z</time>
      </trkpt>
      <trkpt lat="47.21364" lon="-1.70323">
        <ele>59</ele>
        <time>2016-04-03T07:37:39.150Z</time>
      </trkpt>
      <trkpt lat="47.21365" lon="-1.7032">
        <ele>58.9</ele>
        <time>2016-04-03T07:37:40.066Z</time>
      </trkpt>
      <trkpt lat="47.21366" lon="-1.70308">
        <ele>58.4</ele>
        <time>2016-04-03T07:37:47.171Z</time>
      </trkpt>
      <trkpt lat="47.21366" lon="-1.70306">
        <ele>58.3</ele>
        <time>2016-04-03T07:37:48.050Z</time>
      </trkpt>
      <trkpt lat="47.21371" lon="-1.70297">
        <ele>58.1</ele>
        <time>2016-04-03T07:37:53.450Z</time>
      </trkpt>
      <trkpt lat="47.21373" lon="-1.70296">
        <ele>58.2</ele>
        <time>2016-04-03T07:37:54.018Z</time>
      </trkpt>
      <trkpt lat="47.21381" lon="-1.70294">
        <ele>58.7</ele>
        <time>2016-04-03T07:37:59.172Z</time>
      </trkpt>
      <trkpt lat="47.21382" lon="-1.70293">
        <ele>58.8</ele>
        <time>2016-04-03T07:38:00.187Z</time>
      </trkpt>
      <trkpt lat="47.2139" lon="-1.70291">
        <ele>59.5</ele>
        <time>2016-04-03T07:38:06.178Z</time>
      </trkpt>
      <trkpt lat="47.21392" lon="-1.7029">
        <ele>59.6</ele>
        <time>2016-04-03T07:38:07.094Z</time>
      </trkpt>
      <trkpt lat="47.214" lon="-1.70287">
        <ele>60.4</ele>
        <time>2016-04-03T07:38:14.181Z</time>
      </trkpt>
      <trkpt lat="47.21401" lon="-1.70286">
        <ele>60.5</ele>
        <time>2016-04-03T07:38:15.243Z</time>
      </trkpt>
      <trkpt lat="47.2141" lon="-1.70284">
        <ele>61.3</ele>
        <time>2016-04-03T07:38:22.184Z</time>
      </trkpt>
      <trkpt lat="47.21411" lon="-1.70283">
        <ele>61.4</ele>
        <time>2016-04-03T07:38:23.061Z</time>
      </trkpt>
      <trkpt lat="47.2142" lon="-1.70279">
        <ele>61.8</ele>
        <time>2016-04-03T07:38:30.215Z</time>
      </trkpt>
      <trkpt lat="47.21421" lon="-1.70278">
        <ele>61.9</ele>
        <time>2016-04-03T07:38:31.080Z</time>
      </trkpt>
      <trkpt lat="47.21428" lon="-1.70274">
        <ele>62.7</ele>
        <time>2016-04-03T07:38:37.105Z</time>
      </trkpt>
      <trkpt lat="47.2143" lon="-1.70273">
        <ele>62.8</ele>
        <time>2016-04-03T07:38:38.091Z</time>
      </trkpt>
      <trkpt lat="47.21438" lon="-1.7027">
        <ele>63.4</ele>
        <time>2016-04-03T07:38:44.219Z</time>
      </trkpt>
      <trkpt lat="47.21439" lon="-1.7027">
        <ele>63.5</ele>
        <time>2016-04-03T07:38:45.076Z</time>
      </trkpt>
      <trkpt lat="47.21447" lon="-1.70265">
        <ele>63.8</ele>
        <time>2016-04-03T07:38:51.150Z</time>
      </trkpt>
      <trkpt lat="47.21448" lon="-1.70264">
        <ele>63.9</ele>
        <time>2016-04-03T07:38:52.061Z</time>
      </trkpt>
      <trkpt lat="47.21456" lon="-1.70259">
        <ele>64.1</ele>
        <time>2016-04-03T07:38:59.107Z</time>
      </trkpt>
      <trkpt lat="47.21457" lon="-1.70259">
        <ele>64.2</ele>
        <time>2016-04-03T07:39:00.095Z</time>
      </trkpt>
      <trkpt lat="47.21464" lon="-1.70255">
        <ele>64.7</ele>
        <time>2016-04-03T07:39:05.146Z</time>
      </trkpt>
      <trkpt lat="47.21465" lon="-1.70254">
        <ele>64.8</ele>
        <time>2016-04-03T07:39:06.414Z</time>
      </trkpt>
      <trkpt lat="47.21472" lon="-1.70249">
        <ele>66.1</ele>
        <time>2016-04-03T07:39:12.489Z</time>
      </trkpt>
      <trkpt lat="47.21474" lon="-1.70248">
        <ele>66.3</ele>
        <time>2016-04-03T07:39:13.030Z</time>
      </trkpt>
      <trkpt lat="47.21481" lon="-1.70241">
        <ele>68.3</ele>
        <time>2016-04-03T07:39:21.287Z</time>
      </trkpt>
      <trkpt lat="47.21483" lon="-1.7024">
        <ele>68.6</ele>
        <time>2016-04-03T07:39:22.086Z</time>
      </trkpt>
      <trkpt lat="47.21491" lon="-1.70236">
        <ele>69.9</ele>
        <time>2016-04-03T07:39:28.099Z</time>
      </trkpt>
      <trkpt lat="47.21492" lon="-1.70235">
        <ele>70.1</ele>
        <time>2016-04-03T07:39:29.027Z</time>
      </trkpt>
      <trkpt lat="47.215" lon="-1.70232">
        <ele>71.2</ele>
        <time>2016-04-03T07:39:35.067Z</time>
      </trkpt>
      <trkpt lat="47.21501" lon="-1.70231">
        <ele>71.3</ele>
        <time>2016-04-03T07:39:36.076Z</time>
      </trkpt>
      <trkpt lat="47.21509" lon="-1.70227">
        <ele>71.7</ele>
        <time>2016-04-03T07:39:42.126Z</time>
      </trkpt>
      <trkpt lat="47.2151" lon="-1.70226">
        <ele>71.7</ele>
        <time>2016-04-03T07:39:43.071Z</time>
      </trkpt>
      <trkpt lat="47.21517" lon="-1.70222">
        <ele>71.8</ele>
        <time>2016-04-03T07:39:50.164Z</time>
      </trkpt>
      <trkpt lat="47.21519" lon="-1.70222">
        <ele>71.8</ele>
        <time>2016-04-03T07:39:51.084Z</time>
      </trkpt>
      <trkpt lat="47.21526" lon="-1.7022">
        <ele>71.6</ele>
        <time>2016-04-03T07:39:57.066Z</time>
      </trkpt>
      <trkpt lat="47.21528" lon="-1.70219">
        <ele>71.5</ele>
        <time>2016-04-03T07:39:58.111Z</time>
      </trkpt>
      <trkpt lat="47.21536" lon="-1.70215">
        <ele>71</ele>
        <time>2016-04-03T07:40:04.130Z</time>
      </trkpt>
      <trkpt lat="47.21537" lon="-1.70214">
        <ele>71</ele>
        <time>2016-04-03T07:40:05.060Z</time>
      </trkpt>
      <trkpt lat="47.21544" lon="-1.70209">
        <ele>70.9</ele>
        <time>2016-04-03T07:40:11.151Z</time>
      </trkpt>
      <trkpt lat="47.21546" lon="-1.70207">
        <ele>70.9</ele>
        <time>2016-04-03T07:40:12.041Z</time>
      </trkpt>
      <trkpt lat="47.21552" lon="-1.70203">
        <ele>71.6</ele>
        <time>2016-04-03T07:40:18.163Z</time>
      </trkpt>
      <trkpt lat="47.21554" lon="-1.70202">
        <ele>71.7</ele>
        <time>2016-04-03T07:40:19.046Z</time>
      </trkpt>
      <trkpt lat="47.21562" lon="-1.70198">
        <ele>72.2</ele>
        <time>2016-04-03T07:40:25.235Z</time>
      </trkpt>
      <trkpt lat="47.21563" lon="-1.70197">
        <ele>72.3</ele>
        <time>2016-04-03T07:40:26.065Z</time>
      </trkpt>
      <trkpt lat="47.2157" lon="-1.70192">
        <ele>73</ele>
        <time>2016-04-03T07:40:33.285Z</time>
      </trkpt>
      <trkpt lat="47.21571" lon="-1.70191">
        <ele>73</ele>
        <time>2016-04-03T07:40:34.058Z</time>
      </trkpt>
      <trkpt lat="47.21578" lon="-1.70184">
        <ele>73</ele>
        <time>2016-04-03T07:40:39.172Z</time>
      </trkpt>
      <trkpt lat="47.21579" lon="-1.70183">
        <ele>72.9</ele>
        <time>2016-04-03T07:40:40.057Z</time>
      </trkpt>
      <trkpt lat="47.21586" lon="-1.70175">
        <ele>72.8</ele>
        <time>2016-04-03T07:40:46.141Z</time>
      </trkpt>
      <trkpt lat="47.21587" lon="-1.70174">
        <ele>72.8</ele>
        <time>2016-04-03T07:40:47.014Z</time>
      </trkpt>
      <trkpt lat="47.21593" lon="-1.70164">
        <ele>73.2</ele>
        <time>2016-04-03T07:40:52.203Z</time>
      </trkpt>
      <trkpt lat="47.21593" lon="-1.70163">
        <ele>73.3</ele>
        <time>2016-04-03T07:40:53.020Z</time>
      </trkpt>
      <trkpt lat="47.21597" lon="-1.70152">
        <ele>73.9</ele>
        <time>2016-04-03T07:40:58.141Z</time>
      </trkpt>
      <trkpt lat="47.21598" lon="-1.7015">
        <ele>74</ele>
        <time>2016-04-03T07:40:59.106Z</time>
      </trkpt>
      <trkpt lat="47.21604" lon="-1.70141">
        <ele>74.3</ele>
        <time>2016-04-03T07:41:06.225Z</time>
      </trkpt>
      <trkpt lat="47.21605" lon="-1.7014">
        <ele>74.3</ele>
        <time>2016-04-03T07:41:07.177Z</time>
      </trkpt>
      <trkpt lat="47.21611" lon="-1.70132">
        <ele>74.2</ele>
        <time>2016-04-03T07:41:13.501Z</time>
      </trkpt>
      <trkpt lat="47.21612" lon="-1.70131">
        <ele>74.1</ele>
        <time>2016-04-03T07:41:14.059Z</time>
      </trkpt>
      <trkpt lat="47.2162" lon="-1.70126">
        <ele>74</ele>
        <time>2016-04-03T07:41:22.164Z</time>
      </trkpt>
      <trkpt lat="47.21622" lon="-1.70125">
        <ele>74</ele>
        <time>2016-04-03T07:41:23.065Z</time>
      </trkpt>
      <trkpt lat="47.2163" lon="-1.7012">
        <ele>74</ele>
        <time>2016-04-03T07:41:29.329Z</time>
      </trkpt>
      <trkpt lat="47.21631" lon="-1.70119">
        <ele>74.1</ele>
        <time>2016-04-03T07:41:30.010Z</time>
      </trkpt>
      <trkpt lat="47.21639" lon="-1.70114">
        <ele>74.7</ele>
        <time>2016-04-03T07:41:35.061Z</time>
      </trkpt>
      <trkpt lat="47.21641" lon="-1.70113">
        <ele>74.8</ele>
        <time>2016-04-03T07:41:36.053Z</time>
      </trkpt>
      <trkpt lat="47.21649" lon="-1.7011">
        <ele>75.3</ele>
        <time>2016-04-03T07:41:42.105Z</time>
      </trkpt>
      <trkpt lat="47.2165" lon="-1.70109">
        <ele>75.4</ele>
        <time>2016-04-03T07:41:43.071Z</time>
      </trkpt>
      <trkpt lat="47.21658" lon="-1.70106">
        <ele>76</ele>
        <time>2016-04-03T07:41:50.146Z</time>
      </trkpt>
      <trkpt lat="47.2166" lon="-1.70106">
        <ele>76.1</ele>
        <time>2016-04-03T07:41:51.069Z</time>
      </trkpt>
      <trkpt lat="47.21667" lon="-1.70102">
        <ele>76.5</ele>
        <time>2016-04-03T07:41:57.190Z</time>
      </trkpt>
      <trkpt lat="47.21669" lon="-1.70102">
        <ele>76.5</ele>
        <time>2016-04-03T07:41:58.063Z</time>
      </trkpt>
      <trkpt lat="47.21677" lon="-1.70099">
        <ele>76.8</ele>
        <time>2016-04-03T07:42:04.153Z</time>
      </trkpt>
      <trkpt lat="47.21678" lon="-1.70098">
        <ele>76.8</ele>
        <time>2016-04-03T07:42:05.024Z</time>
      </trkpt>
      <trkpt lat="47.21686" lon="-1.70095">
        <ele>77.1</ele>
        <time>2016-04-03T07:42:10.127Z</time>
      </trkpt>
      <trkpt lat="47.21687" lon="-1.70095">
        <ele>77.2</ele>
        <time>2016-04-03T07:42:11.063Z</time>
      </trkpt>
      <trkpt lat="47.21696" lon="-1.70093">
        <ele>77.3</ele>
        <time>2016-04-03T07:42:18.087Z</time>
      </trkpt>
      <trkpt lat="47.21697" lon="-1.70092">
        <ele>77.3</ele>
        <time>2016-04-03T07:42:19.133Z</time>
      </trkpt>
      <trkpt lat="47.21704" lon="-1.7009">
        <ele>77</ele>
        <time>2016-04-03T07:42:23.174Z</time>
      </trkpt>
      <trkpt lat="47.21706" lon="-1.7009">
        <ele>76.9</ele>
        <time>2016-04-03T07:42:24.079Z</time>
      </trkpt>
      <trkpt lat="47.21714" lon="-1.70087">
        <ele>76.7</ele>
        <time>2016-04-03T07:42:29.386Z</time>
      </trkpt>
      <trkpt lat="47.21715" lon="-1.70086">
        <ele>76.7</ele>
        <time>2016-04-03T07:42:30.068Z</time>
      </trkpt>
      <trkpt lat="47.21723" lon="-1.70084">
        <ele>76.8</ele>
        <time>2016-04-03T07:42:38.141Z</time>
      </trkpt>
      <trkpt lat="47.21725" lon="-1.70083">
        <ele>76.8</ele>
        <time>2016-04-03T07:42:39.073Z</time>
      </trkpt>
      <trkpt lat="47.21732" lon="-1.70077">
        <ele>76.3</ele>
        <time>2016-04-03T07:42:45.039Z</time>
      </trkpt>
      <trkpt lat="47.21734" lon="-1.70076">
        <ele>76.2</ele>
        <time>2016-04-03T07:42:46.076Z</time>
      </trkpt>
      <trkpt lat="47.21741" lon="-1.7007">
        <ele>75.8</ele>
        <time>2016-04-03T07:42:52.157Z</time>
      </trkpt>
      <trkpt lat="47.21742" lon="-1.70069">
        <ele>75.8</ele>
        <time>2016-04-03T07:42:53.095Z</time>
      </trkpt>
      <trkpt lat="47.21749" lon="-1.70063">
        <ele>75.4</ele>
        <time>2016-04-03T07:42:59.123Z</time>
      </trkpt>
      <trkpt lat="47.2175" lon="-1.70061">
        <ele>75.4</ele>
        <time>2016-04-03T07:43:00.082Z</time>
      </trkpt>
      <trkpt lat="47.21757" lon="-1.70055">
        <ele>75.5</ele>
        <time>2016-04-03T07:43:05.139Z</time>
      </trkpt>
      <trkpt lat="47.21758" lon="-1.70053">
        <ele>75.6</ele>
        <time>2016-04-03T07:43:06.090Z</time>
      </trkpt>
      <trkpt lat="47.21766" lon="-1.70046">
        <ele>75.5</ele>
        <time>2016-04-03T07:43:13.527Z</time>
      </trkpt>
      <trkpt lat="47.21766" lon="-1.70046">
        <ele>75.5</ele>
        <time>2016-04-03T07:43:14.072Z</time>
      </trkpt>
      <trkpt lat="47.21773" lon="-1.70038">
        <ele>75.4</ele>
        <time>2016-04-03T07:43:21.137Z</time>
      </trkpt>
      <trkpt lat="47.21774" lon="-1.70037">
        <ele>75.4</ele>
        <time>2016-04-03T07:43:22.065Z</time>
      </trkpt>
      <trkpt lat="47.21779" lon="-1.70029">
        <ele>75.1</ele>
        <time>2016-04-03T07:43:27.115Z</time>
      </trkpt>
      <trkpt lat="47.2178" lon="-1.70028">
        <ele>75</ele>
        <time>2016-04-03T07:43:28.031Z</time>
      </trkpt>
      <trkpt lat="47.21786" lon="-1.70019">
        <ele>74.7</ele>
        <time>2016-04-03T07:43:35.194Z</time>
      </trkpt>
      <trkpt lat="47.21787" lon="-1.70019">
        <ele>74.6</ele>
        <time>2016-04-03T07:43:36.080Z</time>
      </trkpt>
      <trkpt lat="47.21792" lon="-1.70009">
        <ele>74.7</ele>
        <time>2016-04-03T07:43:44.101Z</time>
      </trkpt>
      <trkpt lat="47.21793" lon="-1.70008">
        <ele>74.7</ele>
        <time>2016-04-03T07:43:45.081Z</time>
      </trkpt>
      <trkpt lat="47.218" lon="-1.70002">
        <ele>74.4</ele>
        <time>2016-04-03T07:43:50.575Z</time>
      </trkpt>
      <trkpt lat="47.21802" lon="-1.70001">
        <ele>74.5</ele>
        <time>2016-04-03T07:43:51.033Z</time>
      </trkpt>
      <trkpt lat="47.21809" lon="-1.69993">
        <ele>74.6</ele>
        <time>2016-04-03T07:43:57.118Z</time>
      </trkpt>
      <trkpt lat="47.2181" lon="-1.69992">
        <ele>74.6</ele>
        <time>2016-04-03T07:43:58.071Z</time>
      </trkpt>
      <trkpt lat="47.21816" lon="-1.69984">
        <ele>74.3</ele>
        <time>2016-04-03T07:44:04.128Z</time>
      </trkpt>
      <trkpt lat="47.21818" lon="-1.69981">
        <ele>74.3</ele>
        <time>2016-04-03T07:44:05.088Z</time>
      </trkpt>
      <trkpt lat="47.21825" lon="-1.69974">
        <ele>73.8</ele>
        <time>2016-04-03T07:44:10.172Z</time>
      </trkpt>
      <trkpt lat="47.21825" lon="-1.69973">
        <ele>73.8</ele>
        <time>2016-04-03T07:44:11.029Z</time>
      </trkpt>
      <trkpt lat="47.21831" lon="-1.69964">
        <ele>73.5</ele>
        <time>2016-04-03T07:44:19.093Z</time>
      </trkpt>
      <trkpt lat="47.21832" lon="-1.69963">
        <ele>73.5</ele>
        <time>2016-04-03T07:44:20.069Z</time>
      </trkpt>
      <trkpt lat="47.21839" lon="-1.69955">
        <ele>73.8</ele>
        <time>2016-04-03T07:44:25.207Z</time>
      </trkpt>
      <trkpt lat="47.2184" lon="-1.69954">
        <ele>74</ele>
        <time>2016-04-03T07:44:26.089Z</time>
      </trkpt>
      <trkpt lat="47.21847" lon="-1.6995">
        <ele>74.9</ele>
        <time>2016-04-03T07:44:33.146Z</time>
      </trkpt>
      <trkpt lat="47.21848" lon="-1.69949">
        <ele>74.9</ele>
        <time>2016-04-03T07:44:34.082Z</time>
      </trkpt>
      <trkpt lat="47.21855" lon="-1.69941">
        <ele>75.3</ele>
        <time>2016-04-03T07:44:39.158Z</time>
      </trkpt>
      <trkpt lat="47.21856" lon="-1.69939">
        <ele>75.4</ele>
        <time>2016-04-03T07:44:40.072Z</time>
      </trkpt>
      <trkpt lat="47.21861" lon="-1.6993">
        <ele>76.5</ele>
        <time>2016-04-03T07:44:47.084Z</time>
      </trkpt>
      <trkpt lat="47.21861" lon="-1.69929">
        <ele>76.7</ele>
        <time>2016-04-03T07:44:48.113Z</time>
      </trkpt>
      <trkpt lat="47.21867" lon="-1.69919">
        <ele>77.4</ele>
        <time>2016-04-03T07:44:54.156Z</time>
      </trkpt>
      <trkpt lat="47.21868" lon="-1.69918">
        <ele>77.4</ele>
        <time>2016-04-03T07:44:55.072Z</time>
      </trkpt>
      <trkpt lat="47.21874" lon="-1.6991">
        <ele>77.5</ele>
        <time>2016-04-03T07:45:01.050Z</time>
      </trkpt>
      <trkpt lat="47.21875" lon="-1.69909">
        <ele>77.6</ele>
        <time>2016-04-03T07:45:02.027Z</time>
      </trkpt>
      <trkpt lat="47.21881" lon="-1.69904">
        <ele>77.1</ele>
        <time>2016-04-03T07:45:07.136Z</time>
      </trkpt>
      <trkpt lat="47.21883" lon="-1.69901">
        <ele>76.9</ele>
        <time>2016-04-03T07:45:08.075Z</time>
      </trkpt>
      <trkpt lat="47.21888" lon="-1.69892">
        <ele>76.5</ele>
        <time>2016-04-03T07:45:12.069Z</time>
      </trkpt>
      <trkpt lat="47.2189" lon="-1.69889">
        <ele>76.5</ele>
        <time>2016-04-03T07:45:13.101Z</time>
      </trkpt>
      <trkpt lat="47.21896" lon="-1.6988">
        <ele>76.3</ele>
        <time>2016-04-03T07:45:20.154Z</time>
      </trkpt>
      <trkpt lat="47.21897" lon="-1.69878">
        <ele>76.2</ele>
        <time>2016-04-03T07:45:21.076Z</time>
      </trkpt>
      <trkpt lat="47.21904" lon="-1.6987">
        <ele>76.3</ele>
        <time>2016-04-03T07:45:26.169Z</time>
      </trkpt>
      <trkpt lat="47.21905" lon="-1.69869">
        <ele>76.4</ele>
        <time>2016-04-03T07:45:27.079Z</time>
      </trkpt>
      <trkpt lat="47.21912" lon="-1.69863">
        <ele>76.4</ele>
        <time>2016-04-03T07:45:34.076Z</time>
      </trkpt>
      <trkpt lat="47.21913" lon="-1.69862">
        <ele>76.3</ele>
        <time>2016-04-03T07:45:35.069Z</time>
      </trkpt>
      <trkpt lat="47.21919" lon="-1.69855">
        <ele>75.7</ele>
        <time>2016-04-03T07:45:41.159Z</time>
      </trkpt>
      <trkpt lat="47.2192" lon="-1.69854">
        <ele>75.6</ele>
        <time>2016-04-03T07:45:42.074Z</time>
      </trkpt>
      <trkpt lat="47.21928" lon="-1.69849">
        <ele>75.4</ele>
        <time>2016-04-03T07:45:50.122Z</time>
      </trkpt>
      <trkpt lat="47.21929" lon="-1.69848">
        <ele>75.3</ele>
        <time>2016-04-03T07:45:51.052Z</time>
      </trkpt>
      <trkpt lat="47.21936" lon="-1.69842">
        <ele>75.3</ele>
        <time>2016-04-03T07:45:58.151Z</time>
      </trkpt>
      <trkpt lat="47.21937" lon="-1.69841">
        <ele>75.3</ele>
        <time>2016-04-03T07:45:59.066Z</time>
      </trkpt>
      <trkpt lat="47.21945" lon="-1.69836">
        <ele>75.4</ele>
        <time>2016-04-03T07:46:05.084Z</time>
      </trkpt>
      <trkpt lat="47.21946" lon="-1.69835">
        <ele>75.5</ele>
        <time>2016-04-03T07:46:06.063Z</time>
      </trkpt>
      <trkpt lat="47.21952" lon="-1.69829">
        <ele>75.8</ele>
        <time>2016-04-03T07:46:11.201Z</time>
      </trkpt>
      <trkpt lat="47.21954" lon="-1.69826">
        <ele>75.9</ele>
        <time>2016-04-03T07:46:12.072Z</time>
      </trkpt>
      <trkpt lat="47.21961" lon="-1.6982">
        <ele>76.4</ele>
        <time>2016-04-03T07:46:18.135Z</time>
      </trkpt>
      <trkpt lat="47.21962" lon="-1.69819">
        <ele>76.4</ele>
        <time>2016-04-03T07:46:19.088Z</time>
      </trkpt>
      <trkpt lat="47.2197" lon="-1.69813">
        <ele>76.6</ele>
        <time>2016-04-03T07:46:26.153Z</time>
      </trkpt>
      <trkpt lat="47.21971" lon="-1.69812">
        <ele>76.7</ele>
        <time>2016-04-03T07:46:27.449Z</time>
      </trkpt>
      <trkpt lat="47.21979" lon="-1.69809">
        <ele>76.6</ele>
        <time>2016-04-03T07:46:33.128Z</time>
      </trkpt>
      <trkpt lat="47.21981" lon="-1.69808">
        <ele>76.5</ele>
        <time>2016-04-03T07:46:34.170Z</time>
      </trkpt>
      <trkpt lat="47.21989" lon="-1.69802">
        <ele>76.5</ele>
        <time>2016-04-03T07:46:40.065Z</time>
      </trkpt>
      <trkpt lat="47.2199" lon="-1.69801">
        <ele>76.6</ele>
        <time>2016-04-03T07:46:41.026Z</time>
      </trkpt>
      <trkpt lat="47.21998" lon="-1.69796">
        <ele>76.8</ele>
        <time>2016-04-03T07:46:49.142Z</time>
      </trkpt>
      <trkpt lat="47.21999" lon="-1.69796">
        <ele>76.8</ele>
        <time>2016-04-03T07:46:50.260Z</time>
      </trkpt>
      <trkpt lat="47.22007" lon="-1.69791">
        <ele>76.8</ele>
        <time>2016-04-03T07:46:56.184Z</time>
      </trkpt>
      <trkpt lat="47.22008" lon="-1.69791">
        <ele>76.8</ele>
        <time>2016-04-03T07:46:57.105Z</time>
      </trkpt>
      <trkpt lat="47.22016" lon="-1.69786">
        <ele>76.6</ele>
        <time>2016-04-03T07:47:04.151Z</time>
      </trkpt>
      <trkpt lat="47.22016" lon="-1.69785">
        <ele>76.5</ele>
        <time>2016-04-03T07:47:05.191Z</time>
      </trkpt>
      <trkpt lat="47.22024" lon="-1.69781">
        <ele>75.9</ele>
        <time>2016-04-03T07:47:11.193Z</time>
      </trkpt>
      <trkpt lat="47.22025" lon="-1.6978">
        <ele>75.8</ele>
        <time>2016-04-03T07:47:12.079Z</time>
      </trkpt>
      <trkpt lat="47.22033" lon="-1.69778">
        <ele>75.4</ele>
        <time>2016-04-03T07:47:19.101Z</time>
      </trkpt>
      <trkpt lat="47.22035" lon="-1.69777">
        <ele>75.3</ele>
        <time>2016-04-03T07:47:20.082Z</time>
      </trkpt>
      <trkpt lat="47.22043" lon="-1.69776">
        <ele>75.2</ele>
        <time>2016-04-03T07:47:27.318Z</time>
      </trkpt>
      <trkpt lat="47.22044" lon="-1.69775">
        <ele>75.1</ele>
        <time>2016-04-03T07:47:28.024Z</time>
      </trkpt>
      <trkpt lat="47.2205" lon="-1.69772">
        <ele>75.1</ele>
        <time>2016-04-03T07:47:36.084Z</time>
      </trkpt>
      <trkpt lat="47.22053" lon="-1.69771">
        <ele>75</ele>
        <time>2016-04-03T07:47:37.080Z</time>
      </trkpt>
      <trkpt lat="47.2206" lon="-1.69764">
        <ele>74.2</ele>
        <time>2016-04-03T07:47:46.249Z</time>
      </trkpt>
      <trkpt lat="47.2206" lon="-1.69763">
        <ele>74.2</ele>
        <time>2016-04-03T07:47:47.029Z</time>
      </trkpt>
      <trkpt lat="47.22061" lon="-1.6975">
        <ele>70.8</ele>
        <time>2016-04-03T07:49:39.155Z</time>
      </trkpt>
      <trkpt lat="47.2206" lon="-1.6975">
        <ele>70.7</ele>
        <time>2016-04-03T07:49:40.041Z</time>
      </trkpt>
      <trkpt lat="47.22058" lon="-1.69761">
        <ele>68.5</ele>
        <time>2016-04-03T07:50:25.199Z</time>
      </trkpt>
      <trkpt lat="47.22057" lon="-1.69763">
        <ele>68.4</ele>
        <time>2016-04-03T07:50:26.065Z</time>
      </trkpt>
      <trkpt lat="47.22052" lon="-1.69774">
        <ele>67.8</ele>
        <time>2016-04-03T07:50:31.162Z</time>
      </trkpt>
      <trkpt lat="47.22052" lon="-1.69776">
        <ele>67.7</ele>
        <time>2016-04-03T07:50:32.088Z</time>
      </trkpt>
      <trkpt lat="47.2205" lon="-1.69787">
        <ele>67.7</ele>
        <time>2016-04-03T07:50:38.150Z</time>
      </trkpt>
      <trkpt lat="47.22049" lon="-1.69789">
        <ele>67.8</ele>
        <time>2016-04-03T07:50:39.068Z</time>
      </trkpt>
      <trkpt lat="47.22045" lon="-1.69798">
        <ele>67.9</ele>
        <time>2016-04-03T07:50:46.198Z</time>
      </trkpt>
      <trkpt lat="47.22044" lon="-1.698">
        <ele>67.9</ele>
        <time>2016-04-03T07:50:47.075Z</time>
      </trkpt>
      <trkpt lat="47.22038" lon="-1.6981">
        <ele>68.4</ele>
        <time>2016-04-03T07:50:54.154Z</time>
      </trkpt>
      <trkpt lat="47.22037" lon="-1.69811">
        <ele>68.5</ele>
        <time>2016-04-03T07:50:55.073Z</time>
      </trkpt>
      <trkpt lat="47.22035" lon="-1.69823">
        <ele>69.5</ele>
        <time>2016-04-03T07:51:03.155Z</time>
      </trkpt>
      <trkpt lat="47.22035" lon="-1.69824">
        <ele>69.6</ele>
        <time>2016-04-03T07:51:04.069Z</time>
      </trkpt>
      <trkpt lat="47.22031" lon="-1.69836">
        <ele>69.9</ele>
        <time>2016-04-03T07:51:13.150Z</time>
      </trkpt>
      <trkpt lat="47.22029" lon="-1.6984">
        <ele>69.9</ele>
        <time>2016-04-03T07:51:14.078Z</time>
      </trkpt>
      <trkpt lat="47.22025" lon="-1.69848">
        <ele>70</ele>
        <time>2016-04-03T07:51:18.185Z</time>
      </trkpt>
      <trkpt lat="47.22023" lon="-1.6985">
        <ele>69.9</ele>
        <time>2016-04-03T07:51:19.041Z</time>
      </trkpt>
      <trkpt lat="47.22017" lon="-1.69857">
        <ele>69.6</ele>
        <time>2016-04-03T07:51:24.162Z</time>
      </trkpt>
      <trkpt lat="47.22016" lon="-1.6986">
        <ele>69.4</ele>
        <time>2016-04-03T07:51:25.075Z</time>
      </trkpt>
      <trkpt lat="47.2201" lon="-1.69869">
        <ele>68.6</ele>
        <time>2016-04-03T07:51:31.142Z</time>
      </trkpt>
      <trkpt lat="47.22009" lon="-1.6987">
        <ele>68.4</ele>
        <time>2016-04-03T07:51:32.080Z</time>
      </trkpt>
      <trkpt lat="47.22006" lon="-1.69881">
        <ele>67</ele>
        <time>2016-04-03T07:51:39.076Z</time>
      </trkpt>
      <trkpt lat="47.22006" lon="-1.69883">
        <ele>66.8</ele>
        <time>2016-04-03T07:51:40.081Z</time>
      </trkpt>
      <trkpt lat="47.22004" lon="-1.69895">
        <ele>65.7</ele>
        <time>2016-04-03T07:51:45.185Z</time>
      </trkpt>
      <trkpt lat="47.22004" lon="-1.69898">
        <ele>65.6</ele>
        <time>2016-04-03T07:51:46.075Z</time>
      </trkpt>
      <trkpt lat="47.22001" lon="-1.69909">
        <ele>64.3</ele>
        <time>2016-04-03T07:51:52.130Z</time>
      </trkpt>
      <trkpt lat="47.22" lon="-1.69912">
        <ele>64.1</ele>
        <time>2016-04-03T07:51:53.270Z</time>
      </trkpt>
      <trkpt lat="47.21997" lon="-1.69924">
        <ele>62.3</ele>
        <time>2016-04-03T07:52:01.056Z</time>
      </trkpt>
      <trkpt lat="47.21996" lon="-1.69926">
        <ele>62</ele>
        <time>2016-04-03T07:52:02.077Z</time>
      </trkpt>
      <trkpt lat="47.21995" lon="-1.69938">
        <ele>60</ele>
        <time>2016-04-03T07:52:09.348Z</time>
      </trkpt>
      <trkpt lat="47.21994" lon="-1.6994">
        <ele>59.7</ele>
        <time>2016-04-03T07:52:10.077Z</time>
      </trkpt>
      <trkpt lat="47.21994" lon="-1.69953">
        <ele>58</ele>
        <time>2016-04-03T07:52:17.153Z</time>
      </trkpt>
      <trkpt lat="47.21994" lon="-1.69954">
        <ele>57.8</ele>
        <time>2016-04-03T07:52:18.093Z</time>
      </trkpt>
      <trkpt lat="47.21996" lon="-1.69966">
        <ele>56.3</ele>
        <time>2016-04-03T07:52:24.288Z</time>
      </trkpt>
      <trkpt lat="47.21996" lon="-1.69968">
        <ele>56.1</ele>
        <time>2016-04-03T07:52:25.039Z</time>
      </trkpt>
      <trkpt lat="47.21997" lon="-1.69981">
        <ele>54.8</ele>
        <time>2016-04-03T07:52:31.169Z</time>
      </trkpt>
      <trkpt lat="47.21997" lon="-1.69983">
        <ele>54.7</ele>
        <time>2016-04-03T07:52:32.076Z</time>
      </trkpt>
      <trkpt lat="47.21998" lon="-1.69995">
        <ele>54.5</ele>
        <time>2016-04-03T07:52:38.222Z</time>
      </trkpt>
      <trkpt lat="47.21999" lon="-1.69996">
        <ele>54.4</ele>
        <time>2016-04-03T07:52:39.062Z</time>
      </trkpt>
      <trkpt lat="47.22001" lon="-1.70003">
        <ele>54.4</ele>
        <time>2016-04-03T07:52:43.170Z</time>
      </trkpt>
      <trkpt lat="47.22002" lon="-1.70009">
        <ele>54.3</ele>
        <time>2016-04-03T07:52:44.083Z</time>
      </trkpt>
      <trkpt lat="47.22006" lon="-1.70018">
        <ele>54</ele>
        <time>2016-04-03T07:52:47.106Z</time>
      </trkpt>
      <trkpt lat="47.22007" lon="-1.70021">
        <ele>54</ele>
        <time>2016-04-03T07:52:48.083Z</time>
      </trkpt>
      <trkpt lat="47.22011" lon="-1.70033">
        <ele>53.6</ele>
        <time>2016-04-03T07:52:57.395Z</time>
      </trkpt>
      <trkpt lat="47.22012" lon="-1.70035">
        <ele>53.6</ele>
        <time>2016-04-03T07:52:58.077Z</time>
      </trkpt>
      <trkpt lat="47.22016" lon="-1.70046">
        <ele>53.4</ele>
        <time>2016-04-03T07:53:05.151Z</time>
      </trkpt>
      <trkpt lat="47.22017" lon="-1.70047">
        <ele>53.3</ele>
        <time>2016-04-03T07:53:06.078Z</time>
      </trkpt>
      <trkpt lat="47.22023" lon="-1.70055">
        <ele>53.1</ele>
        <time>2016-04-03T07:53:17.245Z</time>
      </trkpt>
      <trkpt lat="47.22023" lon="-1.70057">
        <ele>53.1</ele>
        <time>2016-04-03T07:53:17.989Z</time>
      </trkpt>
      <trkpt lat="47.22026" lon="-1.70069">
        <ele>52.8</ele>
        <time>2016-04-03T07:53:31.221Z</time>
      </trkpt>
      <trkpt lat="47.22026" lon="-1.70069">
        <ele>52.8</ele>
        <time>2016-04-03T07:53:32.110Z</time>
      </trkpt>
      <trkpt lat="47.22035" lon="-1.70072">
        <ele>53.4</ele>
        <time>2016-04-03T07:53:56.152Z</time>
      </trkpt>
      <trkpt lat="47.22035" lon="-1.70072">
        <ele>53.4</ele>
        <time>2016-04-03T07:53:57.114Z</time>
      </trkpt>
      <trkpt lat="47.22034" lon="-1.70084">
        <ele>54</ele>
        <time>2016-04-03T07:54:40.220Z</time>
      </trkpt>
      <trkpt lat="47.22034" lon="-1.70085">
        <ele>54.1</ele>
        <time>2016-04-03T07:54:41.059Z</time>
      </trkpt>
      <trkpt lat="47.22033" lon="-1.70097">
        <ele>54</ele>
        <time>2016-04-03T07:54:51.056Z</time>
      </trkpt>
      <trkpt lat="47.22034" lon="-1.70099">
        <ele>54</ele>
        <time>2016-04-03T07:54:52.104Z</time>
      </trkpt>
      <trkpt lat="47.22035" lon="-1.70109">
        <ele>53.9</ele>
        <time>2016-04-03T07:54:58.230Z</time>
      </trkpt>
      <trkpt lat="47.22036" lon="-1.70112">
        <ele>53.9</ele>
        <time>2016-04-03T07:54:59.085Z</time>
      </trkpt>
      <trkpt lat="47.22042" lon="-1.70122">
        <ele>53.9</ele>
        <time>2016-04-03T07:55:05.177Z</time>
      </trkpt>
      <trkpt lat="47.22043" lon="-1.70123">
        <ele>53.9</ele>
        <time>2016-04-03T07:55:06.089Z</time>
      </trkpt>
      <trkpt lat="47.22051" lon="-1.70127">
        <ele>54.5</ele>
        <time>2016-04-03T07:55:13.194Z</time>
      </trkpt>
      <trkpt lat="47.22052" lon="-1.70126">
        <ele>54.6</ele>
        <time>2016-04-03T07:55:14.049Z</time>
      </trkpt>
      <trkpt lat="47.22058" lon="-1.70119">
        <ele>55.5</ele>
        <time>2016-04-03T07:55:19.235Z</time>
      </trkpt>
      <trkpt lat="47.2206" lon="-1.70116">
        <ele>55.7</ele>
        <time>2016-04-03T07:55:20.076Z</time>
      </trkpt>
      <trkpt lat="47.22065" lon="-1.70106">
        <ele>56.5</ele>
        <time>2016-04-03T07:55:27.203Z</time>
      </trkpt>
      <trkpt lat="47.22066" lon="-1.70105">
        <ele>56.6</ele>
        <time>2016-04-03T07:55:28.082Z</time>
      </trkpt>
      <trkpt lat="47.2207" lon="-1.70094">
        <ele>57.2</ele>
        <time>2016-04-03T07:55:35.123Z</time>
      </trkpt>
      <trkpt lat="47.22071" lon="-1.70092">
        <ele>57.3</ele>
        <time>2016-04-03T07:55:36.094Z</time>
      </trkpt>
      <trkpt lat="47.22075" lon="-1.70081">
        <ele>57.6</ele>
        <time>2016-04-03T07:55:42.083Z</time>
      </trkpt>
      <trkpt lat="47.22076" lon="-1.70079">
        <ele>57.7</ele>
        <time>2016-04-03T07:55:43.028Z</time>
      </trkpt>
      <trkpt lat="47.2208" lon="-1.70069">
        <ele>58.1</ele>
        <time>2016-04-03T07:55:48.238Z</time>
      </trkpt>
      <trkpt lat="47.2208" lon="-1.70067">
        <ele>58.1</ele>
        <time>2016-04-03T07:55:49.113Z</time>
      </trkpt>
      <trkpt lat="47.22085" lon="-1.70058">
        <ele>58.1</ele>
        <time>2016-04-03T07:55:55.152Z</time>
      </trkpt>
      <trkpt lat="47.22086" lon="-1.70057">
        <ele>58.1</ele>
        <time>2016-04-03T07:55:56.064Z</time>
      </trkpt>
      <trkpt lat="47.22091" lon="-1.70047">
        <ele>57.5</ele>
        <time>2016-04-03T07:56:02.152Z</time>
      </trkpt>
      <trkpt lat="47.22091" lon="-1.70045">
        <ele>57.3</ele>
        <time>2016-04-03T07:56:03.259Z</time>
      </trkpt>
      <trkpt lat="47.2209" lon="-1.70032">
        <ele>56.7</ele>
        <time>2016-04-03T07:56:08.148Z</time>
      </trkpt>
      <trkpt lat="47.22089" lon="-1.7003">
        <ele>56.6</ele>
        <time>2016-04-03T07:56:09.132Z</time>
      </trkpt>
      <trkpt lat="47.22084" lon="-1.70019">
        <ele>56.1</ele>
        <time>2016-04-03T07:56:17.151Z</time>
      </trkpt>
      <trkpt lat="47.22084" lon="-1.70018">
        <ele>56</ele>
        <time>2016-04-03T07:56:18.088Z</time>
      </trkpt>
      <trkpt lat="47.22079" lon="-1.70007">
        <ele>55.9</ele>
        <time>2016-04-03T07:56:25.170Z</time>
      </trkpt>
      <trkpt lat="47.22078" lon="-1.70006">
        <ele>55.9</ele>
        <time>2016-04-03T07:56:26.090Z</time>
      </trkpt>
      <trkpt lat="47.22072" lon="-1.69998">
        <ele>55.8</ele>
        <time>2016-04-03T07:56:35.173Z</time>
      </trkpt>
      <trkpt lat="47.22071" lon="-1.69996">
        <ele>55.8</ele>
        <time>2016-04-03T07:56:36.084Z</time>
      </trkpt>
      <trkpt lat="47.22065" lon="-1.69987">
        <ele>55.7</ele>
        <time>2016-04-03T07:56:44.224Z</time>
      </trkpt>
      <trkpt lat="47.22064" lon="-1.69986">
        <ele>55.7</ele>
        <time>2016-04-03T07:56:45.089Z</time>
      </trkpt>
      <trkpt lat="47.22058" lon="-1.69978">
        <ele>55.9</ele>
        <time>2016-04-03T07:56:53.152Z</time>
      </trkpt>
      <trkpt lat="47.22057" lon="-1.69977">
        <ele>56</ele>
        <time>2016-04-03T07:56:54.083Z</time>
      </trkpt>
      <trkpt lat="47.2205" lon="-1.69969">
        <ele>56</ele>
        <time>2016-04-03T07:56:59.180Z</time>
      </trkpt>
      <trkpt lat="47.22049" lon="-1.69967">
        <ele>55.9</ele>
        <time>2016-04-03T07:57:00.225Z</time>
      </trkpt>
      <trkpt lat="47.22054" lon="-1.69957">
        <ele>55.8</ele>
        <time>2016-04-03T07:57:09.226Z</time>
      </trkpt>
      <trkpt lat="47.22055" lon="-1.69956">
        <ele>55.8</ele>
        <time>2016-04-03T07:57:10.249Z</time>
      </trkpt>
      <trkpt lat="47.22061" lon="-1.69948">
        <ele>55.8</ele>
        <time>2016-04-03T07:57:17.159Z</time>
      </trkpt>
      <trkpt lat="47.22062" lon="-1.69946">
        <ele>55.7</ele>
        <time>2016-04-03T07:57:18.089Z</time>
      </trkpt>
      <trkpt lat="47.22066" lon="-1.69936">
        <ele>56</ele>
        <time>2016-04-03T07:57:24.199Z</time>
      </trkpt>
      <trkpt lat="47.22066" lon="-1.69934">
        <ele>56.1</ele>
        <time>2016-04-03T07:57:25.053Z</time>
      </trkpt>
      <trkpt lat="47.22069" lon="-1.69924">
        <ele>56.4</ele>
        <time>2016-04-03T07:57:30.092Z</time>
      </trkpt>
      <trkpt lat="47.22069" lon="-1.69921">
        <ele>56.5</ele>
        <time>2016-04-03T07:57:31.071Z</time>
      </trkpt>
      <trkpt lat="47.22072" lon="-1.69911">
        <ele>56.1</ele>
        <time>2016-04-03T07:57:37.511Z</time>
      </trkpt>
      <trkpt lat="47.22073" lon="-1.69908">
        <ele>56.1</ele>
        <time>2016-04-03T07:57:38.033Z</time>
      </trkpt>
      <trkpt lat="47.22075" lon="-1.69897">
        <ele>55.9</ele>
        <time>2016-04-03T07:57:43.095Z</time>
      </trkpt>
      <trkpt lat="47.22076" lon="-1.69895">
        <ele>55.8</ele>
        <time>2016-04-03T07:57:44.124Z</time>
      </trkpt>
      <trkpt lat="47.22079" lon="-1.69883">
        <ele>55.7</ele>
        <time>2016-04-03T07:57:50.176Z</time>
      </trkpt>
      <trkpt lat="47.2208" lon="-1.69881">
        <ele>55.7</ele>
        <time>2016-04-03T07:57:51.089Z</time>
      </trkpt>
      <trkpt lat="47.22084" lon="-1.69872">
        <ele>55.4</ele>
        <time>2016-04-03T07:57:56.102Z</time>
      </trkpt>
      <trkpt lat="47.22085" lon="-1.69869">
        <ele>55.4</ele>
        <time>2016-04-03T07:57:57.076Z</time>
      </trkpt>
      <trkpt lat="47.22089" lon="-1.69858">
        <ele>55.3</ele>
        <time>2016-04-03T07:58:04.164Z</time>
      </trkpt>
      <trkpt lat="47.22089" lon="-1.69856">
        <ele>55.3</ele>
        <time>2016-04-03T07:58:05.429Z</time>
      </trkpt>
      <trkpt lat="47.22092" lon="-1.69845">
        <ele>55.5</ele>
        <time>2016-04-03T07:58:11.223Z</time>
      </trkpt>
      <trkpt lat="47.22093" lon="-1.69843">
        <ele>55.5</ele>
        <time>2016-04-03T07:58:12.460Z</time>
      </trkpt>
      <trkpt lat="47.22098" lon="-1.69833">
        <ele>55.5</ele>
        <time>2016-04-03T07:58:18.184Z</time>
      </trkpt>
      <trkpt lat="47.22098" lon="-1.69831">
        <ele>55.5</ele>
        <time>2016-04-03T07:58:19.090Z</time>
      </trkpt>
      <trkpt lat="47.22102" lon="-1.6982">
        <ele>55.3</ele>
        <time>2016-04-03T07:58:25.188Z</time>
      </trkpt>
      <trkpt lat="47.22103" lon="-1.69818">
        <ele>55.3</ele>
        <time>2016-04-03T07:58:26.084Z</time>
      </trkpt>
      <trkpt lat="47.22108" lon="-1.69807">
        <ele>55.6</ele>
        <time>2016-04-03T07:58:33.162Z</time>
      </trkpt>
      <trkpt lat="47.22109" lon="-1.69806">
        <ele>55.6</ele>
        <time>2016-04-03T07:58:34.112Z</time>
      </trkpt>
      <trkpt lat="47.22114" lon="-1.69797">
        <ele>55.9</ele>
        <time>2016-04-03T07:58:39.173Z</time>
      </trkpt>
      <trkpt lat="47.22115" lon="-1.69795">
        <ele>56</ele>
        <time>2016-04-03T07:58:40.090Z</time>
      </trkpt>
      <trkpt lat="47.2212" lon="-1.69786">
        <ele>56</ele>
        <time>2016-04-03T07:58:47.111Z</time>
      </trkpt>
      <trkpt lat="47.22122" lon="-1.69784">
        <ele>56.1</ele>
        <time>2016-04-03T07:58:48.040Z</time>
      </trkpt>
      <trkpt lat="47.22127" lon="-1.69776">
        <ele>56</ele>
        <time>2016-04-03T07:58:52.553Z</time>
      </trkpt>
      <trkpt lat="47.22128" lon="-1.69774">
        <ele>56</ele>
        <time>2016-04-03T07:58:53.043Z</time>
      </trkpt>
      <trkpt lat="47.22133" lon="-1.69765">
        <ele>55.8</ele>
        <time>2016-04-03T07:58:59.190Z</time>
      </trkpt>
      <trkpt lat="47.22133" lon="-1.69764">
        <ele>55.9</ele>
        <time>2016-04-03T07:59:00.070Z</time>
      </trkpt>
      <trkpt lat="47.22138" lon="-1.69753">
        <ele>55.5</ele>
        <time>2016-04-03T07:59:06.606Z</time>
      </trkpt>
      <trkpt lat="47.22139" lon="-1.69752">
        <ele>55.5</ele>
        <time>2016-04-03T07:59:07.159Z</time>
      </trkpt>
      <trkpt lat="47.22143" lon="-1.69741">
        <ele>55.1</ele>
        <time>2016-04-03T07:59:14.483Z</time>
      </trkpt>
      <trkpt lat="47.22143" lon="-1.6974">
        <ele>55.1</ele>
        <time>2016-04-03T07:59:15.087Z</time>
      </trkpt>
      <trkpt lat="47.22147" lon="-1.69729">
        <ele>54.9</ele>
        <time>2016-04-03T07:59:20.202Z</time>
      </trkpt>
      <trkpt lat="47.22148" lon="-1.69727">
        <ele>54.9</ele>
        <time>2016-04-03T07:59:21.044Z</time>
      </trkpt>
      <trkpt lat="47.22152" lon="-1.69718">
        <ele>54.9</ele>
        <time>2016-04-03T07:59:27.094Z</time>
      </trkpt>
      <trkpt lat="47.22153" lon="-1.69717">
        <ele>55</ele>
        <time>2016-04-03T07:59:28.161Z</time>
      </trkpt>
      <trkpt lat="47.22159" lon="-1.69707">
        <ele>55.1</ele>
        <time>2016-04-03T07:59:33.211Z</time>
      </trkpt>
      <trkpt lat="47.22161" lon="-1.69705">
        <ele>55</ele>
        <time>2016-04-03T07:59:34.101Z</time>
      </trkpt>
      <trkpt lat="47.22166" lon="-1.69695">
        <ele>54.9</ele>
        <time>2016-04-03T07:59:41.142Z</time>
      </trkpt>
      <trkpt lat="47.22167" lon="-1.69694">
        <ele>55</ele>
        <time>2016-04-03T07:59:42.088Z</time>
      </trkpt>
      <trkpt lat="47.22174" lon="-1.69685">
        <ele>55.4</ele>
        <time>2016-04-03T07:59:48.138Z</time>
      </trkpt>
      <trkpt lat="47.22175" lon="-1.69684">
        <ele>55.5</ele>
        <time>2016-04-03T07:59:49.094Z</time>
      </trkpt>
      <trkpt lat="47.22179" lon="-1.69673">
        <ele>55.5</ele>
        <time>2016-04-03T07:59:55.084Z</time>
      </trkpt>
      <trkpt lat="47.2218" lon="-1.69671">
        <ele>55.4</ele>
        <time>2016-04-03T07:59:56.083Z</time>
      </trkpt>
      <trkpt lat="47.22184" lon="-1.6966">
        <ele>55.2</ele>
        <time>2016-04-03T08:00:02.151Z</time>
      </trkpt>
      <trkpt lat="47.22185" lon="-1.69659">
        <ele>55.2</ele>
        <time>2016-04-03T08:00:03.087Z</time>
      </trkpt>
      <trkpt lat="47.22188" lon="-1.69647">
        <ele>55</ele>
        <time>2016-04-03T08:00:09.285Z</time>
      </trkpt>
      <trkpt lat="47.22188" lon="-1.69645">
        <ele>55</ele>
        <time>2016-04-03T08:00:10.091Z</time>
      </trkpt>
      <trkpt lat="47.22189" lon="-1.69633">
        <ele>54.6</ele>
        <time>2016-04-03T08:00:16.169Z</time>
      </trkpt>
      <trkpt lat="47.22189" lon="-1.6963">
        <ele>54.6</ele>
        <time>2016-04-03T08:00:17.087Z</time>
      </trkpt>
      <trkpt lat="47.22189" lon="-1.69617">
        <ele>54.4</ele>
        <time>2016-04-03T08:00:24.309Z</time>
      </trkpt>
      <trkpt lat="47.22189" lon="-1.69615">
        <ele>54.4</ele>
        <time>2016-04-03T08:00:25.104Z</time>
      </trkpt>
      <trkpt lat="47.2219" lon="-1.69602">
        <ele>54.1</ele>
        <time>2016-04-03T08:00:31.184Z</time>
      </trkpt>
      <trkpt lat="47.2219" lon="-1.696">
        <ele>54.1</ele>
        <time>2016-04-03T08:00:32.090Z</time>
      </trkpt>
      <trkpt lat="47.22191" lon="-1.69589">
        <ele>53.9</ele>
        <time>2016-04-03T08:00:38.072Z</time>
      </trkpt>
      <trkpt lat="47.22192" lon="-1.69586">
        <ele>53.9</ele>
        <time>2016-04-03T08:00:39.068Z</time>
      </trkpt>
      <trkpt lat="47.22195" lon="-1.69574">
        <ele>53.8</ele>
        <time>2016-04-03T08:00:45.177Z</time>
      </trkpt>
      <trkpt lat="47.22196" lon="-1.69573">
        <ele>53.8</ele>
        <time>2016-04-03T08:00:46.052Z</time>
      </trkpt>
      <trkpt lat="47.22198" lon="-1.69562">
        <ele>53.6</ele>
        <time>2016-04-03T08:00:51.328Z</time>
      </trkpt>
      <trkpt lat="47.22199" lon="-1.6956">
        <ele>53.5</ele>
        <time>2016-04-03T08:00:52.068Z</time>
      </trkpt>
      <trkpt lat="47.22203" lon="-1.69549">
        <ele>53.2</ele>
        <time>2016-04-03T08:00:59.098Z</time>
      </trkpt>
      <trkpt lat="47.22203" lon="-1.69547">
        <ele>53.2</ele>
        <time>2016-04-03T08:01:00.188Z</time>
      </trkpt>
      <trkpt lat="47.22207" lon="-1.69536">
        <ele>53.1</ele>
        <time>2016-04-03T08:01:06.103Z</time>
      </trkpt>
      <trkpt lat="47.22207" lon="-1.69535">
        <ele>53.2</ele>
        <time>2016-04-03T08:01:07.078Z</time>
      </trkpt>
      <trkpt lat="47.22212" lon="-1.69524">
        <ele>53.6</ele>
        <time>2016-04-03T08:01:13.202Z</time>
      </trkpt>
      <trkpt lat="47.22212" lon="-1.69522">
        <ele>53.6</ele>
        <time>2016-04-03T08:01:14.092Z</time>
      </trkpt>
      <trkpt lat="47.22217" lon="-1.69511">
        <ele>53.9</ele>
        <time>2016-04-03T08:01:20.163Z</time>
      </trkpt>
      <trkpt lat="47.22218" lon="-1.69509">
        <ele>53.9</ele>
        <time>2016-04-03T08:01:21.090Z</time>
      </trkpt>
      <trkpt lat="47.22222" lon="-1.69498">
        <ele>54.1</ele>
        <time>2016-04-03T08:01:27.163Z</time>
      </trkpt>
      <trkpt lat="47.22222" lon="-1.69497">
        <ele>54.1</ele>
        <time>2016-04-03T08:01:28.089Z</time>
      </trkpt>
      <trkpt lat="47.22227" lon="-1.69486">
        <ele>54.2</ele>
        <time>2016-04-03T08:01:34.191Z</time>
      </trkpt>
      <trkpt lat="47.22228" lon="-1.69484">
        <ele>54.2</ele>
        <time>2016-04-03T08:01:35.082Z</time>
      </trkpt>
      <trkpt lat="47.22234" lon="-1.69476">
        <ele>54.3</ele>
        <time>2016-04-03T08:01:41.542Z</time>
      </trkpt>
      <trkpt lat="47.22235" lon="-1.69475">
        <ele>54.3</ele>
        <time>2016-04-03T08:01:42.038Z</time>
      </trkpt>
      <trkpt lat="47.22243" lon="-1.69472">
        <ele>54.5</ele>
        <time>2016-04-03T08:01:48.129Z</time>
      </trkpt>
      <trkpt lat="47.22245" lon="-1.69471">
        <ele>54.6</ele>
        <time>2016-04-03T08:01:49.178Z</time>
      </trkpt>
      <trkpt lat="47.22253" lon="-1.69469">
        <ele>54.5</ele>
        <time>2016-04-03T08:01:54.164Z</time>
      </trkpt>
      <trkpt lat="47.22254" lon="-1.69469">
        <ele>54.5</ele>
        <time>2016-04-03T08:01:55.099Z</time>
      </trkpt>
      <trkpt lat="47.22263" lon="-1.6947">
        <ele>54.9</ele>
        <time>2016-04-03T08:02:02.157Z</time>
      </trkpt>
      <trkpt lat="47.22265" lon="-1.69469">
        <ele>55</ele>
        <time>2016-04-03T08:02:03.091Z</time>
      </trkpt>
      <trkpt lat="47.22273" lon="-1.69467">
        <ele>55.1</ele>
        <time>2016-04-03T08:02:09.234Z</time>
      </trkpt>
      <trkpt lat="47.22274" lon="-1.69466">
        <ele>55.1</ele>
        <time>2016-04-03T08:02:10.038Z</time>
      </trkpt>
      <trkpt lat="47.22281" lon="-1.6946">
        <ele>55</ele>
        <time>2016-04-03T08:02:14.225Z</time>
      </trkpt>
      <trkpt lat="47.22282" lon="-1.69459">
        <ele>54.9</ele>
        <time>2016-04-03T08:02:15.088Z</time>
      </trkpt>
      <trkpt lat="47.22291" lon="-1.69456">
        <ele>55.2</ele>
        <time>2016-04-03T08:02:22.180Z</time>
      </trkpt>
      <trkpt lat="47.22292" lon="-1.69456">
        <ele>55.2</ele>
        <time>2016-04-03T08:02:23.088Z</time>
      </trkpt>
      <trkpt lat="47.22301" lon="-1.69457">
        <ele>55.2</ele>
        <time>2016-04-03T08:02:30.060Z</time>
      </trkpt>
      <trkpt lat="47.22302" lon="-1.69457">
        <ele>55.1</ele>
        <time>2016-04-03T08:02:31.096Z</time>
      </trkpt>
      <trkpt lat="47.22311" lon="-1.69456">
        <ele>55</ele>
        <time>2016-04-03T08:02:39.190Z</time>
      </trkpt>
      <trkpt lat="47.22312" lon="-1.69455">
        <ele>55.1</ele>
        <time>2016-04-03T08:02:40.079Z</time>
      </trkpt>
      <trkpt lat="47.2232" lon="-1.6945">
        <ele>55.9</ele>
        <time>2016-04-03T08:02:47.105Z</time>
      </trkpt>
      <trkpt lat="47.22322" lon="-1.69449">
        <ele>56.1</ele>
        <time>2016-04-03T08:02:48.066Z</time>
      </trkpt>
      <trkpt lat="47.22329" lon="-1.69446">
        <ele>56.9</ele>
        <time>2016-04-03T08:02:53.182Z</time>
      </trkpt>
      <trkpt lat="47.22331" lon="-1.69446">
        <ele>57</ele>
        <time>2016-04-03T08:02:54.091Z</time>
      </trkpt>
      <trkpt lat="47.2234" lon="-1.69447">
        <ele>57.3</ele>
        <time>2016-04-03T08:02:59.194Z</time>
      </trkpt>
      <trkpt lat="47.22341" lon="-1.69447">
        <ele>57.4</ele>
        <time>2016-04-03T08:03:00.226Z</time>
      </trkpt>
      <trkpt lat="47.2235" lon="-1.69449">
        <ele>57.5</ele>
        <time>2016-04-03T08:03:08.109Z</time>
      </trkpt>
      <trkpt lat="47.22351" lon="-1.69449">
        <ele>57.5</ele>
        <time>2016-04-03T08:03:09.177Z</time>
      </trkpt>
      <trkpt lat="47.2236" lon="-1.69447">
        <ele>56.9</ele>
        <time>2016-04-03T08:03:19.286Z</time>
      </trkpt>
      <trkpt lat="47.2236" lon="-1.69447">
        <ele>56.8</ele>
        <time>2016-04-03T08:03:20.080Z</time>
      </trkpt>
      <trkpt lat="47.22369" lon="-1.69451">
        <ele>56.5</ele>
        <time>2016-04-03T08:05:00.345Z</time>
      </trkpt>
      <trkpt lat="47.22369" lon="-1.69451">
        <ele>56.5</ele>
        <time>2016-04-03T08:05:01.037Z</time>
      </trkpt>
      <trkpt lat="47.22377" lon="-1.69454">
        <ele>56.5</ele>
        <time>2016-04-03T08:05:11.647Z</time>
      </trkpt>
      <trkpt lat="47.22378" lon="-1.69455">
        <ele>56.5</ele>
        <time>2016-04-03T08:05:12.056Z</time>
      </trkpt>
      <trkpt lat="47.22384" lon="-1.69464">
        <ele>56.1</ele>
        <time>2016-04-03T08:05:19.196Z</time>
      </trkpt>
      <trkpt lat="47.22385" lon="-1.69464">
        <ele>56.1</ele>
        <time>2016-04-03T08:05:20.081Z</time>
      </trkpt>
      <trkpt lat="47.22391" lon="-1.69473">
        <ele>56.1</ele>
        <time>2016-04-03T08:05:30.193Z</time>
      </trkpt>
      <trkpt lat="47.22393" lon="-1.69476">
        <ele>56.1</ele>
        <time>2016-04-03T08:05:31.119Z</time>
      </trkpt>
      <trkpt lat="47.224" lon="-1.69481">
        <ele>56.1</ele>
        <time>2016-04-03T08:05:36.197Z</time>
      </trkpt>
      <trkpt lat="47.22401" lon="-1.69481">
        <ele>56.1</ele>
        <time>2016-04-03T08:05:37.110Z</time>
      </trkpt>
      <trkpt lat="47.22406" lon="-1.69492">
        <ele>56.1</ele>
        <time>2016-04-03T08:05:59.193Z</time>
      </trkpt>
      <trkpt lat="47.22407" lon="-1.69493">
        <ele>56</ele>
        <time>2016-04-03T08:06:00.302Z</time>
      </trkpt>
      <trkpt lat="47.22412" lon="-1.69503">
        <ele>55.5</ele>
        <time>2016-04-03T08:06:08.180Z</time>
      </trkpt>
      <trkpt lat="47.22413" lon="-1.69504">
        <ele>55.5</ele>
        <time>2016-04-03T08:06:09.194Z</time>
      </trkpt>
      <trkpt lat="47.22418" lon="-1.69514">
        <ele>55.9</ele>
        <time>2016-04-03T08:06:15.144Z</time>
      </trkpt>
      <trkpt lat="47.22419" lon="-1.69515">
        <ele>56</ele>
        <time>2016-04-03T08:06:16.083Z</time>
      </trkpt>
      <trkpt lat="47.22425" lon="-1.69523">
        <ele>56.2</ele>
        <time>2016-04-03T08:06:21.626Z</time>
      </trkpt>
      <trkpt lat="47.22426" lon="-1.69525">
        <ele>56.2</ele>
        <time>2016-04-03T08:06:22.049Z</time>
      </trkpt>
      <trkpt lat="47.22431" lon="-1.69535">
        <ele>56.4</ele>
        <time>2016-04-03T08:06:27.212Z</time>
      </trkpt>
      <trkpt lat="47.22432" lon="-1.69537">
        <ele>56.4</ele>
        <time>2016-04-03T08:06:28.086Z</time>
      </trkpt>
      <trkpt lat="47.22436" lon="-1.69546">
        <ele>56.3</ele>
        <time>2016-04-03T08:06:33.203Z</time>
      </trkpt>
      <trkpt lat="47.22437" lon="-1.69548">
        <ele>56.4</ele>
        <time>2016-04-03T08:06:34.238Z</time>
      </trkpt>
      <trkpt lat="47.22442" lon="-1.69558">
        <ele>56.5</ele>
        <time>2016-04-03T08:06:39.133Z</time>
      </trkpt>
      <trkpt lat="47.22443" lon="-1.6956">
        <ele>56.4</ele>
        <time>2016-04-03T08:06:40.119Z</time>
      </trkpt>
      <trkpt lat="47.22449" lon="-1.6957">
        <ele>56.1</ele>
        <time>2016-04-03T08:06:47.212Z</time>
      </trkpt>
      <trkpt lat="47.2245" lon="-1.69571">
        <ele>56</ele>
        <time>2016-04-03T08:06:48.113Z</time>
      </trkpt>
      <trkpt lat="47.22456" lon="-1.69581">
        <ele>55.7</ele>
        <time>2016-04-03T08:06:53.204Z</time>
      </trkpt>
      <trkpt lat="47.22457" lon="-1.69582">
        <ele>55.7</ele>
        <time>2016-04-03T08:06:54.115Z</time>
      </trkpt>
      <trkpt lat="47.22463" lon="-1.6959">
        <ele>55.6</ele>
        <time>2016-04-03T08:07:03.183Z</time>
      </trkpt>
      <trkpt lat="47.22464" lon="-1.69592">
        <ele>55.6</ele>
        <time>2016-04-03T08:07:04.102Z</time>
      </trkpt>
      <trkpt lat="47.22469" lon="-1.696">
        <ele>55.3</ele>
        <time>2016-04-03T08:07:09.321Z</time>
      </trkpt>
      <trkpt lat="47.2247" lon="-1.69602">
        <ele>55.2</ele>
        <time>2016-04-03T08:07:10.110Z</time>
      </trkpt>
      <trkpt lat="47.22476" lon="-1.6961">
        <ele>55.2</ele>
        <time>2016-04-03T08:07:15.196Z</time>
      </trkpt>
      <trkpt lat="47.22477" lon="-1.69611">
        <ele>55.1</ele>
        <time>2016-04-03T08:07:16.097Z</time>
      </trkpt>
      <trkpt lat="47.22482" lon="-1.6962">
        <ele>54.8</ele>
        <time>2016-04-03T08:07:22.606Z</time>
      </trkpt>
      <trkpt lat="47.22483" lon="-1.69621">
        <ele>54.8</ele>
        <time>2016-04-03T08:07:23.049Z</time>
      </trkpt>
      <trkpt lat="47.2249" lon="-1.6963">
        <ele>54.8</ele>
        <time>2016-04-03T08:07:30.221Z</time>
      </trkpt>
      <trkpt lat="47.22491" lon="-1.69632">
        <ele>54.8</ele>
        <time>2016-04-03T08:07:31.103Z</time>
      </trkpt>
      <trkpt lat="47.22497" lon="-1.69639">
        <ele>54.8</ele>
        <time>2016-04-03T08:07:36.183Z</time>
      </trkpt>
      <trkpt lat="47.22498" lon="-1.69641">
        <ele>54.8</ele>
        <time>2016-04-03T08:07:37.085Z</time>
      </trkpt>
      <trkpt lat="47.22504" lon="-1.6965">
        <ele>55</ele>
        <time>2016-04-03T08:07:41.189Z</time>
      </trkpt>
      <trkpt lat="47.22505" lon="-1.69653">
        <ele>55</ele>
        <time>2016-04-03T08:07:42.099Z</time>
      </trkpt>
      <trkpt lat="47.22509" lon="-1.69663">
        <ele>55.2</ele>
        <time>2016-04-03T08:07:48.247Z</time>
      </trkpt>
      <trkpt lat="47.2251" lon="-1.69665">
        <ele>55.3</ele>
        <time>2016-04-03T08:07:49.104Z</time>
      </trkpt>
      <trkpt lat="47.22513" lon="-1.69677">
        <ele>55.5</ele>
        <time>2016-04-03T08:07:56.506Z</time>
      </trkpt>
      <trkpt lat="47.22513" lon="-1.69678">
        <ele>55.6</ele>
        <time>2016-04-03T08:07:57.099Z</time>
      </trkpt>
      <trkpt lat="47.22516" lon="-1.6969">
        <ele>55.7</ele>
        <time>2016-04-03T08:08:03.180Z</time>
      </trkpt>
      <trkpt lat="47.22516" lon="-1.69692">
        <ele>55.6</ele>
        <time>2016-04-03T08:08:04.097Z</time>
      </trkpt>
      <trkpt lat="47.2252" lon="-1.69703">
        <ele>55.7</ele>
        <time>2016-04-03T08:08:10.139Z</time>
      </trkpt>
      <trkpt lat="47.2252" lon="-1.69704">
        <ele>55.8</ele>
        <time>2016-04-03T08:08:11.062Z</time>
      </trkpt>
      <trkpt lat="47.2252" lon="-1.69718">
        <ele>56.9</ele>
        <time>2016-04-03T08:08:23.246Z</time>
      </trkpt>
      <trkpt lat="47.2252" lon="-1.69718">
        <ele>57</ele>
        <time>2016-04-03T08:08:24.104Z</time>
      </trkpt>
      <trkpt lat="47.22525" lon="-1.69729">
        <ele>57.2</ele>
        <time>2016-04-03T08:08:50.068Z</time>
      </trkpt>
      <trkpt lat="47.22525" lon="-1.6973">
        <ele>57.1</ele>
        <time>2016-04-03T08:08:51.039Z</time>
      </trkpt>
      <trkpt lat="47.22528" lon="-1.6974">
        <ele>56.9</ele>
        <time>2016-04-03T08:08:56.181Z</time>
      </trkpt>
      <trkpt lat="47.22529" lon="-1.69743">
        <ele>56.8</ele>
        <time>2016-04-03T08:08:57.035Z</time>
      </trkpt>
      <trkpt lat="47.22532" lon="-1.69754">
        <ele>56.5</ele>
        <time>2016-04-03T08:09:02.131Z</time>
      </trkpt>
      <trkpt lat="47.22533" lon="-1.69756">
        <ele>56.4</ele>
        <time>2016-04-03T08:09:03.081Z</time>
      </trkpt>
      <trkpt lat="47.22536" lon="-1.69767">
        <ele>56</ele>
        <time>2016-04-03T08:09:10.194Z</time>
      </trkpt>
      <trkpt lat="47.22537" lon="-1.69769">
        <ele>56</ele>
        <time>2016-04-03T08:09:11.050Z</time>
      </trkpt>
      <trkpt lat="47.22542" lon="-1.6978">
        <ele>55.6</ele>
        <time>2016-04-03T08:09:20.175Z</time>
      </trkpt>
      <trkpt lat="47.22542" lon="-1.69781">
        <ele>55.7</ele>
        <time>2016-04-03T08:09:21.164Z</time>
      </trkpt>
      <trkpt lat="47.22546" lon="-1.69793">
        <ele>56</ele>
        <time>2016-04-03T08:09:29.185Z</time>
      </trkpt>
      <trkpt lat="47.22546" lon="-1.69794">
        <ele>56.1</ele>
        <time>2016-04-03T08:09:30.101Z</time>
      </trkpt>
      <trkpt lat="47.2255" lon="-1.69806">
        <ele>56</ele>
        <time>2016-04-03T08:09:36.615Z</time>
      </trkpt>
      <trkpt lat="47.2255" lon="-1.69807">
        <ele>56</ele>
        <time>2016-04-03T08:09:37.060Z</time>
      </trkpt>
      <trkpt lat="47.22553" lon="-1.69817">
        <ele>55.9</ele>
        <time>2016-04-03T08:09:48.131Z</time>
      </trkpt>
      <trkpt lat="47.22555" lon="-1.69821">
        <ele>55.8</ele>
        <time>2016-04-03T08:09:49.106Z</time>
      </trkpt>
      <trkpt lat="47.22558" lon="-1.6983">
        <ele>55.7</ele>
        <time>2016-04-03T08:09:53.156Z</time>
      </trkpt>
      <trkpt lat="47.22559" lon="-1.69832">
        <ele>55.7</ele>
        <time>2016-04-03T08:09:54.102Z</time>
      </trkpt>
      <trkpt lat="47.22564" lon="-1.69842">
        <ele>55.5</ele>
        <time>2016-04-03T08:09:58.101Z</time>
      </trkpt>
      <trkpt lat="47.22565" lon="-1.69845">
        <ele>55.5</ele>
        <time>2016-04-03T08:09:59.107Z</time>
      </trkpt>
      <trkpt lat="47.2257" lon="-1.69856">
        <ele>55.4</ele>
        <time>2016-04-03T08:10:03.167Z</time>
      </trkpt>
      <trkpt lat="47.22571" lon="-1.69858">
        <ele>55.4</ele>
        <time>2016-04-03T08:10:04.101Z</time>
      </trkpt>
      <trkpt lat="47.22575" lon="-1.69868">
        <ele>55.8</ele>
        <time>2016-04-03T08:10:10.198Z</time>
      </trkpt>
      <trkpt lat="47.22576" lon="-1.6987">
        <ele>55.9</ele>
        <time>2016-04-03T08:10:11.058Z</time>
      </trkpt>
      <trkpt lat="47.22582" lon="-1.6988">
        <ele>56.2</ele>
        <time>2016-04-03T08:10:17.217Z</time>
      </trkpt>
      <trkpt lat="47.22583" lon="-1.69882">
        <ele>56.1</ele>
        <time>2016-04-03T08:10:18.190Z</time>
      </trkpt>
      <trkpt lat="47.22589" lon="-1.69891">
        <ele>55.9</ele>
        <time>2016-04-03T08:10:25.183Z</time>
      </trkpt>
      <trkpt lat="47.2259" lon="-1.69892">
        <ele>56</ele>
        <time>2016-04-03T08:10:26.099Z</time>
      </trkpt>
      <trkpt lat="47.22596" lon="-1.69901">
        <ele>56.3</ele>
        <time>2016-04-03T08:10:33.254Z</time>
      </trkpt>
      <trkpt lat="47.22597" lon="-1.69902">
        <ele>56.3</ele>
        <time>2016-04-03T08:10:34.092Z</time>
      </trkpt>
      <trkpt lat="47.22603" lon="-1.69909">
        <ele>56.3</ele>
        <time>2016-04-03T08:10:42.163Z</time>
      </trkpt>
      <trkpt lat="47.22604" lon="-1.6991">
        <ele>56.3</ele>
        <time>2016-04-03T08:10:43.109Z</time>
      </trkpt>
      <trkpt lat="47.22611" lon="-1.69918">
        <ele>56.5</ele>
        <time>2016-04-03T08:10:48.203Z</time>
      </trkpt>
      <trkpt lat="47.22612" lon="-1.69919">
        <ele>56.5</ele>
        <time>2016-04-03T08:10:49.108Z</time>
      </trkpt>
      <trkpt lat="47.22618" lon="-1.69928">
        <ele>56.7</ele>
        <time>2016-04-03T08:10:55.207Z</time>
      </trkpt>
      <trkpt lat="47.22619" lon="-1.6993">
        <ele>56.7</ele>
        <time>2016-04-03T08:10:56.091Z</time>
      </trkpt>
      <trkpt lat="47.22624" lon="-1.69939">
        <ele>57</ele>
        <time>2016-04-03T08:11:01.146Z</time>
      </trkpt>
      <trkpt lat="47.22625" lon="-1.6994">
        <ele>57.1</ele>
        <time>2016-04-03T08:11:02.042Z</time>
      </trkpt>
      <trkpt lat="47.22631" lon="-1.69949">
        <ele>57.4</ele>
        <time>2016-04-03T08:11:08.115Z</time>
      </trkpt>
      <trkpt lat="47.22632" lon="-1.6995">
        <ele>57.4</ele>
        <time>2016-04-03T08:11:09.062Z</time>
      </trkpt>
      <trkpt lat="47.22637" lon="-1.69959">
        <ele>57.4</ele>
        <time>2016-04-03T08:11:15.119Z</time>
      </trkpt>
      <trkpt lat="47.22637" lon="-1.69961">
        <ele>57.4</ele>
        <time>2016-04-03T08:11:16.098Z</time>
      </trkpt>
      <trkpt lat="47.22643" lon="-1.6997">
        <ele>57.4</ele>
        <time>2016-04-03T08:11:23.133Z</time>
      </trkpt>
      <trkpt lat="47.22644" lon="-1.69972">
        <ele>57.4</ele>
        <time>2016-04-03T08:11:24.103Z</time>
      </trkpt>
      <trkpt lat="47.22648" lon="-1.69981">
        <ele>57.2</ele>
        <time>2016-04-03T08:11:29.197Z</time>
      </trkpt>
      <trkpt lat="47.2265" lon="-1.69983">
        <ele>57</ele>
        <time>2016-04-03T08:11:30.096Z</time>
      </trkpt>
      <trkpt lat="47.22655" lon="-1.69992">
        <ele>56.8</ele>
        <time>2016-04-03T08:11:35.205Z</time>
      </trkpt>
      <trkpt lat="47.22656" lon="-1.69994">
        <ele>56.8</ele>
        <time>2016-04-03T08:11:36.094Z</time>
      </trkpt>
      <trkpt lat="47.22661" lon="-1.70003">
        <ele>56.4</ele>
        <time>2016-04-03T08:11:43.151Z</time>
      </trkpt>
      <trkpt lat="47.22662" lon="-1.70004">
        <ele>56.3</ele>
        <time>2016-04-03T08:11:44.097Z</time>
      </trkpt>
      <trkpt lat="47.22669" lon="-1.70011">
        <ele>56.1</ele>
        <time>2016-04-03T08:11:50.193Z</time>
      </trkpt>
      <trkpt lat="47.22671" lon="-1.70011">
        <ele>56.1</ele>
        <time>2016-04-03T08:11:51.102Z</time>
      </trkpt>
      <trkpt lat="47.22677" lon="-1.70001">
        <ele>56</ele>
        <time>2016-04-03T08:11:59.196Z</time>
      </trkpt>
      <trkpt lat="47.22677" lon="-1.69999">
        <ele>55.9</ele>
        <time>2016-04-03T08:12:00.127Z</time>
      </trkpt>
      <trkpt lat="47.22678" lon="-1.69986">
        <ele>55.9</ele>
        <time>2016-04-03T08:12:06.234Z</time>
      </trkpt>
      <trkpt lat="47.22678" lon="-1.69984">
        <ele>55.8</ele>
        <time>2016-04-03T08:12:07.049Z</time>
      </trkpt>
      <trkpt lat="47.22679" lon="-1.69973">
        <ele>55.7</ele>
        <time>2016-04-03T08:12:11.184Z</time>
      </trkpt>
      <trkpt lat="47.22679" lon="-1.69971">
        <ele>55.6</ele>
        <time>2016-04-03T08:12:12.165Z</time>
      </trkpt>
      <trkpt lat="47.22679" lon="-1.69959">
        <ele>55.2</ele>
        <time>2016-04-03T08:12:18.176Z</time>
      </trkpt>
      <trkpt lat="47.22679" lon="-1.69957">
        <ele>55.1</ele>
        <time>2016-04-03T08:12:19.098Z</time>
      </trkpt>
      <trkpt lat="47.22679" lon="-1.69944">
        <ele>54.9</ele>
        <time>2016-04-03T08:12:25.246Z</time>
      </trkpt>
      <trkpt lat="47.2268" lon="-1.69942">
        <ele>54.8</ele>
        <time>2016-04-03T08:12:26.099Z</time>
      </trkpt>
      <trkpt lat="47.2268" lon="-1.6993">
        <ele>54.6</ele>
        <time>2016-04-03T08:12:32.537Z</time>
      </trkpt>
      <trkpt lat="47.2268" lon="-1.69927">
        <ele>54.6</ele>
        <time>2016-04-03T08:12:33.173Z</time>
      </trkpt>
      <trkpt lat="47.22681" lon="-1.69915">
        <ele>54.4</ele>
        <time>2016-04-03T08:12:40.142Z</time>
      </trkpt>
      <trkpt lat="47.22681" lon="-1.69913">
        <ele>54.4</ele>
        <time>2016-04-03T08:12:41.054Z</time>
      </trkpt>
      <trkpt lat="47.2268" lon="-1.699">
        <ele>54.9</ele>
        <time>2016-04-03T08:12:47.179Z</time>
      </trkpt>
      <trkpt lat="47.22679" lon="-1.69898">
        <ele>55</ele>
        <time>2016-04-03T08:12:48.096Z</time>
      </trkpt>
      <trkpt lat="47.22678" lon="-1.69887">
        <ele>55.6</ele>
        <time>2016-04-03T08:12:53.229Z</time>
      </trkpt>
      <trkpt lat="47.22678" lon="-1.69885">
        <ele>55.7</ele>
        <time>2016-04-03T08:12:54.109Z</time>
      </trkpt>
      <trkpt lat="47.22676" lon="-1.69872">
        <ele>55.7</ele>
        <time>2016-04-03T08:13:01.265Z</time>
      </trkpt>
      <trkpt lat="47.22676" lon="-1.6987">
        <ele>55.6</ele>
        <time>2016-04-03T08:13:02.050Z</time>
      </trkpt>
      <trkpt lat="47.22674" lon="-1.69857">
        <ele>55.6</ele>
        <time>2016-04-03T08:13:09.263Z</time>
      </trkpt>
      <trkpt lat="47.22673" lon="-1.69855">
        <ele>55.5</ele>
        <time>2016-04-03T08:13:10.099Z</time>
      </trkpt>
      <trkpt lat="47.22671" lon="-1.69843">
        <ele>55.7</ele>
        <time>2016-04-03T08:13:17.205Z</time>
      </trkpt>
      <trkpt lat="47.22671" lon="-1.69841">
        <ele>55.8</ele>
        <time>2016-04-03T08:13:18.098Z</time>
      </trkpt>
      <trkpt lat="47.22669" lon="-1.69828">
        <ele>56.4</ele>
        <time>2016-04-03T08:13:26.248Z</time>
      </trkpt>
      <trkpt lat="47.22669" lon="-1.69827">
        <ele>56.5</ele>
        <time>2016-04-03T08:13:27.098Z</time>
      </trkpt>
      <trkpt lat="47.22666" lon="-1.69815">
        <ele>57.2</ele>
        <time>2016-04-03T08:13:35.146Z</time>
      </trkpt>
      <trkpt lat="47.22666" lon="-1.69812">
        <ele>57.4</ele>
        <time>2016-04-03T08:13:36.057Z</time>
      </trkpt>
      <trkpt lat="47.22665" lon="-1.69802">
        <ele>57.6</ele>
        <time>2016-04-03T08:13:39.113Z</time>
      </trkpt>
      <trkpt lat="47.22665" lon="-1.69799">
        <ele>57.7</ele>
        <time>2016-04-03T08:13:40.056Z</time>
      </trkpt>
      <trkpt lat="47.22663" lon="-1.69787">
        <ele>58.2</ele>
        <time>2016-04-03T08:13:44.184Z</time>
      </trkpt>
      <trkpt lat="47.22663" lon="-1.69785">
        <ele>58.3</ele>
        <time>2016-04-03T08:13:45.095Z</time>
      </trkpt>
      <trkpt lat="47.22663" lon="-1.69773">
        <ele>59</ele>
        <time>2016-04-03T08:13:50.360Z</time>
      </trkpt>
      <trkpt lat="47.22663" lon="-1.69771">
        <ele>59.1</ele>
        <time>2016-04-03T08:13:51.071Z</time>
      </trkpt>
      <trkpt lat="47.22662" lon="-1.6976">
        <ele>59.5</ele>
        <time>2016-04-03T08:13:57.086Z</time>
      </trkpt>
      <trkpt lat="47.22662" lon="-1.69757">
        <ele>59.6</ele>
        <time>2016-04-03T08:13:58.102Z</time>
      </trkpt>
      <trkpt lat="47.22661" lon="-1.69746">
        <ele>59.7</ele>
        <time>2016-04-03T08:14:03.199Z</time>
      </trkpt>
      <trkpt lat="47.22661" lon="-1.69744">
        <ele>59.7</ele>
        <time>2016-04-03T08:14:04.111Z</time>
      </trkpt>
      <trkpt lat="47.22661" lon="-1.6973">
        <ele>60.2</ele>
        <time>2016-04-03T08:14:11.180Z</time>
      </trkpt>
      <trkpt lat="47.22661" lon="-1.69728">
        <ele>60.3</ele>
        <time>2016-04-03T08:14:12.121Z</time>
      </trkpt>
      <trkpt lat="47.22661" lon="-1.69716">
        <ele>60.7</ele>
        <time>2016-04-03T08:14:17.260Z</time>
      </trkpt>
      <trkpt lat="47.22661" lon="-1.69714">
        <ele>60.7</ele>
        <time>2016-04-03T08:14:18.103Z</time>
      </trkpt>
      <trkpt lat="47.2266" lon="-1.69701">
        <ele>60.8</ele>
        <time>2016-04-03T08:14:24.103Z</time>
      </trkpt>
      <trkpt lat="47.2266" lon="-1.69699">
        <ele>60.8</ele>
        <time>2016-04-03T08:14:25.041Z</time>
      </trkpt>
      <trkpt lat="47.22659" lon="-1.69688">
        <ele>60.5</ele>
        <time>2016-04-03T08:14:30.152Z</time>
      </trkpt>
      <trkpt lat="47.22658" lon="-1.69685">
        <ele>60.4</ele>
        <time>2016-04-03T08:14:31.102Z</time>
      </trkpt>
      <trkpt lat="47.22655" lon="-1.69674">
        <ele>59.8</ele>
        <time>2016-04-03T08:14:37.119Z</time>
      </trkpt>
      <trkpt lat="47.22654" lon="-1.69673">
        <ele>59.7</ele>
        <time>2016-04-03T08:14:38.105Z</time>
      </trkpt>
      <trkpt lat="47.22651" lon="-1.69661">
        <ele>59.5</ele>
        <time>2016-04-03T08:14:44.197Z</time>
      </trkpt>
      <trkpt lat="47.22651" lon="-1.6966">
        <ele>59.5</ele>
        <time>2016-04-03T08:14:45.101Z</time>
      </trkpt>
      <trkpt lat="47.22647" lon="-1.69648">
        <ele>59.6</ele>
        <time>2016-04-03T08:14:51.177Z</time>
      </trkpt>
      <trkpt lat="47.22646" lon="-1.69646">
        <ele>59.6</ele>
        <time>2016-04-03T08:14:52.107Z</time>
      </trkpt>
      <trkpt lat="47.22643" lon="-1.69636">
        <ele>59.3</ele>
        <time>2016-04-03T08:14:57.183Z</time>
      </trkpt>
      <trkpt lat="47.22642" lon="-1.69634">
        <ele>59.2</ele>
        <time>2016-04-03T08:14:58.107Z</time>
      </trkpt>
      <trkpt lat="47.22638" lon="-1.69622">
        <ele>59</ele>
        <time>2016-04-03T08:15:04.134Z</time>
      </trkpt>
      <trkpt lat="47.22637" lon="-1.69621">
        <ele>58.9</ele>
        <time>2016-04-03T08:15:05.056Z</time>
      </trkpt>
      <trkpt lat="47.22633" lon="-1.6961">
        <ele>58.2</ele>
        <time>2016-04-03T08:15:13.113Z</time>
      </trkpt>
      <trkpt lat="47.22633" lon="-1.69608">
        <ele>58.1</ele>
        <time>2016-04-03T08:15:14.065Z</time>
      </trkpt>
      <trkpt lat="47.22628" lon="-1.69597">
        <ele>57.6</ele>
        <time>2016-04-03T08:15:21.173Z</time>
      </trkpt>
      <trkpt lat="47.22627" lon="-1.69596">
        <ele>57.5</ele>
        <time>2016-04-03T08:15:22.094Z</time>
      </trkpt>
      <trkpt lat="47.22624" lon="-1.69585">
        <ele>57.1</ele>
        <time>2016-04-03T08:15:27.345Z</time>
      </trkpt>
      <trkpt lat="47.22623" lon="-1.69583">
        <ele>57</ele>
        <time>2016-04-03T08:15:28.093Z</time>
      </trkpt>
      <trkpt lat="47.22618" lon="-1.69573">
        <ele>56.8</ele>
        <time>2016-04-03T08:15:36.170Z</time>
      </trkpt>
      <trkpt lat="47.22616" lon="-1.6957">
        <ele>56.9</ele>
        <time>2016-04-03T08:15:37.100Z</time>
      </trkpt>
      <trkpt lat="47.22611" lon="-1.69561">
        <ele>57.3</ele>
        <time>2016-04-03T08:15:44.103Z</time>
      </trkpt>
      <trkpt lat="47.2261" lon="-1.69559">
        <ele>57.5</ele>
        <time>2016-04-03T08:15:45.094Z</time>
      </trkpt>
      <trkpt lat="47.22606" lon="-1.69548">
        <ele>57.9</ele>
        <time>2016-04-03T08:15:51.456Z</time>
      </trkpt>
      <trkpt lat="47.22606" lon="-1.69547">
        <ele>57.9</ele>
        <time>2016-04-03T08:15:52.086Z</time>
      </trkpt>
      <trkpt lat="47.22603" lon="-1.69535">
        <ele>57.8</ele>
        <time>2016-04-03T08:15:56.163Z</time>
      </trkpt>
      <trkpt lat="47.22602" lon="-1.69533">
        <ele>57.7</ele>
        <time>2016-04-03T08:15:57.093Z</time>
      </trkpt>
      <trkpt lat="47.22599" lon="-1.69522">
        <ele>57.2</ele>
        <time>2016-04-03T08:16:04.171Z</time>
      </trkpt>
      <trkpt lat="47.22597" lon="-1.69521">
        <ele>57.2</ele>
        <time>2016-04-03T08:16:05.044Z</time>
      </trkpt>
      <trkpt lat="47.22593" lon="-1.6951">
        <ele>57.2</ele>
        <time>2016-04-03T08:16:10.086Z</time>
      </trkpt>
      <trkpt lat="47.22592" lon="-1.69509">
        <ele>57.2</ele>
        <time>2016-04-03T08:16:11.089Z</time>
      </trkpt>
      <trkpt lat="47.22588" lon="-1.69498">
        <ele>57.3</ele>
        <time>2016-04-03T08:16:17.126Z</time>
      </trkpt>
      <trkpt lat="47.22588" lon="-1.69495">
        <ele>57.4</ele>
        <time>2016-04-03T08:16:18.079Z</time>
      </trkpt>
      <trkpt lat="47.22585" lon="-1.69485">
        <ele>57.7</ele>
        <time>2016-04-03T08:16:23.156Z</time>
      </trkpt>
      <trkpt lat="47.22584" lon="-1.69482">
        <ele>57.9</ele>
        <time>2016-04-03T08:16:24.099Z</time>
      </trkpt>
      <trkpt lat="47.22581" lon="-1.69472">
        <ele>58</ele>
        <time>2016-04-03T08:16:29.199Z</time>
      </trkpt>
      <trkpt lat="47.2258" lon="-1.6947">
        <ele>58</ele>
        <time>2016-04-03T08:16:30.232Z</time>
      </trkpt>
      <trkpt lat="47.22576" lon="-1.69459">
        <ele>58.2</ele>
        <time>2016-04-03T08:16:35.191Z</time>
      </trkpt>
      <trkpt lat="47.22575" lon="-1.69458">
        <ele>58.3</ele>
        <time>2016-04-03T08:16:36.100Z</time>
      </trkpt>
      <trkpt lat="47.22571" lon="-1.69448">
        <ele>58.7</ele>
        <time>2016-04-03T08:16:42.240Z</time>
      </trkpt>
      <trkpt lat="47.22571" lon="-1.69446">
        <ele>58.7</ele>
        <time>2016-04-03T08:16:43.094Z</time>
      </trkpt>
      <trkpt lat="47.22569" lon="-1.69434">
        <ele>59.3</ele>
        <time>2016-04-03T08:16:51.231Z</time>
      </trkpt>
      <trkpt lat="47.22569" lon="-1.69431">
        <ele>59.3</ele>
        <time>2016-04-03T08:16:52.100Z</time>
      </trkpt>
      <trkpt lat="47.22569" lon="-1.69419">
        <ele>59.7</ele>
        <time>2016-04-03T08:16:59.185Z</time>
      </trkpt>
      <trkpt lat="47.22569" lon="-1.69417">
        <ele>59.8</ele>
        <time>2016-04-03T08:17:00.097Z</time>
      </trkpt>
      <trkpt lat="47.2257" lon="-1.69406">
        <ele>60.2</ele>
        <time>2016-04-03T08:17:05.415Z</time>
      </trkpt>
      <trkpt lat="47.2257" lon="-1.69403">
        <ele>60.3</ele>
        <time>2016-04-03T08:17:06.055Z</time>
      </trkpt>
      <trkpt lat="47.2257" lon="-1.69392">
        <ele>60.5</ele>
        <time>2016-04-03T08:17:13.192Z</time>
      </trkpt>
      <trkpt lat="47.2257" lon="-1.6939">
        <ele>60.5</ele>
        <time>2016-04-03T08:17:14.096Z</time>
      </trkpt>
      <trkpt lat="47.22571" lon="-1.69376">
        <ele>60.9</ele>
        <time>2016-04-03T08:17:21.251Z</time>
      </trkpt>
      <trkpt lat="47.22571" lon="-1.69375">
        <ele>61</ele>
        <time>2016-04-03T08:17:22.095Z</time>
      </trkpt>
      <trkpt lat="47.22571" lon="-1.69363">
        <ele>61.7</ele>
        <time>2016-04-03T08:17:28.178Z</time>
      </trkpt>
      <trkpt lat="47.22571" lon="-1.69361">
        <ele>61.8</ele>
        <time>2016-04-03T08:17:29.062Z</time>
      </trkpt>
      <trkpt lat="47.22572" lon="-1.6935">
        <ele>62.5</ele>
        <time>2016-04-03T08:17:36.109Z</time>
      </trkpt>
      <trkpt lat="47.22573" lon="-1.69348">
        <ele>62.6</ele>
        <time>2016-04-03T08:17:37.041Z</time>
      </trkpt>
      <trkpt lat="47.22574" lon="-1.69335">
        <ele>63.9</ele>
        <time>2016-04-03T08:18:01.049Z</time>
      </trkpt>
      <trkpt lat="47.22575" lon="-1.69335">
        <ele>63.9</ele>
        <time>2016-04-03T08:18:02.106Z</time>
      </trkpt>
      <trkpt lat="47.22583" lon="-1.69337">
        <ele>64.4</ele>
        <time>2016-04-03T08:18:25.804Z</time>
      </trkpt>
      <trkpt lat="47.22584" lon="-1.69337">
        <ele>64.4</ele>
        <time>2016-04-03T08:18:26.030Z</time>
      </trkpt>
      <trkpt lat="47.22593" lon="-1.6934">
        <ele>64.8</ele>
        <time>2016-04-03T08:18:33.102Z</time>
      </trkpt>
      <trkpt lat="47.22594" lon="-1.69341">
        <ele>64.8</ele>
        <time>2016-04-03T08:18:34.063Z</time>
      </trkpt>
      <trkpt lat="47.22602" lon="-1.69345">
        <ele>65.2</ele>
        <time>2016-04-03T08:18:41.103Z</time>
      </trkpt>
      <trkpt lat="47.22603" lon="-1.69345">
        <ele>65.3</ele>
        <time>2016-04-03T08:18:42.044Z</time>
      </trkpt>
      <trkpt lat="47.22611" lon="-1.69352">
        <ele>65.5</ele>
        <time>2016-04-03T08:18:51.330Z</time>
      </trkpt>
      <trkpt lat="47.22611" lon="-1.69353">
        <ele>65.5</ele>
        <time>2016-04-03T08:18:52.055Z</time>
      </trkpt>
      <trkpt lat="47.2262" lon="-1.69351">
        <ele>65.3</ele>
        <time>2016-04-03T08:18:58.130Z</time>
      </trkpt>
      <trkpt lat="47.22621" lon="-1.69351">
        <ele>65.4</ele>
        <time>2016-04-03T08:18:59.075Z</time>
      </trkpt>
      <trkpt lat="47.22628" lon="-1.69347">
        <ele>65.5</ele>
        <time>2016-04-03T08:19:06.162Z</time>
      </trkpt>
      <trkpt lat="47.22629" lon="-1.69346">
        <ele>65.5</ele>
        <time>2016-04-03T08:19:07.452Z</time>
      </trkpt>
      <trkpt lat="47.22636" lon="-1.69338">
        <ele>65.5</ele>
        <time>2016-04-03T08:19:15.236Z</time>
      </trkpt>
      <trkpt lat="47.22637" lon="-1.69337">
        <ele>65.5</ele>
        <time>2016-04-03T08:19:16.059Z</time>
      </trkpt>
      <trkpt lat="47.22643" lon="-1.69329">
        <ele>65.6</ele>
        <time>2016-04-03T08:19:22.425Z</time>
      </trkpt>
      <trkpt lat="47.22644" lon="-1.69328">
        <ele>65.6</ele>
        <time>2016-04-03T08:19:23.057Z</time>
      </trkpt>
      <trkpt lat="47.22653" lon="-1.69329">
        <ele>65.9</ele>
        <time>2016-04-03T08:19:34.119Z</time>
      </trkpt>
      <trkpt lat="47.22654" lon="-1.6933">
        <ele>65.9</ele>
        <time>2016-04-03T08:19:35.101Z</time>
      </trkpt>
      <trkpt lat="47.22661" lon="-1.69338">
        <ele>65.9</ele>
        <time>2016-04-03T08:19:44.484Z</time>
      </trkpt>
      <trkpt lat="47.22661" lon="-1.69339">
        <ele>65.9</ele>
        <time>2016-04-03T08:19:45.046Z</time>
      </trkpt>
      <trkpt lat="47.22663" lon="-1.69351">
        <ele>66.4</ele>
        <time>2016-04-03T08:19:55.185Z</time>
      </trkpt>
      <trkpt lat="47.22664" lon="-1.69353">
        <ele>66.5</ele>
        <time>2016-04-03T08:19:56.073Z</time>
      </trkpt>
      <trkpt lat="47.22667" lon="-1.69364">
        <ele>66.6</ele>
        <time>2016-04-03T08:20:03.082Z</time>
      </trkpt>
      <trkpt lat="47.22668" lon="-1.69366">
        <ele>66.6</ele>
        <time>2016-04-03T08:20:04.078Z</time>
      </trkpt>
      <trkpt lat="47.22671" lon="-1.69378">
        <ele>66.1</ele>
        <time>2016-04-03T08:20:14.136Z</time>
      </trkpt>
      <trkpt lat="47.22672" lon="-1.6938">
        <ele>66</ele>
        <time>2016-04-03T08:20:15.143Z</time>
      </trkpt>
      <trkpt lat="47.22676" lon="-1.69392">
        <ele>65.8</ele>
        <time>2016-04-03T08:20:25.335Z</time>
      </trkpt>
      <trkpt lat="47.22676" lon="-1.69393">
        <ele>65.8</ele>
        <time>2016-04-03T08:20:26.082Z</time>
      </trkpt>
      <trkpt lat="47.22678" lon="-1.69404">
        <ele>65.9</ele>
        <time>2016-04-03T08:20:38.166Z</time>
      </trkpt>
      <trkpt lat="47.22679" lon="-1.69407">
        <ele>65.9</ele>
        <time>2016-04-03T08:20:39.088Z</time>
      </trkpt>
      <trkpt lat="47.22683" lon="-1.69416">
        <ele>65.9</ele>
        <time>2016-04-03T08:20:45.089Z</time>
      </trkpt>
      <trkpt lat="47.22684" lon="-1.69418">
        <ele>65.9</ele>
        <time>2016-04-03T08:20:46.098Z</time>
      </trkpt>
      <trkpt lat="47.22688" lon="-1.69426">
        <ele>65.8</ele>
        <time>2016-04-03T08:20:50.133Z</time>
      </trkpt>
      <trkpt lat="47.2269" lon="-1.69429">
        <ele>65.8</ele>
        <time>2016-04-03T08:20:51.084Z</time>
      </trkpt>
      <trkpt lat="47.22695" lon="-1.69438">
        <ele>66</ele>
        <time>2016-04-03T08:21:01.156Z</time>
      </trkpt>
      <trkpt lat="47.22696" lon="-1.69439">
        <ele>65.9</ele>
        <time>2016-04-03T08:21:02.081Z</time>
      </trkpt>
      <trkpt lat="47.22701" lon="-1.69449">
        <ele>66</ele>
        <time>2016-04-03T08:21:07.145Z</time>
      </trkpt>
      <trkpt lat="47.22702" lon="-1.69449">
        <ele>65.9</ele>
        <time>2016-04-03T08:21:08.082Z</time>
      </trkpt>
      <trkpt lat="47.22706" lon="-1.6946">
        <ele>65.8</ele>
        <time>2016-04-03T08:21:17.176Z</time>
      </trkpt>
      <trkpt lat="47.22707" lon="-1.69462">
        <ele>65.8</ele>
        <time>2016-04-03T08:21:18.088Z</time>
      </trkpt>
      <trkpt lat="47.22712" lon="-1.69471">
        <ele>65.9</ele>
        <time>2016-04-03T08:21:25.187Z</time>
      </trkpt>
      <trkpt lat="47.22714" lon="-1.69475">
        <ele>65.9</ele>
        <time>2016-04-03T08:21:26.082Z</time>
      </trkpt>
      <trkpt lat="47.2272" lon="-1.6948">
        <ele>66.1</ele>
        <time>2016-04-03T08:21:32.140Z</time>
      </trkpt>
      <trkpt lat="47.22722" lon="-1.69482">
        <ele>66.1</ele>
        <time>2016-04-03T08:21:33.122Z</time>
      </trkpt>
      <trkpt lat="47.22728" lon="-1.69491">
        <ele>65.9</ele>
        <time>2016-04-03T08:21:38.187Z</time>
      </trkpt>
      <trkpt lat="47.22728" lon="-1.69492">
        <ele>65.9</ele>
        <time>2016-04-03T08:21:39.249Z</time>
      </trkpt>
      <trkpt lat="47.22735" lon="-1.69501">
        <ele>66.1</ele>
        <time>2016-04-03T08:21:50.388Z</time>
      </trkpt>
      <trkpt lat="47.22736" lon="-1.69503">
        <ele>66.2</ele>
        <time>2016-04-03T08:21:51.124Z</time>
      </trkpt>
      <trkpt lat="47.22741" lon="-1.69511">
        <ele>66.4</ele>
        <time>2016-04-03T08:21:55.156Z</time>
      </trkpt>
      <trkpt lat="47.22742" lon="-1.69513">
        <ele>66.5</ele>
        <time>2016-04-03T08:21:56.095Z</time>
      </trkpt>
      <trkpt lat="47.22745" lon="-1.69525">
        <ele>67.8</ele>
        <time>2016-04-03T08:22:04.171Z</time>
      </trkpt>
      <trkpt lat="47.22746" lon="-1.69527">
        <ele>67.9</ele>
        <time>2016-04-03T08:22:05.112Z</time>
      </trkpt>
      <trkpt lat="47.22752" lon="-1.69538">
        <ele>68.5</ele>
        <time>2016-04-03T08:22:13.125Z</time>
      </trkpt>
      <trkpt lat="47.22752" lon="-1.69539">
        <ele>68.4</ele>
        <time>2016-04-03T08:22:14.086Z</time>
      </trkpt>
      <trkpt lat="47.22757" lon="-1.69548">
        <ele>67.5</ele>
        <time>2016-04-03T08:22:21.110Z</time>
      </trkpt>
      <trkpt lat="47.22759" lon="-1.69551">
        <ele>67.3</ele>
        <time>2016-04-03T08:22:22.135Z</time>
      </trkpt>
      <trkpt lat="47.22765" lon="-1.69559">
        <ele>66.8</ele>
        <time>2016-04-03T08:22:26.094Z</time>
      </trkpt>
      <trkpt lat="47.22766" lon="-1.6956">
        <ele>66.7</ele>
        <time>2016-04-03T08:22:27.103Z</time>
      </trkpt>
      <trkpt lat="47.22773" lon="-1.69566">
        <ele>66.5</ele>
        <time>2016-04-03T08:22:33.145Z</time>
      </trkpt>
      <trkpt lat="47.22774" lon="-1.69568">
        <ele>66.5</ele>
        <time>2016-04-03T08:22:34.056Z</time>
      </trkpt>
      <trkpt lat="47.2278" lon="-1.69576">
        <ele>66.3</ele>
        <time>2016-04-03T08:22:40.136Z</time>
      </trkpt>
      <trkpt lat="47.22781" lon="-1.69578">
        <ele>66.2</ele>
        <time>2016-04-03T08:22:41.082Z</time>
      </trkpt>
      <trkpt lat="47.22786" lon="-1.69588">
        <ele>66</ele>
        <time>2016-04-03T08:22:49.139Z</time>
      </trkpt>
      <trkpt lat="47.22787" lon="-1.69589">
        <ele>66</ele>
        <time>2016-04-03T08:22:50.088Z</time>
      </trkpt>
      <trkpt lat="47.22792" lon="-1.69597">
        <ele>65.8</ele>
        <time>2016-04-03T08:22:54.135Z</time>
      </trkpt>
      <trkpt lat="47.22793" lon="-1.69599">
        <ele>65.8</ele>
        <time>2016-04-03T08:22:55.087Z</time>
      </trkpt>
      <trkpt lat="47.22797" lon="-1.69611">
        <ele>65.1</ele>
        <time>2016-04-03T08:23:05.315Z</time>
      </trkpt>
      <trkpt lat="47.22797" lon="-1.69612">
        <ele>65.1</ele>
        <time>2016-04-03T08:23:06.082Z</time>
      </trkpt>
      <trkpt lat="47.22799" lon="-1.69624">
        <ele>66</ele>
        <time>2016-04-03T08:23:21.153Z</time>
      </trkpt>
      <trkpt lat="47.228" lon="-1.69625">
        <ele>66.1</ele>
        <time>2016-04-03T08:23:22.082Z</time>
      </trkpt>
      <trkpt lat="47.22803" lon="-1.69638">
        <ele>66.7</ele>
        <time>2016-04-03T08:23:32.343Z</time>
      </trkpt>
      <trkpt lat="47.22803" lon="-1.69639">
        <ele>66.7</ele>
        <time>2016-04-03T08:23:33.079Z</time>
      </trkpt>
      <trkpt lat="47.22804" lon="-1.69649">
        <ele>66.9</ele>
        <time>2016-04-03T08:23:41.210Z</time>
      </trkpt>
      <trkpt lat="47.22805" lon="-1.69653">
        <ele>66.9</ele>
        <time>2016-04-03T08:23:42.102Z</time>
      </trkpt>
      <trkpt lat="47.22809" lon="-1.69663">
        <ele>66.7</ele>
        <time>2016-04-03T08:23:48.075Z</time>
      </trkpt>
      <trkpt lat="47.2281" lon="-1.69666">
        <ele>66.7</ele>
        <time>2016-04-03T08:23:49.089Z</time>
      </trkpt>
      <trkpt lat="47.22815" lon="-1.69676">
        <ele>66.1</ele>
        <time>2016-04-03T08:23:54.475Z</time>
      </trkpt>
      <trkpt lat="47.22816" lon="-1.69678">
        <ele>66</ele>
        <time>2016-04-03T08:23:55.075Z</time>
      </trkpt>
      <trkpt lat="47.22822" lon="-1.69686">
        <ele>65.9</ele>
        <time>2016-04-03T08:24:03.217Z</time>
      </trkpt>
      <trkpt lat="47.22822" lon="-1.69688">
        <ele>66</ele>
        <time>2016-04-03T08:24:04.077Z</time>
      </trkpt>
      <trkpt lat="47.22827" lon="-1.69698">
        <ele>66.1</ele>
        <time>2016-04-03T08:24:10.482Z</time>
      </trkpt>
      <trkpt lat="47.22828" lon="-1.69699">
        <ele>66.1</ele>
        <time>2016-04-03T08:24:11.074Z</time>
      </trkpt>
      <trkpt lat="47.22832" lon="-1.69707">
        <ele>65.9</ele>
        <time>2016-04-03T08:24:16.227Z</time>
      </trkpt>
      <trkpt lat="47.22833" lon="-1.69711">
        <ele>65.9</ele>
        <time>2016-04-03T08:24:17.040Z</time>
      </trkpt>
      <trkpt lat="47.22837" lon="-1.69722">
        <ele>65.5</ele>
        <time>2016-04-03T08:24:25.235Z</time>
      </trkpt>
      <trkpt lat="47.22837" lon="-1.69723">
        <ele>65.5</ele>
        <time>2016-04-03T08:24:26.040Z</time>
      </trkpt>
      <trkpt lat="47.22837" lon="-1.69735">
        <ele>65.2</ele>
        <time>2016-04-03T08:24:39.152Z</time>
      </trkpt>
      <trkpt lat="47.22838" lon="-1.69738">
        <ele>65.2</ele>
        <time>2016-04-03T08:24:40.079Z</time>
      </trkpt>
      <trkpt lat="47.22844" lon="-1.69747">
        <ele>65.4</ele>
        <time>2016-04-03T08:24:48.204Z</time>
      </trkpt>
      <trkpt lat="47.22845" lon="-1.69749">
        <ele>65.4</ele>
        <time>2016-04-03T08:24:49.102Z</time>
      </trkpt>
      <trkpt lat="47.2285" lon="-1.69755">
        <ele>65.5</ele>
        <time>2016-04-03T08:24:54.092Z</time>
      </trkpt>
      <trkpt lat="47.22852" lon="-1.69757">
        <ele>65.5</ele>
        <time>2016-04-03T08:24:55.063Z</time>
      </trkpt>
      <trkpt lat="47.22858" lon="-1.69762">
        <ele>65.5</ele>
        <time>2016-04-03T08:25:00.386Z</time>
      </trkpt>
      <trkpt lat="47.22859" lon="-1.69764">
        <ele>65.5</ele>
        <time>2016-04-03T08:25:01.089Z</time>
      </trkpt>
      <trkpt lat="47.22867" lon="-1.69768">
        <ele>65.7</ele>
        <time>2016-04-03T08:25:10.553Z</time>
      </trkpt>
      <trkpt lat="47.22868" lon="-1.69768">
        <ele>65.8</ele>
        <time>2016-04-03T08:25:11.107Z</time>
      </trkpt>
      <trkpt lat="47.22876" lon="-1.69773">
        <ele>66.4</ele>
        <time>2016-04-03T08:25:21.277Z</time>
      </trkpt>
      <trkpt lat="47.22877" lon="-1.69774">
        <ele>66.4</ele>
        <time>2016-04-03T08:25:22.080Z</time>
      </trkpt>
      <trkpt lat="47.22885" lon="-1.69777">
        <ele>66.7</ele>
        <time>2016-04-03T08:25:42.164Z</time>
      </trkpt>
      <trkpt lat="47.22885" lon="-1.69778">
        <ele>66.7</ele>
        <time>2016-04-03T08:25:43.120Z</time>
      </trkpt>
      <trkpt lat="47.22878" lon="-1.69772">
        <ele>67</ele>
        <time>2016-04-03T08:31:41.088Z</time>
      </trkpt>
      <trkpt lat="47.22877" lon="-1.69772">
        <ele>67</ele>
        <time>2016-04-03T08:31:42.090Z</time>
      </trkpt>
      <trkpt lat="47.22884" lon="-1.6978">
        <ele>66.6</ele>
        <time>2016-04-03T08:32:29.082Z</time>
      </trkpt>
      <trkpt lat="47.22884" lon="-1.6978">
        <ele>66.6</ele>
        <time>2016-04-03T08:32:30.093Z</time>
      </trkpt>
      <trkpt lat="47.22891" lon="-1.69787">
        <ele>65.3</ele>
        <time>2016-04-03T08:33:38.115Z</time>
      </trkpt>
      <trkpt lat="47.22892" lon="-1.69788">
        <ele>65.3</ele>
        <time>2016-04-03T08:33:39.080Z</time>
      </trkpt>
      <trkpt lat="47.22899" lon="-1.69795">
        <ele>65.5</ele>
        <time>2016-04-03T08:33:47.142Z</time>
      </trkpt>
      <trkpt lat="47.229" lon="-1.69796">
        <ele>65.5</ele>
        <time>2016-04-03T08:33:48.045Z</time>
      </trkpt>
      <trkpt lat="47.22906" lon="-1.69805">
        <ele>65.7</ele>
        <time>2016-04-03T08:33:56.234Z</time>
      </trkpt>
      <trkpt lat="47.22906" lon="-1.69806">
        <ele>65.7</ele>
        <time>2016-04-03T08:33:57.047Z</time>
      </trkpt>
      <trkpt lat="47.22912" lon="-1.69815">
        <ele>65.7</ele>
        <time>2016-04-03T08:34:07.141Z</time>
      </trkpt>
      <trkpt lat="47.22913" lon="-1.69816">
        <ele>65.7</ele>
        <time>2016-04-03T08:34:08.100Z</time>
      </trkpt>
      <trkpt lat="47.22918" lon="-1.69827">
        <ele>65.6</ele>
        <time>2016-04-03T08:34:14.081Z</time>
      </trkpt>
      <trkpt lat="47.22918" lon="-1.69829">
        <ele>65.6</ele>
        <time>2016-04-03T08:34:15.086Z</time>
      </trkpt>
      <trkpt lat="47.22923" lon="-1.69838">
        <ele>66.3</ele>
        <time>2016-04-03T08:34:24.322Z</time>
      </trkpt>
      <trkpt lat="47.22924" lon="-1.69841">
        <ele>66.3</ele>
        <time>2016-04-03T08:34:25.083Z</time>
      </trkpt>
      <trkpt lat="47.2293" lon="-1.6985">
        <ele>66.5</ele>
        <time>2016-04-03T08:34:35.275Z</time>
      </trkpt>
      <trkpt lat="47.22931" lon="-1.69851">
        <ele>66.4</ele>
        <time>2016-04-03T08:34:36.095Z</time>
      </trkpt>
      <trkpt lat="47.22935" lon="-1.69862">
        <ele>66.5</ele>
        <time>2016-04-03T08:34:46.146Z</time>
      </trkpt>
      <trkpt lat="47.22935" lon="-1.69864">
        <ele>66.5</ele>
        <time>2016-04-03T08:34:47.098Z</time>
      </trkpt>
      <trkpt lat="47.2294" lon="-1.69873">
        <ele>66.7</ele>
        <time>2016-04-03T08:34:52.162Z</time>
      </trkpt>
      <trkpt lat="47.2294" lon="-1.69875">
        <ele>66.7</ele>
        <time>2016-04-03T08:34:53.103Z</time>
      </trkpt>
      <trkpt lat="47.22945" lon="-1.69885">
        <ele>66.9</ele>
        <time>2016-04-03T08:34:59.062Z</time>
      </trkpt>
      <trkpt lat="47.22945" lon="-1.69886">
        <ele>67</ele>
        <time>2016-04-03T08:35:00.126Z</time>
      </trkpt>
      <trkpt lat="47.22948" lon="-1.69898">
        <ele>67.2</ele>
        <time>2016-04-03T08:35:07.170Z</time>
      </trkpt>
      <trkpt lat="47.22948" lon="-1.699">
        <ele>67.3</ele>
        <time>2016-04-03T08:35:08.092Z</time>
      </trkpt>
      <trkpt lat="47.22951" lon="-1.69912">
        <ele>67.7</ele>
        <time>2016-04-03T08:35:18.327Z</time>
      </trkpt>
      <trkpt lat="47.22951" lon="-1.69915">
        <ele>67.7</ele>
        <time>2016-04-03T08:35:19.087Z</time>
      </trkpt>
      <trkpt lat="47.22955" lon="-1.69927">
        <ele>67.7</ele>
        <time>2016-04-03T08:35:27.250Z</time>
      </trkpt>
      <trkpt lat="47.22955" lon="-1.69928">
        <ele>67.8</ele>
        <time>2016-04-03T08:35:28.101Z</time>
      </trkpt>
      <trkpt lat="47.22959" lon="-1.69939">
        <ele>68</ele>
        <time>2016-04-03T08:35:36.102Z</time>
      </trkpt>
      <trkpt lat="47.2296" lon="-1.6994">
        <ele>68</ele>
        <time>2016-04-03T08:35:37.115Z</time>
      </trkpt>
      <trkpt lat="47.22964" lon="-1.69951">
        <ele>67.8</ele>
        <time>2016-04-03T08:35:43.484Z</time>
      </trkpt>
      <trkpt lat="47.22964" lon="-1.69953">
        <ele>67.9</ele>
        <time>2016-04-03T08:35:44.102Z</time>
      </trkpt>
      <trkpt lat="47.22968" lon="-1.69964">
        <ele>67.8</ele>
        <time>2016-04-03T08:35:52.204Z</time>
      </trkpt>
      <trkpt lat="47.22969" lon="-1.69965">
        <ele>67.8</ele>
        <time>2016-04-03T08:35:53.107Z</time>
      </trkpt>
      <trkpt lat="47.22972" lon="-1.69977">
        <ele>68</ele>
        <time>2016-04-03T08:36:03.238Z</time>
      </trkpt>
      <trkpt lat="47.22972" lon="-1.69977">
        <ele>68</ele>
        <time>2016-04-03T08:36:04.085Z</time>
      </trkpt>
      <trkpt lat="47.22976" lon="-1.69989">
        <ele>68.1</ele>
        <time>2016-04-03T08:36:19.166Z</time>
      </trkpt>
      <trkpt lat="47.22977" lon="-1.69991">
        <ele>68.1</ele>
        <time>2016-04-03T08:36:20.110Z</time>
      </trkpt>
      <trkpt lat="47.22981" lon="-1.70001">
        <ele>68</ele>
        <time>2016-04-03T08:36:25.180Z</time>
      </trkpt>
      <trkpt lat="47.22981" lon="-1.70003">
        <ele>68</ele>
        <time>2016-04-03T08:36:26.207Z</time>
      </trkpt>
      <trkpt lat="47.22984" lon="-1.70015">
        <ele>67.8</ele>
        <time>2016-04-03T08:36:32.217Z</time>
      </trkpt>
      <trkpt lat="47.22985" lon="-1.70017">
        <ele>67.9</ele>
        <time>2016-04-03T08:36:33.160Z</time>
      </trkpt>
      <trkpt lat="47.22986" lon="-1.70029">
        <ele>68</ele>
        <time>2016-04-03T08:36:39.288Z</time>
      </trkpt>
      <trkpt lat="47.22987" lon="-1.70032">
        <ele>68</ele>
        <time>2016-04-03T08:36:40.089Z</time>
      </trkpt>
      <trkpt lat="47.22989" lon="-1.70044">
        <ele>68.2</ele>
        <time>2016-04-03T08:36:48.238Z</time>
      </trkpt>
      <trkpt lat="47.22989" lon="-1.70045">
        <ele>68.4</ele>
        <time>2016-04-03T08:36:49.093Z</time>
      </trkpt>
      <trkpt lat="47.22989" lon="-1.70058">
        <ele>68.8</ele>
        <time>2016-04-03T08:37:00.290Z</time>
      </trkpt>
      <trkpt lat="47.22989" lon="-1.70059">
        <ele>68.8</ele>
        <time>2016-04-03T08:37:01.034Z</time>
      </trkpt>
      <trkpt lat="47.22991" lon="-1.70071">
        <ele>69.4</ele>
        <time>2016-04-03T08:37:10.190Z</time>
      </trkpt>
      <trkpt lat="47.22992" lon="-1.70075">
        <ele>69.5</ele>
        <time>2016-04-03T08:37:11.089Z</time>
      </trkpt>
      <trkpt lat="47.22993" lon="-1.70088">
        <ele>69.5</ele>
        <time>2016-04-03T08:37:14.260Z</time>
      </trkpt>
      <trkpt lat="47.22994" lon="-1.7009">
        <ele>69.5</ele>
        <time>2016-04-03T08:37:15.098Z</time>
      </trkpt>
      <trkpt lat="47.22997" lon="-1.70099">
        <ele>69.5</ele>
        <time>2016-04-03T08:37:21.148Z</time>
      </trkpt>
      <trkpt lat="47.22998" lon="-1.70102">
        <ele>69.6</ele>
        <time>2016-04-03T08:37:22.109Z</time>
      </trkpt>
      <trkpt lat="47.23" lon="-1.70113">
        <ele>69.8</ele>
        <time>2016-04-03T08:37:27.497Z</time>
      </trkpt>
      <trkpt lat="47.23" lon="-1.70115">
        <ele>69.9</ele>
        <time>2016-04-03T08:37:28.064Z</time>
      </trkpt>
      <trkpt lat="47.23002" lon="-1.70125">
        <ele>70.5</ele>
        <time>2016-04-03T08:37:34.464Z</time>
      </trkpt>
      <trkpt lat="47.23003" lon="-1.70128">
        <ele>70.6</ele>
        <time>2016-04-03T08:37:35.105Z</time>
      </trkpt>
      <trkpt lat="47.23006" lon="-1.7014">
        <ele>71.2</ele>
        <time>2016-04-03T08:37:41.145Z</time>
      </trkpt>
      <trkpt lat="47.23007" lon="-1.70141">
        <ele>71.3</ele>
        <time>2016-04-03T08:37:42.106Z</time>
      </trkpt>
      <trkpt lat="47.2301" lon="-1.70152">
        <ele>71.1</ele>
        <time>2016-04-03T08:37:48.093Z</time>
      </trkpt>
      <trkpt lat="47.23011" lon="-1.70154">
        <ele>71.2</ele>
        <time>2016-04-03T08:37:49.092Z</time>
      </trkpt>
      <trkpt lat="47.23014" lon="-1.70165">
        <ele>71.7</ele>
        <time>2016-04-03T08:37:56.181Z</time>
      </trkpt>
      <trkpt lat="47.23015" lon="-1.70168">
        <ele>71.8</ele>
        <time>2016-04-03T08:37:57.106Z</time>
      </trkpt>
      <trkpt lat="47.23017" lon="-1.70179">
        <ele>72.1</ele>
        <time>2016-04-03T08:38:04.216Z</time>
      </trkpt>
      <trkpt lat="47.23017" lon="-1.70182">
        <ele>72.1</ele>
        <time>2016-04-03T08:38:05.112Z</time>
      </trkpt>
      <trkpt lat="47.2302" lon="-1.70192">
        <ele>72</ele>
        <time>2016-04-03T08:38:10.187Z</time>
      </trkpt>
      <trkpt lat="47.23021" lon="-1.70195">
        <ele>72</ele>
        <time>2016-04-03T08:38:11.093Z</time>
      </trkpt>
      <trkpt lat="47.23023" lon="-1.70207">
        <ele>71.9</ele>
        <time>2016-04-03T08:38:21.165Z</time>
      </trkpt>
      <trkpt lat="47.23024" lon="-1.70208">
        <ele>71.9</ele>
        <time>2016-04-03T08:38:22.113Z</time>
      </trkpt>
      <trkpt lat="47.23027" lon="-1.7022">
        <ele>72.3</ele>
        <time>2016-04-03T08:38:28.177Z</time>
      </trkpt>
      <trkpt lat="47.23027" lon="-1.70221">
        <ele>72.5</ele>
        <time>2016-04-03T08:38:29.070Z</time>
      </trkpt>
      <trkpt lat="47.23028" lon="-1.70233">
        <ele>73.1</ele>
        <time>2016-04-03T08:38:35.185Z</time>
      </trkpt>
      <trkpt lat="47.23028" lon="-1.70235">
        <ele>73.2</ele>
        <time>2016-04-03T08:38:36.103Z</time>
      </trkpt>
      <trkpt lat="47.2303" lon="-1.70247">
        <ele>73.7</ele>
        <time>2016-04-03T08:38:44.152Z</time>
      </trkpt>
      <trkpt lat="47.2303" lon="-1.70248">
        <ele>73.7</ele>
        <time>2016-04-03T08:38:45.104Z</time>
      </trkpt>
      <trkpt lat="47.23033" lon="-1.70259">
        <ele>74.4</ele>
        <time>2016-04-03T08:38:57.212Z</time>
      </trkpt>
      <trkpt lat="47.23033" lon="-1.7026">
        <ele>74.5</ele>
        <time>2016-04-03T08:38:58.106Z</time>
      </trkpt>
      <trkpt lat="47.23031" lon="-1.70273">
        <ele>75.1</ele>
        <time>2016-04-03T08:39:07.152Z</time>
      </trkpt>
      <trkpt lat="47.23031" lon="-1.70276">
        <ele>75.2</ele>
        <time>2016-04-03T08:39:08.109Z</time>
      </trkpt>
      <trkpt lat="47.23035" lon="-1.70287">
        <ele>75.4</ele>
        <time>2016-04-03T08:39:13.228Z</time>
      </trkpt>
      <trkpt lat="47.23036" lon="-1.7029">
        <ele>75.4</ele>
        <time>2016-04-03T08:39:14.124Z</time>
      </trkpt>
      <trkpt lat="47.23038" lon="-1.70299">
        <ele>75.8</ele>
        <time>2016-04-03T08:39:19.117Z</time>
      </trkpt>
      <trkpt lat="47.23038" lon="-1.70303">
        <ele>75.8</ele>
        <time>2016-04-03T08:39:20.143Z</time>
      </trkpt>
      <trkpt lat="47.23039" lon="-1.70315">
        <ele>75.8</ele>
        <time>2016-04-03T08:39:26.128Z</time>
      </trkpt>
      <trkpt lat="47.23039" lon="-1.70316">
        <ele>75.8</ele>
        <time>2016-04-03T08:39:27.064Z</time>
      </trkpt>
      <trkpt lat="47.23041" lon="-1.70328">
        <ele>75.7</ele>
        <time>2016-04-03T08:39:34.162Z</time>
      </trkpt>
      <trkpt lat="47.23041" lon="-1.7033">
        <ele>75.6</ele>
        <time>2016-04-03T08:39:35.080Z</time>
      </trkpt>
      <trkpt lat="47.2304" lon="-1.70343">
        <ele>74.9</ele>
        <time>2016-04-03T08:39:45.138Z</time>
      </trkpt>
      <trkpt lat="47.23039" lon="-1.70344">
        <ele>74.9</ele>
        <time>2016-04-03T08:39:46.112Z</time>
      </trkpt>
      <trkpt lat="47.23031" lon="-1.70347">
        <ele>74.9</ele>
        <time>2016-04-03T08:39:54.216Z</time>
      </trkpt>
      <trkpt lat="47.23029" lon="-1.70347">
        <ele>74.9</ele>
        <time>2016-04-03T08:39:55.090Z</time>
      </trkpt>
      <trkpt lat="47.23022" lon="-1.70349">
        <ele>74.7</ele>
        <time>2016-04-03T08:40:01.059Z</time>
      </trkpt>
      <trkpt lat="47.2302" lon="-1.70349">
        <ele>74.6</ele>
        <time>2016-04-03T08:40:02.092Z</time>
      </trkpt>
      <trkpt lat="47.23013" lon="-1.70356">
        <ele>73.3</ele>
        <time>2016-04-03T08:40:11.086Z</time>
      </trkpt>
      <trkpt lat="47.23013" lon="-1.70357">
        <ele>73.1</ele>
        <time>2016-04-03T08:40:12.088Z</time>
      </trkpt>
      <trkpt lat="47.23007" lon="-1.70364">
        <ele>72.7</ele>
        <time>2016-04-03T08:40:18.272Z</time>
      </trkpt>
      <trkpt lat="47.23007" lon="-1.70367">
        <ele>72.6</ele>
        <time>2016-04-03T08:40:19.102Z</time>
      </trkpt>
      <trkpt lat="47.23005" lon="-1.70379">
        <ele>72.7</ele>
        <time>2016-04-03T08:40:24.136Z</time>
      </trkpt>
      <trkpt lat="47.23005" lon="-1.70381">
        <ele>72.7</ele>
        <time>2016-04-03T08:40:25.079Z</time>
      </trkpt>
      <trkpt lat="47.23001" lon="-1.70393">
        <ele>72.6</ele>
        <time>2016-04-03T08:40:33.169Z</time>
      </trkpt>
      <trkpt lat="47.23001" lon="-1.70395">
        <ele>72.5</ele>
        <time>2016-04-03T08:40:34.136Z</time>
      </trkpt>
      <trkpt lat="47.22998" lon="-1.70407">
        <ele>72.7</ele>
        <time>2016-04-03T08:40:42.163Z</time>
      </trkpt>
      <trkpt lat="47.22998" lon="-1.70409">
        <ele>72.7</ele>
        <time>2016-04-03T08:40:43.115Z</time>
      </trkpt>
      <trkpt lat="47.22996" lon="-1.7042">
        <ele>73.3</ele>
        <time>2016-04-03T08:40:51.234Z</time>
      </trkpt>
      <trkpt lat="47.22996" lon="-1.70422">
        <ele>73.3</ele>
        <time>2016-04-03T08:40:52.090Z</time>
      </trkpt>
      <trkpt lat="47.22996" lon="-1.70434">
        <ele>73.5</ele>
        <time>2016-04-03T08:40:58.273Z</time>
      </trkpt>
      <trkpt lat="47.22996" lon="-1.70436">
        <ele>73.5</ele>
        <time>2016-04-03T08:40:59.098Z</time>
      </trkpt>
      <trkpt lat="47.22992" lon="-1.70447">
        <ele>74.3</ele>
        <time>2016-04-03T08:41:07.268Z</time>
      </trkpt>
      <trkpt lat="47.22992" lon="-1.70448">
        <ele>74.4</ele>
        <time>2016-04-03T08:41:08.341Z</time>
      </trkpt>
      <trkpt lat="47.2299" lon="-1.70461">
        <ele>74.9</ele>
        <time>2016-04-03T08:41:15.175Z</time>
      </trkpt>
      <trkpt lat="47.22991" lon="-1.70463">
        <ele>74.9</ele>
        <time>2016-04-03T08:41:16.125Z</time>
      </trkpt>
      <trkpt lat="47.2299" lon="-1.70472">
        <ele>74.9</ele>
        <time>2016-04-03T08:41:21.263Z</time>
      </trkpt>
      <trkpt lat="47.2299" lon="-1.70476">
        <ele>74.9</ele>
        <time>2016-04-03T08:41:22.099Z</time>
      </trkpt>
      <trkpt lat="47.2299" lon="-1.70489">
        <ele>75</ele>
        <time>2016-04-03T08:41:32.120Z</time>
      </trkpt>
      <trkpt lat="47.2299" lon="-1.70489">
        <ele>75</ele>
        <time>2016-04-03T08:41:33.106Z</time>
      </trkpt>
      <trkpt lat="47.22982" lon="-1.70495">
        <ele>73.6</ele>
        <time>2016-04-03T08:42:38.528Z</time>
      </trkpt>
      <trkpt lat="47.22981" lon="-1.70495">
        <ele>73.6</ele>
        <time>2016-04-03T08:42:39.120Z</time>
      </trkpt>
      <trkpt lat="47.22973" lon="-1.70494">
        <ele>72.8</ele>
        <time>2016-04-03T08:42:49.183Z</time>
      </trkpt>
      <trkpt lat="47.22971" lon="-1.70494">
        <ele>72.6</ele>
        <time>2016-04-03T08:42:50.113Z</time>
      </trkpt>
      <trkpt lat="47.22964" lon="-1.70493">
        <ele>71.5</ele>
        <time>2016-04-03T08:42:56.206Z</time>
      </trkpt>
      <trkpt lat="47.22962" lon="-1.70492">
        <ele>71.4</ele>
        <time>2016-04-03T08:42:57.071Z</time>
      </trkpt>
      <trkpt lat="47.22953" lon="-1.70493">
        <ele>70.6</ele>
        <time>2016-04-03T08:43:06.211Z</time>
      </trkpt>
      <trkpt lat="47.22952" lon="-1.70493">
        <ele>70.5</ele>
        <time>2016-04-03T08:43:07.090Z</time>
      </trkpt>
      <trkpt lat="47.22944" lon="-1.7049">
        <ele>69.5</ele>
        <time>2016-04-03T08:43:15.180Z</time>
      </trkpt>
      <trkpt lat="47.22943" lon="-1.70489">
        <ele>69.4</ele>
        <time>2016-04-03T08:43:16.111Z</time>
      </trkpt>
      <trkpt lat="47.22935" lon="-1.70487">
        <ele>68.9</ele>
        <time>2016-04-03T08:43:20.199Z</time>
      </trkpt>
      <trkpt lat="47.22934" lon="-1.70487">
        <ele>68.7</ele>
        <time>2016-04-03T08:43:21.104Z</time>
      </trkpt>
      <trkpt lat="47.22925" lon="-1.70488">
        <ele>68.4</ele>
        <time>2016-04-03T08:43:27.214Z</time>
      </trkpt>
      <trkpt lat="47.22924" lon="-1.70487">
        <ele>68.3</ele>
        <time>2016-04-03T08:43:28.103Z</time>
      </trkpt>
      <trkpt lat="47.22916" lon="-1.70485">
        <ele>67.9</ele>
        <time>2016-04-03T08:43:34.152Z</time>
      </trkpt>
      <trkpt lat="47.22914" lon="-1.70484">
        <ele>67.9</ele>
        <time>2016-04-03T08:43:35.104Z</time>
      </trkpt>
      <trkpt lat="47.22906" lon="-1.70482">
        <ele>67.4</ele>
        <time>2016-04-03T08:43:41.206Z</time>
      </trkpt>
      <trkpt lat="47.22905" lon="-1.70482">
        <ele>67.4</ele>
        <time>2016-04-03T08:43:42.086Z</time>
      </trkpt>
      <trkpt lat="47.22897" lon="-1.7048">
        <ele>66.8</ele>
        <time>2016-04-03T08:43:54.755Z</time>
      </trkpt>
      <trkpt lat="47.22896" lon="-1.70479">
        <ele>66.8</ele>
        <time>2016-04-03T08:43:55.049Z</time>
      </trkpt>
      <trkpt lat="47.22888" lon="-1.70478">
        <ele>66.3</ele>
        <time>2016-04-03T08:44:02.228Z</time>
      </trkpt>
      <trkpt lat="47.22884" lon="-1.70478">
        <ele>66.2</ele>
        <time>2016-04-03T08:44:03.120Z</time>
      </trkpt>
      <trkpt lat="47.22876" lon="-1.70478">
        <ele>65.6</ele>
        <time>2016-04-03T08:44:07.128Z</time>
      </trkpt>
      <trkpt lat="47.22875" lon="-1.70478">
        <ele>65.5</ele>
        <time>2016-04-03T08:44:08.097Z</time>
      </trkpt>
      <trkpt lat="47.22866" lon="-1.70476">
        <ele>65</ele>
        <time>2016-04-03T08:44:16.193Z</time>
      </trkpt>
      <trkpt lat="47.22865" lon="-1.70476">
        <ele>65</ele>
        <time>2016-04-03T08:44:17.112Z</time>
      </trkpt>
      <trkpt lat="47.22856" lon="-1.70476">
        <ele>64.4</ele>
        <time>2016-04-03T08:44:26.171Z</time>
      </trkpt>
      <trkpt lat="47.22855" lon="-1.70475">
        <ele>64.3</ele>
        <time>2016-04-03T08:44:27.111Z</time>
      </trkpt>
      <trkpt lat="47.22848" lon="-1.70469">
        <ele>63.5</ele>
        <time>2016-04-03T08:44:36.181Z</time>
      </trkpt>
      <trkpt lat="47.22847" lon="-1.70469">
        <ele>63.4</ele>
        <time>2016-04-03T08:44:37.108Z</time>
      </trkpt>
      <trkpt lat="47.22839" lon="-1.70464">
        <ele>62.9</ele>
        <time>2016-04-03T08:44:57.300Z</time>
      </trkpt>
      <trkpt lat="47.22838" lon="-1.70464">
        <ele>62.8</ele>
        <time>2016-04-03T08:44:58.120Z</time>
      </trkpt>
      <trkpt lat="47.22829" lon="-1.70463">
        <ele>62.5</ele>
        <time>2016-04-03T08:45:29.357Z</time>
      </trkpt>
      <trkpt lat="47.22829" lon="-1.70464">
        <ele>62.5</ele>
        <time>2016-04-03T08:45:30.143Z</time>
      </trkpt>
      <trkpt lat="47.22821" lon="-1.70466">
        <ele>62</ele>
        <time>2016-04-03T08:45:42.207Z</time>
      </trkpt>
      <trkpt lat="47.22819" lon="-1.70466">
        <ele>62.1</ele>
        <time>2016-04-03T08:45:43.107Z</time>
      </trkpt>
      <trkpt lat="47.22812" lon="-1.70466">
        <ele>62.2</ele>
        <time>2016-04-03T08:45:47.161Z</time>
      </trkpt>
      <trkpt lat="47.2281" lon="-1.70465">
        <ele>62.2</ele>
        <time>2016-04-03T08:45:48.059Z</time>
      </trkpt>
      <trkpt lat="47.22802" lon="-1.7046">
        <ele>62.1</ele>
        <time>2016-04-03T08:45:53.173Z</time>
      </trkpt>
      <trkpt lat="47.22801" lon="-1.70459">
        <ele>62.1</ele>
        <time>2016-04-03T08:45:54.100Z</time>
      </trkpt>
      <trkpt lat="47.22795" lon="-1.70454">
        <ele>62.1</ele>
        <time>2016-04-03T08:45:58.175Z</time>
      </trkpt>
      <trkpt lat="47.22793" lon="-1.70453">
        <ele>62.1</ele>
        <time>2016-04-03T08:45:59.104Z</time>
      </trkpt>
      <trkpt lat="47.22787" lon="-1.70447">
        <ele>62.2</ele>
        <time>2016-04-03T08:46:03.183Z</time>
      </trkpt>
      <trkpt lat="47.22785" lon="-1.70446">
        <ele>62.3</ele>
        <time>2016-04-03T08:46:04.100Z</time>
      </trkpt>
      <trkpt lat="47.22777" lon="-1.70444">
        <ele>61.9</ele>
        <time>2016-04-03T08:46:12.702Z</time>
      </trkpt>
      <trkpt lat="47.22776" lon="-1.70444">
        <ele>61.9</ele>
        <time>2016-04-03T08:46:13.081Z</time>
      </trkpt>
      <trkpt lat="47.22767" lon="-1.70444">
        <ele>61.9</ele>
        <time>2016-04-03T08:46:17.381Z</time>
      </trkpt>
      <trkpt lat="47.22765" lon="-1.70443">
        <ele>61.9</ele>
        <time>2016-04-03T08:46:18.097Z</time>
      </trkpt>
      <trkpt lat="47.22756" lon="-1.70442">
        <ele>61</ele>
        <time>2016-04-03T08:46:25.162Z</time>
      </trkpt>
      <trkpt lat="47.22756" lon="-1.70442">
        <ele>60.8</ele>
        <time>2016-04-03T08:46:26.149Z</time>
      </trkpt>
      <trkpt lat="47.22747" lon="-1.70437">
        <ele>60.1</ele>
        <time>2016-04-03T08:46:48.131Z</time>
      </trkpt>
      <trkpt lat="47.22747" lon="-1.70436">
        <ele>60.1</ele>
        <time>2016-04-03T08:46:49.117Z</time>
      </trkpt>
      <trkpt lat="47.22743" lon="-1.70424">
        <ele>60.4</ele>
        <time>2016-04-03T08:46:57.220Z</time>
      </trkpt>
      <trkpt lat="47.22743" lon="-1.70423">
        <ele>60.5</ele>
        <time>2016-04-03T08:46:58.061Z</time>
      </trkpt>
      <trkpt lat="47.22739" lon="-1.70411">
        <ele>61.5</ele>
        <time>2016-04-03T08:47:07.222Z</time>
      </trkpt>
      <trkpt lat="47.22738" lon="-1.7041">
        <ele>61.6</ele>
        <time>2016-04-03T08:47:08.108Z</time>
      </trkpt>
      <trkpt lat="47.22734" lon="-1.704">
        <ele>62</ele>
        <time>2016-04-03T08:47:13.097Z</time>
      </trkpt>
      <trkpt lat="47.22734" lon="-1.70397">
        <ele>62.1</ele>
        <time>2016-04-03T08:47:14.118Z</time>
      </trkpt>
      <trkpt lat="47.2273" lon="-1.70388">
        <ele>62.4</ele>
        <time>2016-04-03T08:47:21.129Z</time>
      </trkpt>
      <trkpt lat="47.22729" lon="-1.70386">
        <ele>62.5</ele>
        <time>2016-04-03T08:47:22.106Z</time>
      </trkpt>
      <trkpt lat="47.22726" lon="-1.70374">
        <ele>62.9</ele>
        <time>2016-04-03T08:47:27.220Z</time>
      </trkpt>
      <trkpt lat="47.22725" lon="-1.70371">
        <ele>62.9</ele>
        <time>2016-04-03T08:47:28.086Z</time>
      </trkpt>
      <trkpt lat="47.22721" lon="-1.70361">
        <ele>63.5</ele>
        <time>2016-04-03T08:47:33.358Z</time>
      </trkpt>
      <trkpt lat="47.2272" lon="-1.70359">
        <ele>63.5</ele>
        <time>2016-04-03T08:47:34.117Z</time>
      </trkpt>
      <trkpt lat="47.22718" lon="-1.70348">
        <ele>63.2</ele>
        <time>2016-04-03T08:47:39.234Z</time>
      </trkpt>
      <trkpt lat="47.22717" lon="-1.70346">
        <ele>63.1</ele>
        <time>2016-04-03T08:47:40.131Z</time>
      </trkpt>
      <trkpt lat="47.22714" lon="-1.70337">
        <ele>62.7</ele>
        <time>2016-04-03T08:47:44.229Z</time>
      </trkpt>
      <trkpt lat="47.22713" lon="-1.70334">
        <ele>62.6</ele>
        <time>2016-04-03T08:47:45.605Z</time>
      </trkpt>
      <trkpt lat="47.22708" lon="-1.70325">
        <ele>62.1</ele>
        <time>2016-04-03T08:47:50.191Z</time>
      </trkpt>
      <trkpt lat="47.22707" lon="-1.70323">
        <ele>62</ele>
        <time>2016-04-03T08:47:51.121Z</time>
      </trkpt>
      <trkpt lat="47.22701" lon="-1.70313">
        <ele>60.9</ele>
        <time>2016-04-03T08:47:58.175Z</time>
      </trkpt>
      <trkpt lat="47.22701" lon="-1.70312">
        <ele>60.8</ele>
        <time>2016-04-03T08:47:59.067Z</time>
      </trkpt>
      <trkpt lat="47.22695" lon="-1.70302">
        <ele>60</ele>
        <time>2016-04-03T08:48:08.247Z</time>
      </trkpt>
      <trkpt lat="47.22695" lon="-1.703">
        <ele>59.9</ele>
        <time>2016-04-03T08:48:09.054Z</time>
      </trkpt>
      <trkpt lat="47.22695" lon="-1.70289">
        <ele>59.8</ele>
        <time>2016-04-03T08:48:15.132Z</time>
      </trkpt>
      <trkpt lat="47.22695" lon="-1.70287">
        <ele>59.8</ele>
        <time>2016-04-03T08:48:16.061Z</time>
      </trkpt>
      <trkpt lat="47.22692" lon="-1.70274">
        <ele>59.5</ele>
        <time>2016-04-03T08:48:24.062Z</time>
      </trkpt>
      <trkpt lat="47.22692" lon="-1.70273">
        <ele>59.5</ele>
        <time>2016-04-03T08:48:25.061Z</time>
      </trkpt>
      <trkpt lat="47.22685" lon="-1.70282">
        <ele>58.3</ele>
        <time>2016-04-03T08:48:38.192Z</time>
      </trkpt>
      <trkpt lat="47.22685" lon="-1.70283">
        <ele>58.2</ele>
        <time>2016-04-03T08:48:39.071Z</time>
      </trkpt>
      <trkpt lat="47.22679" lon="-1.7029">
        <ele>57.6</ele>
        <time>2016-04-03T08:48:47.180Z</time>
      </trkpt>
      <trkpt lat="47.22677" lon="-1.70291">
        <ele>57.6</ele>
        <time>2016-04-03T08:48:48.080Z</time>
      </trkpt>
      <trkpt lat="47.22669" lon="-1.70295">
        <ele>57.2</ele>
        <time>2016-04-03T08:48:55.190Z</time>
      </trkpt>
      <trkpt lat="47.22668" lon="-1.70296">
        <ele>57.1</ele>
        <time>2016-04-03T08:48:56.103Z</time>
      </trkpt>
      <trkpt lat="47.22659" lon="-1.70296">
        <ele>56.4</ele>
        <time>2016-04-03T08:49:03.288Z</time>
      </trkpt>
      <trkpt lat="47.22657" lon="-1.70295">
        <ele>56.4</ele>
        <time>2016-04-03T08:49:04.147Z</time>
      </trkpt>
      <trkpt lat="47.22649" lon="-1.70293">
        <ele>56</ele>
        <time>2016-04-03T08:49:11.185Z</time>
      </trkpt>
      <trkpt lat="47.22648" lon="-1.70293">
        <ele>56</ele>
        <time>2016-04-03T08:49:12.101Z</time>
      </trkpt>
      <trkpt lat="47.2264" lon="-1.7029">
        <ele>56</ele>
        <time>2016-04-03T08:49:20.704Z</time>
      </trkpt>
      <trkpt lat="47.22638" lon="-1.7029">
        <ele>56</ele>
        <time>2016-04-03T08:49:21.044Z</time>
      </trkpt>
      <trkpt lat="47.2263" lon="-1.70289">
        <ele>56.2</ele>
        <time>2016-04-03T08:49:30.074Z</time>
      </trkpt>
      <trkpt lat="47.22628" lon="-1.70289">
        <ele>56.3</ele>
        <time>2016-04-03T08:49:31.062Z</time>
      </trkpt>
      <trkpt lat="47.2262" lon="-1.7029">
        <ele>56.3</ele>
        <time>2016-04-03T08:49:36.240Z</time>
      </trkpt>
      <trkpt lat="47.22618" lon="-1.7029">
        <ele>56.4</ele>
        <time>2016-04-03T08:49:37.103Z</time>
      </trkpt>
      <trkpt lat="47.2261" lon="-1.70291">
        <ele>56.5</ele>
        <time>2016-04-03T08:49:46.089Z</time>
      </trkpt>
      <trkpt lat="47.22608" lon="-1.70292">
        <ele>56.6</ele>
        <time>2016-04-03T08:49:47.051Z</time>
      </trkpt>
      <trkpt lat="47.22601" lon="-1.70293">
        <ele>56.9</ele>
        <time>2016-04-03T08:49:50.185Z</time>
      </trkpt>
      <trkpt lat="47.22598" lon="-1.70293">
        <ele>56.9</ele>
        <time>2016-04-03T08:49:51.055Z</time>
      </trkpt>
      <trkpt lat="47.22589" lon="-1.70293">
        <ele>56.9</ele>
        <time>2016-04-03T08:49:55.194Z</time>
      </trkpt>
      <trkpt lat="47.22589" lon="-1.70293">
        <ele>56.9</ele>
        <time>2016-04-03T08:49:56.049Z</time>
      </trkpt>
      <trkpt lat="47.2258" lon="-1.7029">
        <ele>56.7</ele>
        <time>2016-04-03T08:50:02.141Z</time>
      </trkpt>
      <trkpt lat="47.22579" lon="-1.7029">
        <ele>56.7</ele>
        <time>2016-04-03T08:50:03.094Z</time>
      </trkpt>
      <trkpt lat="47.22571" lon="-1.70288">
        <ele>56.6</ele>
        <time>2016-04-03T08:50:09.295Z</time>
      </trkpt>
      <trkpt lat="47.22569" lon="-1.70287">
        <ele>56.6</ele>
        <time>2016-04-03T08:50:10.091Z</time>
      </trkpt>
      <trkpt lat="47.22562" lon="-1.70283">
        <ele>56.8</ele>
        <time>2016-04-03T08:50:16.245Z</time>
      </trkpt>
      <trkpt lat="47.2256" lon="-1.70282">
        <ele>56.7</ele>
        <time>2016-04-03T08:50:17.182Z</time>
      </trkpt>
      <trkpt lat="47.22553" lon="-1.70276">
        <ele>56.5</ele>
        <time>2016-04-03T08:50:22.198Z</time>
      </trkpt>
      <trkpt lat="47.22551" lon="-1.70276">
        <ele>56.4</ele>
        <time>2016-04-03T08:50:23.101Z</time>
      </trkpt>
      <trkpt lat="47.22545" lon="-1.70268">
        <ele>56</ele>
        <time>2016-04-03T08:50:31.590Z</time>
      </trkpt>
      <trkpt lat="47.22543" lon="-1.70267">
        <ele>55.9</ele>
        <time>2016-04-03T08:50:32.115Z</time>
      </trkpt>
      <trkpt lat="47.22536" lon="-1.70262">
        <ele>55.8</ele>
        <time>2016-04-03T08:50:38.245Z</time>
      </trkpt>
      <trkpt lat="47.22535" lon="-1.70262">
        <ele>55.8</ele>
        <time>2016-04-03T08:50:39.106Z</time>
      </trkpt>
      <trkpt lat="47.22527" lon="-1.70258">
        <ele>55.8</ele>
        <time>2016-04-03T08:50:46.208Z</time>
      </trkpt>
      <trkpt lat="47.22526" lon="-1.70258">
        <ele>55.8</ele>
        <time>2016-04-03T08:50:47.102Z</time>
      </trkpt>
      <trkpt lat="47.22518" lon="-1.70255">
        <ele>55.7</ele>
        <time>2016-04-03T08:50:53.201Z</time>
      </trkpt>
      <trkpt lat="47.22516" lon="-1.70254">
        <ele>55.6</ele>
        <time>2016-04-03T08:50:54.573Z</time>
      </trkpt>
      <trkpt lat="47.22509" lon="-1.70249">
        <ele>55.4</ele>
        <time>2016-04-03T08:50:59.224Z</time>
      </trkpt>
      <trkpt lat="47.22508" lon="-1.70248">
        <ele>55.4</ele>
        <time>2016-04-03T08:51:00.160Z</time>
      </trkpt>
      <trkpt lat="47.22501" lon="-1.7024">
        <ele>55.2</ele>
        <time>2016-04-03T08:51:06.194Z</time>
      </trkpt>
      <trkpt lat="47.225" lon="-1.70238">
        <ele>55.2</ele>
        <time>2016-04-03T08:51:07.093Z</time>
      </trkpt>
      <trkpt lat="47.22494" lon="-1.70229">
        <ele>55</ele>
        <time>2016-04-03T08:51:13.114Z</time>
      </trkpt>
      <trkpt lat="47.22492" lon="-1.70228">
        <ele>55</ele>
        <time>2016-04-03T08:51:14.113Z</time>
      </trkpt>
      <trkpt lat="47.22486" lon="-1.70219">
        <ele>54.8</ele>
        <time>2016-04-03T08:51:20.176Z</time>
      </trkpt>
      <trkpt lat="47.22485" lon="-1.70218">
        <ele>54.8</ele>
        <time>2016-04-03T08:51:21.074Z</time>
      </trkpt>
      <trkpt lat="47.22478" lon="-1.70209">
        <ele>54.9</ele>
        <time>2016-04-03T08:51:29.226Z</time>
      </trkpt>
      <trkpt lat="47.22477" lon="-1.70208">
        <ele>54.9</ele>
        <time>2016-04-03T08:51:30.105Z</time>
      </trkpt>
      <trkpt lat="47.22472" lon="-1.70197">
        <ele>55.1</ele>
        <time>2016-04-03T08:51:36.218Z</time>
      </trkpt>
      <trkpt lat="47.22471" lon="-1.70195">
        <ele>55.1</ele>
        <time>2016-04-03T08:51:37.181Z</time>
      </trkpt>
      <trkpt lat="47.22463" lon="-1.70188">
        <ele>54.9</ele>
        <time>2016-04-03T08:51:42.596Z</time>
      </trkpt>
      <trkpt lat="47.22462" lon="-1.70187">
        <ele>54.9</ele>
        <time>2016-04-03T08:51:43.052Z</time>
      </trkpt>
      <trkpt lat="47.22456" lon="-1.70179">
        <ele>54.5</ele>
        <time>2016-04-03T08:51:48.225Z</time>
      </trkpt>
      <trkpt lat="47.22455" lon="-1.70178">
        <ele>54.4</ele>
        <time>2016-04-03T08:51:49.105Z</time>
      </trkpt>
      <trkpt lat="47.22448" lon="-1.7017">
        <ele>54.2</ele>
        <time>2016-04-03T08:51:56.187Z</time>
      </trkpt>
      <trkpt lat="47.22447" lon="-1.70169">
        <ele>54.2</ele>
        <time>2016-04-03T08:51:57.304Z</time>
      </trkpt>
      <trkpt lat="47.22441" lon="-1.70162">
        <ele>53.9</ele>
        <time>2016-04-03T08:52:03.233Z</time>
      </trkpt>
      <trkpt lat="47.2244" lon="-1.70159">
        <ele>53.8</ele>
        <time>2016-04-03T08:52:04.097Z</time>
      </trkpt>
      <trkpt lat="47.22436" lon="-1.70149">
        <ele>53.7</ele>
        <time>2016-04-03T08:52:08.278Z</time>
      </trkpt>
      <trkpt lat="47.22436" lon="-1.70148">
        <ele>53.7</ele>
        <time>2016-04-03T08:52:09.145Z</time>
      </trkpt>
      <trkpt lat="47.22431" lon="-1.70138">
        <ele>53.2</ele>
        <time>2016-04-03T08:52:15.196Z</time>
      </trkpt>
      <trkpt lat="47.22429" lon="-1.70135">
        <ele>53</ele>
        <time>2016-04-03T08:52:16.110Z</time>
      </trkpt>
      <trkpt lat="47.22423" lon="-1.70127">
        <ele>52.3</ele>
        <time>2016-04-03T08:52:23.570Z</time>
      </trkpt>
      <trkpt lat="47.22422" lon="-1.70126">
        <ele>52.3</ele>
        <time>2016-04-03T08:52:24.082Z</time>
      </trkpt>
      <trkpt lat="47.22415" lon="-1.70119">
        <ele>52.2</ele>
        <time>2016-04-03T08:52:30.205Z</time>
      </trkpt>
      <trkpt lat="47.22414" lon="-1.70118">
        <ele>52.2</ele>
        <time>2016-04-03T08:52:31.273Z</time>
      </trkpt>
      <trkpt lat="47.22407" lon="-1.70113">
        <ele>52.1</ele>
        <time>2016-04-03T08:52:36.102Z</time>
      </trkpt>
      <trkpt lat="47.22405" lon="-1.70112">
        <ele>52.1</ele>
        <time>2016-04-03T08:52:37.075Z</time>
      </trkpt>
      <trkpt lat="47.22399" lon="-1.70106">
        <ele>52</ele>
        <time>2016-04-03T08:52:42.178Z</time>
      </trkpt>
      <trkpt lat="47.22397" lon="-1.70105">
        <ele>52</ele>
        <time>2016-04-03T08:52:43.064Z</time>
      </trkpt>
      <trkpt lat="47.22391" lon="-1.70098">
        <ele>51.9</ele>
        <time>2016-04-03T08:52:49.125Z</time>
      </trkpt>
      <trkpt lat="47.2239" lon="-1.70097">
        <ele>51.9</ele>
        <time>2016-04-03T08:52:50.172Z</time>
      </trkpt>
      <trkpt lat="47.22382" lon="-1.70094">
        <ele>51.6</ele>
        <time>2016-04-03T08:52:56.205Z</time>
      </trkpt>
      <trkpt lat="47.2238" lon="-1.70094">
        <ele>51.7</ele>
        <time>2016-04-03T08:52:57.104Z</time>
      </trkpt>
      <trkpt lat="47.22373" lon="-1.70089">
        <ele>51.8</ele>
        <time>2016-04-03T08:53:03.215Z</time>
      </trkpt>
      <trkpt lat="47.22371" lon="-1.70088">
        <ele>51.8</ele>
        <time>2016-04-03T08:53:04.240Z</time>
      </trkpt>
      <trkpt lat="47.22364" lon="-1.70084">
        <ele>52</ele>
        <time>2016-04-03T08:53:10.128Z</time>
      </trkpt>
      <trkpt lat="47.22363" lon="-1.70084">
        <ele>52</ele>
        <time>2016-04-03T08:53:11.200Z</time>
      </trkpt>
      <trkpt lat="47.22355" lon="-1.70079">
        <ele>52.4</ele>
        <time>2016-04-03T08:53:17.138Z</time>
      </trkpt>
      <trkpt lat="47.22353" lon="-1.70078">
        <ele>52.4</ele>
        <time>2016-04-03T08:53:18.108Z</time>
      </trkpt>
      <trkpt lat="47.22345" lon="-1.70073">
        <ele>52.2</ele>
        <time>2016-04-03T08:53:25.126Z</time>
      </trkpt>
      <trkpt lat="47.22344" lon="-1.70072">
        <ele>52.2</ele>
        <time>2016-04-03T08:53:26.156Z</time>
      </trkpt>
      <trkpt lat="47.22337" lon="-1.70066">
        <ele>51.9</ele>
        <time>2016-04-03T08:53:32.244Z</time>
      </trkpt>
      <trkpt lat="47.22336" lon="-1.70065">
        <ele>51.9</ele>
        <time>2016-04-03T08:53:33.095Z</time>
      </trkpt>
      <trkpt lat="47.22328" lon="-1.7006">
        <ele>51.8</ele>
        <time>2016-04-03T08:53:38.272Z</time>
      </trkpt>
      <trkpt lat="47.22328" lon="-1.70059">
        <ele>51.9</ele>
        <time>2016-04-03T08:53:39.075Z</time>
      </trkpt>
      <trkpt lat="47.2232" lon="-1.70055">
        <ele>52.1</ele>
        <time>2016-04-03T08:53:45.270Z</time>
      </trkpt>
      <trkpt lat="47.22319" lon="-1.70054">
        <ele>52.1</ele>
        <time>2016-04-03T08:53:46.077Z</time>
      </trkpt>
      <trkpt lat="47.22311" lon="-1.70049">
        <ele>52</ele>
        <time>2016-04-03T08:53:50.250Z</time>
      </trkpt>
      <trkpt lat="47.2231" lon="-1.70048">
        <ele>52</ele>
        <time>2016-04-03T08:53:51.082Z</time>
      </trkpt>
      <trkpt lat="47.22302" lon="-1.70042">
        <ele>51.9</ele>
        <time>2016-04-03T08:53:58.074Z</time>
      </trkpt>
      <trkpt lat="47.22302" lon="-1.70041">
        <ele>51.8</ele>
        <time>2016-04-03T08:53:59.101Z</time>
      </trkpt>
      <trkpt lat="47.22296" lon="-1.70034">
        <ele>51.8</ele>
        <time>2016-04-03T08:54:04.170Z</time>
      </trkpt>
      <trkpt lat="47.22295" lon="-1.70032">
        <ele>51.9</ele>
        <time>2016-04-03T08:54:05.123Z</time>
      </trkpt>
      <trkpt lat="47.2229" lon="-1.70022">
        <ele>52.1</ele>
        <time>2016-04-03T08:54:11.129Z</time>
      </trkpt>
      <trkpt lat="47.22289" lon="-1.70021">
        <ele>52.2</ele>
        <time>2016-04-03T08:54:12.126Z</time>
      </trkpt>
      <trkpt lat="47.22283" lon="-1.70011">
        <ele>52.6</ele>
        <time>2016-04-03T08:54:20.209Z</time>
      </trkpt>
      <trkpt lat="47.22282" lon="-1.70009">
        <ele>52.7</ele>
        <time>2016-04-03T08:54:21.102Z</time>
      </trkpt>
      <trkpt lat="47.22276" lon="-1.69998">
        <ele>52.8</ele>
        <time>2016-04-03T08:54:27.195Z</time>
      </trkpt>
      <trkpt lat="47.22275" lon="-1.69997">
        <ele>52.8</ele>
        <time>2016-04-03T08:54:28.064Z</time>
      </trkpt>
      <trkpt lat="47.2227" lon="-1.69988">
        <ele>52.7</ele>
        <time>2016-04-03T08:54:34.267Z</time>
      </trkpt>
      <trkpt lat="47.22269" lon="-1.69987">
        <ele>52.7</ele>
        <time>2016-04-03T08:54:35.112Z</time>
      </trkpt>
      <trkpt lat="47.22263" lon="-1.69979">
        <ele>52.9</ele>
        <time>2016-04-03T08:54:42.211Z</time>
      </trkpt>
      <trkpt lat="47.22262" lon="-1.69978">
        <ele>52.9</ele>
        <time>2016-04-03T08:54:43.063Z</time>
      </trkpt>
      <trkpt lat="47.22256" lon="-1.69972">
        <ele>53.3</ele>
        <time>2016-04-03T08:54:49.225Z</time>
      </trkpt>
      <trkpt lat="47.22254" lon="-1.69971">
        <ele>53.2</ele>
        <time>2016-04-03T08:54:50.128Z</time>
      </trkpt>
      <trkpt lat="47.22248" lon="-1.69965">
        <ele>53.5</ele>
        <time>2016-04-03T08:54:56.235Z</time>
      </trkpt>
      <trkpt lat="47.22247" lon="-1.69964">
        <ele>53.6</ele>
        <time>2016-04-03T08:54:57.114Z</time>
      </trkpt>
      <trkpt lat="47.22239" lon="-1.69958">
        <ele>53.7</ele>
        <time>2016-04-03T08:55:03.157Z</time>
      </trkpt>
      <trkpt lat="47.22237" lon="-1.69956">
        <ele>53.7</ele>
        <time>2016-04-03T08:55:04.119Z</time>
      </trkpt>
      <trkpt lat="47.2223" lon="-1.69952">
        <ele>53.6</ele>
        <time>2016-04-03T08:55:10.153Z</time>
      </trkpt>
      <trkpt lat="47.22228" lon="-1.69951">
        <ele>53.6</ele>
        <time>2016-04-03T08:55:11.105Z</time>
      </trkpt>
      <trkpt lat="47.22222" lon="-1.69943">
        <ele>53.8</ele>
        <time>2016-04-03T08:55:18.229Z</time>
      </trkpt>
      <trkpt lat="47.22221" lon="-1.69942">
        <ele>53.9</ele>
        <time>2016-04-03T08:55:19.105Z</time>
      </trkpt>
      <trkpt lat="47.22213" lon="-1.6994">
        <ele>54.2</ele>
        <time>2016-04-03T08:55:24.248Z</time>
      </trkpt>
      <trkpt lat="47.22211" lon="-1.69939">
        <ele>54.3</ele>
        <time>2016-04-03T08:55:25.062Z</time>
      </trkpt>
      <trkpt lat="47.22203" lon="-1.69937">
        <ele>54.5</ele>
        <time>2016-04-03T08:55:33.186Z</time>
      </trkpt>
      <trkpt lat="47.22202" lon="-1.69937">
        <ele>54.5</ele>
        <time>2016-04-03T08:55:34.297Z</time>
      </trkpt>
      <trkpt lat="47.22193" lon="-1.69935">
        <ele>54.8</ele>
        <time>2016-04-03T08:55:44.155Z</time>
      </trkpt>
      <trkpt lat="47.22193" lon="-1.69934">
        <ele>54.9</ele>
        <time>2016-04-03T08:55:45.109Z</time>
      </trkpt>
      <trkpt lat="47.22185" lon="-1.69935">
        <ele>55</ele>
        <time>2016-04-03T08:55:50.338Z</time>
      </trkpt>
      <trkpt lat="47.22183" lon="-1.69936">
        <ele>55</ele>
        <time>2016-04-03T08:55:51.115Z</time>
      </trkpt>
      <trkpt lat="47.22176" lon="-1.6994">
        <ele>54.8</ele>
        <time>2016-04-03T08:55:58.141Z</time>
      </trkpt>
      <trkpt lat="47.22175" lon="-1.6994">
        <ele>54.8</ele>
        <time>2016-04-03T08:55:59.089Z</time>
      </trkpt>
      <trkpt lat="47.22167" lon="-1.69944">
        <ele>54.7</ele>
        <time>2016-04-03T08:56:02.188Z</time>
      </trkpt>
      <trkpt lat="47.22165" lon="-1.69946">
        <ele>54.7</ele>
        <time>2016-04-03T08:56:03.105Z</time>
      </trkpt>
      <trkpt lat="47.22159" lon="-1.69951">
        <ele>54.8</ele>
        <time>2016-04-03T08:56:07.286Z</time>
      </trkpt>
      <trkpt lat="47.22157" lon="-1.69952">
        <ele>54.8</ele>
        <time>2016-04-03T08:56:08.064Z</time>
      </trkpt>
      <trkpt lat="47.2215" lon="-1.69959">
        <ele>54.6</ele>
        <time>2016-04-03T08:56:12.238Z</time>
      </trkpt>
      <trkpt lat="47.22149" lon="-1.69961">
        <ele>54.6</ele>
        <time>2016-04-03T08:56:13.062Z</time>
      </trkpt>
      <trkpt lat="47.22143" lon="-1.69968">
        <ele>54.5</ele>
        <time>2016-04-03T08:56:18.229Z</time>
      </trkpt>
      <trkpt lat="47.22142" lon="-1.6997">
        <ele>54.5</ele>
        <time>2016-04-03T08:56:19.110Z</time>
      </trkpt>
      <trkpt lat="47.22136" lon="-1.69979">
        <ele>54.3</ele>
        <time>2016-04-03T08:56:25.126Z</time>
      </trkpt>
      <trkpt lat="47.22135" lon="-1.6998">
        <ele>54.3</ele>
        <time>2016-04-03T08:56:26.102Z</time>
      </trkpt>
      <trkpt lat="47.2213" lon="-1.69991">
        <ele>54.1</ele>
        <time>2016-04-03T08:56:35.211Z</time>
      </trkpt>
      <trkpt lat="47.22129" lon="-1.69993">
        <ele>54.1</ele>
        <time>2016-04-03T08:56:36.091Z</time>
      </trkpt>
      <trkpt lat="47.22124" lon="-1.70003">
        <ele>54.2</ele>
        <time>2016-04-03T08:56:43.135Z</time>
      </trkpt>
      <trkpt lat="47.22123" lon="-1.70003">
        <ele>54.2</ele>
        <time>2016-04-03T08:56:44.108Z</time>
      </trkpt>
      <trkpt lat="47.22117" lon="-1.70012">
        <ele>54.2</ele>
        <time>2016-04-03T08:56:48.209Z</time>
      </trkpt>
      <trkpt lat="47.22116" lon="-1.70014">
        <ele>54.2</ele>
        <time>2016-04-03T08:56:49.100Z</time>
      </trkpt>
      <trkpt lat="47.2211" lon="-1.70021">
        <ele>54.2</ele>
        <time>2016-04-03T08:56:53.215Z</time>
      </trkpt>
      <trkpt lat="47.22108" lon="-1.70023">
        <ele>54.2</ele>
        <time>2016-04-03T08:56:54.096Z</time>
      </trkpt>
      <trkpt lat="47.22101" lon="-1.70024">
        <ele>53.7</ele>
        <time>2016-04-03T08:57:06.114Z</time>
      </trkpt>
      <trkpt lat="47.22099" lon="-1.70022">
        <ele>53.8</ele>
        <time>2016-04-03T08:57:07.095Z</time>
      </trkpt>
      <trkpt lat="47.22092" lon="-1.70017">
        <ele>53.9</ele>
        <time>2016-04-03T08:57:13.091Z</time>
      </trkpt>
      <trkpt lat="47.2209" lon="-1.70016">
        <ele>53.9</ele>
        <time>2016-04-03T08:57:14.112Z</time>
      </trkpt>
      <trkpt lat="47.22083" lon="-1.7001">
        <ele>53.7</ele>
        <time>2016-04-03T08:57:18.178Z</time>
      </trkpt>
      <trkpt lat="47.22081" lon="-1.70008">
        <ele>53.6</ele>
        <time>2016-04-03T08:57:19.110Z</time>
      </trkpt>
      <trkpt lat="47.22074" lon="-1.70001">
        <ele>53.2</ele>
        <time>2016-04-03T08:57:25.173Z</time>
      </trkpt>
      <trkpt lat="47.22073" lon="-1.69999">
        <ele>53.1</ele>
        <time>2016-04-03T08:57:26.103Z</time>
      </trkpt>
      <trkpt lat="47.22066" lon="-1.69991">
        <ele>52.6</ele>
        <time>2016-04-03T08:57:34.208Z</time>
      </trkpt>
      <trkpt lat="47.22065" lon="-1.6999">
        <ele>52.5</ele>
        <time>2016-04-03T08:57:35.091Z</time>
      </trkpt>
      <trkpt lat="47.22059" lon="-1.6998">
        <ele>52.3</ele>
        <time>2016-04-03T08:57:44.231Z</time>
      </trkpt>
      <trkpt lat="47.22058" lon="-1.69979">
        <ele>52.3</ele>
        <time>2016-04-03T08:57:45.103Z</time>
      </trkpt>
      <trkpt lat="47.22052" lon="-1.69971">
        <ele>52.4</ele>
        <time>2016-04-03T08:57:49.235Z</time>
      </trkpt>
      <trkpt lat="47.2205" lon="-1.69968">
        <ele>52.3</ele>
        <time>2016-04-03T08:57:50.103Z</time>
      </trkpt>
      <trkpt lat="47.22045" lon="-1.69959">
        <ele>52.2</ele>
        <time>2016-04-03T08:57:57.206Z</time>
      </trkpt>
      <trkpt lat="47.22045" lon="-1.69958">
        <ele>52.2</ele>
        <time>2016-04-03T08:57:58.059Z</time>
      </trkpt>
      <trkpt lat="47.22043" lon="-1.69945">
        <ele>52.9</ele>
        <time>2016-04-03T08:58:07.220Z</time>
      </trkpt>
      <trkpt lat="47.22043" lon="-1.69943">
        <ele>52.9</ele>
        <time>2016-04-03T08:58:08.075Z</time>
      </trkpt>
      <trkpt lat="47.22042" lon="-1.69931">
        <ele>53.3</ele>
        <time>2016-04-03T08:58:15.116Z</time>
      </trkpt>
      <trkpt lat="47.22041" lon="-1.6993">
        <ele>53.3</ele>
        <time>2016-04-03T08:58:16.106Z</time>
      </trkpt>
      <trkpt lat="47.2204" lon="-1.69917">
        <ele>53.9</ele>
        <time>2016-04-03T08:58:23.311Z</time>
      </trkpt>
      <trkpt lat="47.2204" lon="-1.69916">
        <ele>54</ele>
        <time>2016-04-03T08:58:24.082Z</time>
      </trkpt>
      <trkpt lat="47.22039" lon="-1.69904">
        <ele>54.7</ele>
        <time>2016-04-03T08:58:31.204Z</time>
      </trkpt>
      <trkpt lat="47.22039" lon="-1.69903">
        <ele>54.9</ele>
        <time>2016-04-03T08:58:32.083Z</time>
      </trkpt>
      <trkpt lat="47.22037" lon="-1.69891">
        <ele>55.6</ele>
        <time>2016-04-03T08:58:39.253Z</time>
      </trkpt>
      <trkpt lat="47.22037" lon="-1.69889">
        <ele>55.7</ele>
        <time>2016-04-03T08:58:40.099Z</time>
      </trkpt>
      <trkpt lat="47.22037" lon="-1.69878">
        <ele>56.6</ele>
        <time>2016-04-03T08:58:47.117Z</time>
      </trkpt>
      <trkpt lat="47.22037" lon="-1.69876">
        <ele>56.7</ele>
        <time>2016-04-03T08:58:48.114Z</time>
      </trkpt>
      <trkpt lat="47.22037" lon="-1.69864">
        <ele>57.3</ele>
        <time>2016-04-03T08:58:54.221Z</time>
      </trkpt>
      <trkpt lat="47.22038" lon="-1.69862">
        <ele>57.5</ele>
        <time>2016-04-03T08:58:55.099Z</time>
      </trkpt>
      <trkpt lat="47.2204" lon="-1.6985">
        <ele>58.4</ele>
        <time>2016-04-03T08:59:03.170Z</time>
      </trkpt>
      <trkpt lat="47.2204" lon="-1.69849">
        <ele>58.6</ele>
        <time>2016-04-03T08:59:04.092Z</time>
      </trkpt>
      <trkpt lat="47.22037" lon="-1.69836">
        <ele>60.6</ele>
        <time>2016-04-03T08:59:19.276Z</time>
      </trkpt>
      <trkpt lat="47.22037" lon="-1.69836">
        <ele>60.7</ele>
        <time>2016-04-03T08:59:20.098Z</time>
      </trkpt>
      <trkpt lat="47.22041" lon="-1.69825">
        <ele>61.3</ele>
        <time>2016-04-03T08:59:27.458Z</time>
      </trkpt>
      <trkpt lat="47.22042" lon="-1.69824">
        <ele>61.5</ele>
        <time>2016-04-03T08:59:28.083Z</time>
      </trkpt>
      <trkpt lat="47.22046" lon="-1.69814">
        <ele>62.5</ele>
        <time>2016-04-03T08:59:34.225Z</time>
      </trkpt>
      <trkpt lat="47.22046" lon="-1.69813">
        <ele>62.6</ele>
        <time>2016-04-03T08:59:35.122Z</time>
      </trkpt>
      <trkpt lat="47.22051" lon="-1.69802">
        <ele>64</ele>
        <time>2016-04-03T08:59:45.161Z</time>
      </trkpt>
      <trkpt lat="47.22051" lon="-1.69801">
        <ele>64.1</ele>
        <time>2016-04-03T08:59:46.126Z</time>
      </trkpt>
      <trkpt lat="47.22055" lon="-1.6979">
        <ele>64.9</ele>
        <time>2016-04-03T08:59:52.087Z</time>
      </trkpt>
      <trkpt lat="47.22056" lon="-1.69789">
        <ele>65</ele>
        <time>2016-04-03T08:59:53.125Z</time>
      </trkpt>
      <trkpt lat="47.22058" lon="-1.69776">
        <ele>65.9</ele>
        <time>2016-04-03T09:00:03.257Z</time>
      </trkpt>
      <trkpt lat="47.22059" lon="-1.69776">
        <ele>66</ele>
        <time>2016-04-03T09:00:04.096Z</time>
      </trkpt>
      <trkpt lat="47.22056" lon="-1.69764">
        <ele>66</ele>
        <time>2016-04-03T09:00:33.191Z</time>
      </trkpt>
      <trkpt lat="47.22056" lon="-1.69763">
        <ele>65.9</ele>
        <time>2016-04-03T09:00:34.147Z</time>
      </trkpt>
      <trkpt lat="47.22064" lon="-1.69767">
        <ele>64.8</ele>
        <time>2016-04-03T09:01:11.158Z</time>
      </trkpt>
      <trkpt lat="47.22064" lon="-1.69767">
        <ele>64.7</ele>
        <time>2016-04-03T09:01:12.128Z</time>
      </trkpt>
      <trkpt lat="47.22056" lon="-1.69762">
        <ele>64.1</ele>
        <time>2016-04-03T09:02:15.241Z</time>
      </trkpt>
      <trkpt lat="47.22056" lon="-1.69762">
        <ele>64.1</ele>
        <time>2016-04-03T09:02:16.154Z</time>
      </trkpt>
      <trkpt lat="47.22047" lon="-1.69762">
        <ele>65.7</ele>
        <time>2016-04-03T09:02:36.193Z</time>
      </trkpt>
      <trkpt lat="47.22046" lon="-1.69764">
        <ele>65.8</ele>
        <time>2016-04-03T09:02:37.090Z</time>
      </trkpt>
      <trkpt lat="47.22038" lon="-1.69769">
        <ele>66.6</ele>
        <time>2016-04-03T09:02:43.146Z</time>
      </trkpt>
      <trkpt lat="47.22037" lon="-1.6977">
        <ele>66.7</ele>
        <time>2016-04-03T09:02:44.112Z</time>
      </trkpt>
      <trkpt lat="47.2203" lon="-1.69775">
        <ele>67.5</ele>
        <time>2016-04-03T09:02:53.161Z</time>
      </trkpt>
      <trkpt lat="47.22029" lon="-1.69775">
        <ele>67.5</ele>
        <time>2016-04-03T09:02:54.121Z</time>
      </trkpt>
      <trkpt lat="47.22021" lon="-1.6978">
        <ele>68.5</ele>
        <time>2016-04-03T09:03:04.201Z</time>
      </trkpt>
      <trkpt lat="47.22019" lon="-1.69781">
        <ele>68.6</ele>
        <time>2016-04-03T09:03:05.131Z</time>
      </trkpt>
      <trkpt lat="47.22011" lon="-1.69784">
        <ele>69.4</ele>
        <time>2016-04-03T09:03:11.173Z</time>
      </trkpt>
      <trkpt lat="47.22009" lon="-1.69785">
        <ele>69.6</ele>
        <time>2016-04-03T09:03:12.201Z</time>
      </trkpt>
      <trkpt lat="47.22002" lon="-1.69787">
        <ele>70.2</ele>
        <time>2016-04-03T09:03:17.154Z</time>
      </trkpt>
      <trkpt lat="47.22" lon="-1.69788">
        <ele>70.3</ele>
        <time>2016-04-03T09:03:18.134Z</time>
      </trkpt>
      <trkpt lat="47.21993" lon="-1.69792">
        <ele>70.9</ele>
        <time>2016-04-03T09:03:24.279Z</time>
      </trkpt>
      <trkpt lat="47.21991" lon="-1.69793">
        <ele>71</ele>
        <time>2016-04-03T09:03:25.071Z</time>
      </trkpt>
      <trkpt lat="47.21984" lon="-1.69799">
        <ele>71.8</ele>
        <time>2016-04-03T09:03:31.328Z</time>
      </trkpt>
      <trkpt lat="47.21983" lon="-1.69801">
        <ele>72</ele>
        <time>2016-04-03T09:03:32.108Z</time>
      </trkpt>
      <trkpt lat="47.21976" lon="-1.69807">
        <ele>72.6</ele>
        <time>2016-04-03T09:03:38.206Z</time>
      </trkpt>
      <trkpt lat="47.21975" lon="-1.69808">
        <ele>72.7</ele>
        <time>2016-04-03T09:03:39.109Z</time>
      </trkpt>
      <trkpt lat="47.21968" lon="-1.69814">
        <ele>73.4</ele>
        <time>2016-04-03T09:03:47.163Z</time>
      </trkpt>
      <trkpt lat="47.21966" lon="-1.69815">
        <ele>73.5</ele>
        <time>2016-04-03T09:03:48.120Z</time>
      </trkpt>
      <trkpt lat="47.21959" lon="-1.69819">
        <ele>73.8</ele>
        <time>2016-04-03T09:03:53.193Z</time>
      </trkpt>
      <trkpt lat="47.21957" lon="-1.6982">
        <ele>73.8</ele>
        <time>2016-04-03T09:03:54.117Z</time>
      </trkpt>
      <trkpt lat="47.21951" lon="-1.69827">
        <ele>74.2</ele>
        <time>2016-04-03T09:04:02.285Z</time>
      </trkpt>
      <trkpt lat="47.2195" lon="-1.69829">
        <ele>74.3</ele>
        <time>2016-04-03T09:04:03.135Z</time>
      </trkpt>
      <trkpt lat="47.21943" lon="-1.69836">
        <ele>74.9</ele>
        <time>2016-04-03T09:04:08.166Z</time>
      </trkpt>
      <trkpt lat="47.21942" lon="-1.69837">
        <ele>75.1</ele>
        <time>2016-04-03T09:04:09.136Z</time>
      </trkpt>
      <trkpt lat="47.21937" lon="-1.69841">
        <ele>75.6</ele>
        <time>2016-04-03T09:04:18.376Z</time>
      </trkpt>
      <trkpt lat="47.21933" lon="-1.69843">
        <ele>75.6</ele>
        <time>2016-04-03T09:04:19.106Z</time>
      </trkpt>
      <trkpt lat="47.21926" lon="-1.69848">
        <ele>75.5</ele>
        <time>2016-04-03T09:04:22.233Z</time>
      </trkpt>
      <trkpt lat="47.21925" lon="-1.69849">
        <ele>75.5</ele>
        <time>2016-04-03T09:04:23.548Z</time>
      </trkpt>
      <trkpt lat="47.21917" lon="-1.69855">
        <ele>75.5</ele>
        <time>2016-04-03T09:04:33.172Z</time>
      </trkpt>
      <trkpt lat="47.21917" lon="-1.69855">
        <ele>75.5</ele>
        <time>2016-04-03T09:04:34.132Z</time>
      </trkpt>
      <trkpt lat="47.2191" lon="-1.69859">
        <ele>75.7</ele>
        <time>2016-04-03T09:04:41.244Z</time>
      </trkpt>
      <trkpt lat="47.21906" lon="-1.69863">
        <ele>75.8</ele>
        <time>2016-04-03T09:04:42.152Z</time>
      </trkpt>
      <trkpt lat="47.21901" lon="-1.69867">
        <ele>75.8</ele>
        <time>2016-04-03T09:04:44.181Z</time>
      </trkpt>
      <trkpt lat="47.21899" lon="-1.6987">
        <ele>75.8</ele>
        <time>2016-04-03T09:04:45.120Z</time>
      </trkpt>
      <trkpt lat="47.21892" lon="-1.69876">
        <ele>75.8</ele>
        <time>2016-04-03T09:04:50.224Z</time>
      </trkpt>
      <trkpt lat="47.2189" lon="-1.69877">
        <ele>75.9</ele>
        <time>2016-04-03T09:04:51.121Z</time>
      </trkpt>
      <trkpt lat="47.21883" lon="-1.69885">
        <ele>75.8</ele>
        <time>2016-04-03T09:04:57.159Z</time>
      </trkpt>
      <trkpt lat="47.21882" lon="-1.69886">
        <ele>75.8</ele>
        <time>2016-04-03T09:04:58.095Z</time>
      </trkpt>
      <trkpt lat="47.21877" lon="-1.69897">
        <ele>75.5</ele>
        <time>2016-04-03T09:05:04.162Z</time>
      </trkpt>
      <trkpt lat="47.21876" lon="-1.69898">
        <ele>75.5</ele>
        <time>2016-04-03T09:05:05.091Z</time>
      </trkpt>
      <trkpt lat="47.21869" lon="-1.69903">
        <ele>75.6</ele>
        <time>2016-04-03T09:05:10.227Z</time>
      </trkpt>
      <trkpt lat="47.21868" lon="-1.69904">
        <ele>75.6</ele>
        <time>2016-04-03T09:05:11.111Z</time>
      </trkpt>
      <trkpt lat="47.21861" lon="-1.69912">
        <ele>76</ele>
        <time>2016-04-03T09:05:20.166Z</time>
      </trkpt>
      <trkpt lat="47.2186" lon="-1.69914">
        <ele>76.1</ele>
        <time>2016-04-03T09:05:21.128Z</time>
      </trkpt>
      <trkpt lat="47.21853" lon="-1.69921">
        <ele>76.2</ele>
        <time>2016-04-03T09:05:27.183Z</time>
      </trkpt>
      <trkpt lat="47.21851" lon="-1.69922">
        <ele>76.2</ele>
        <time>2016-04-03T09:05:28.088Z</time>
      </trkpt>
      <trkpt lat="47.21845" lon="-1.69931">
        <ele>76.1</ele>
        <time>2016-04-03T09:05:34.142Z</time>
      </trkpt>
      <trkpt lat="47.21844" lon="-1.69932">
        <ele>76.1</ele>
        <time>2016-04-03T09:05:35.079Z</time>
      </trkpt>
      <trkpt lat="47.21838" lon="-1.69942">
        <ele>76</ele>
        <time>2016-04-03T09:05:41.157Z</time>
      </trkpt>
      <trkpt lat="47.21837" lon="-1.69943">
        <ele>76.1</ele>
        <time>2016-04-03T09:05:42.120Z</time>
      </trkpt>
      <trkpt lat="47.2183" lon="-1.69951">
        <ele>75.8</ele>
        <time>2016-04-03T09:05:49.164Z</time>
      </trkpt>
      <trkpt lat="47.2183" lon="-1.69953">
        <ele>75.8</ele>
        <time>2016-04-03T09:05:50.130Z</time>
      </trkpt>
      <trkpt lat="47.21823" lon="-1.69962">
        <ele>75.6</ele>
        <time>2016-04-03T09:05:56.162Z</time>
      </trkpt>
      <trkpt lat="47.21822" lon="-1.69963">
        <ele>75.5</ele>
        <time>2016-04-03T09:05:57.082Z</time>
      </trkpt>
      <trkpt lat="47.21817" lon="-1.69972">
        <ele>75.4</ele>
        <time>2016-04-03T09:06:04.200Z</time>
      </trkpt>
      <trkpt lat="47.21816" lon="-1.69974">
        <ele>75.4</ele>
        <time>2016-04-03T09:06:05.128Z</time>
      </trkpt>
      <trkpt lat="47.2181" lon="-1.69982">
        <ele>75.2</ele>
        <time>2016-04-03T09:06:11.208Z</time>
      </trkpt>
      <trkpt lat="47.21808" lon="-1.69983">
        <ele>75.1</ele>
        <time>2016-04-03T09:06:12.123Z</time>
      </trkpt>
      <trkpt lat="47.21802" lon="-1.6999">
        <ele>74.8</ele>
        <time>2016-04-03T09:06:23.176Z</time>
      </trkpt>
      <trkpt lat="47.21801" lon="-1.69991">
        <ele>74.8</ele>
        <time>2016-04-03T09:06:24.116Z</time>
      </trkpt>
      <trkpt lat="47.21793" lon="-1.69998">
        <ele>74.8</ele>
        <time>2016-04-03T09:06:32.281Z</time>
      </trkpt>
      <trkpt lat="47.21792" lon="-1.7">
        <ele>74.8</ele>
        <time>2016-04-03T09:06:33.160Z</time>
      </trkpt>
      <trkpt lat="47.21786" lon="-1.70007">
        <ele>74.8</ele>
        <time>2016-04-03T09:06:36.110Z</time>
      </trkpt>
      <trkpt lat="47.21784" lon="-1.70009">
        <ele>74.7</ele>
        <time>2016-04-03T09:06:37.070Z</time>
      </trkpt>
      <trkpt lat="47.21778" lon="-1.70017">
        <ele>74.6</ele>
        <time>2016-04-03T09:06:41.191Z</time>
      </trkpt>
      <trkpt lat="47.21777" lon="-1.70018">
        <ele>74.6</ele>
        <time>2016-04-03T09:06:42.124Z</time>
      </trkpt>
      <trkpt lat="47.21771" lon="-1.70026">
        <ele>75</ele>
        <time>2016-04-03T09:06:50.206Z</time>
      </trkpt>
      <trkpt lat="47.2177" lon="-1.70028">
        <ele>75.1</ele>
        <time>2016-04-03T09:06:51.109Z</time>
      </trkpt>
      <trkpt lat="47.21764" lon="-1.70036">
        <ele>75.4</ele>
        <time>2016-04-03T09:06:56.170Z</time>
      </trkpt>
      <trkpt lat="47.21763" lon="-1.70037">
        <ele>75.4</ele>
        <time>2016-04-03T09:06:57.126Z</time>
      </trkpt>
      <trkpt lat="47.21755" lon="-1.70044">
        <ele>75.5</ele>
        <time>2016-04-03T09:07:03.230Z</time>
      </trkpt>
      <trkpt lat="47.21754" lon="-1.70045">
        <ele>75.6</ele>
        <time>2016-04-03T09:07:04.134Z</time>
      </trkpt>
      <trkpt lat="47.21748" lon="-1.70052">
        <ele>75.7</ele>
        <time>2016-04-03T09:07:08.200Z</time>
      </trkpt>
      <trkpt lat="47.21746" lon="-1.70053">
        <ele>75.8</ele>
        <time>2016-04-03T09:07:09.128Z</time>
      </trkpt>
      <trkpt lat="47.21739" lon="-1.70059">
        <ele>76.3</ele>
        <time>2016-04-03T09:07:16.240Z</time>
      </trkpt>
      <trkpt lat="47.21738" lon="-1.7006">
        <ele>76.3</ele>
        <time>2016-04-03T09:07:17.137Z</time>
      </trkpt>
      <trkpt lat="47.21731" lon="-1.70067">
        <ele>76.2</ele>
        <time>2016-04-03T09:07:23.118Z</time>
      </trkpt>
      <trkpt lat="47.2173" lon="-1.70068">
        <ele>76.1</ele>
        <time>2016-04-03T09:07:24.121Z</time>
      </trkpt>
      <trkpt lat="47.21724" lon="-1.70075">
        <ele>76.2</ele>
        <time>2016-04-03T09:07:31.158Z</time>
      </trkpt>
      <trkpt lat="47.21721" lon="-1.70077">
        <ele>76.2</ele>
        <time>2016-04-03T09:07:32.167Z</time>
      </trkpt>
      <trkpt lat="47.21713" lon="-1.70081">
        <ele>76.2</ele>
        <time>2016-04-03T09:07:40.187Z</time>
      </trkpt>
      <trkpt lat="47.21711" lon="-1.70081">
        <ele>76.2</ele>
        <time>2016-04-03T09:07:41.138Z</time>
      </trkpt>
      <trkpt lat="47.21704" lon="-1.70088">
        <ele>76.5</ele>
        <time>2016-04-03T09:07:52.162Z</time>
      </trkpt>
      <trkpt lat="47.21703" lon="-1.70088">
        <ele>76.5</ele>
        <time>2016-04-03T09:07:53.111Z</time>
      </trkpt>
      <trkpt lat="47.21694" lon="-1.7009">
        <ele>76.6</ele>
        <time>2016-04-03T09:08:01.110Z</time>
      </trkpt>
      <trkpt lat="47.21692" lon="-1.70091">
        <ele>76.6</ele>
        <time>2016-04-03T09:08:02.122Z</time>
      </trkpt>
      <trkpt lat="47.21683" lon="-1.70094">
        <ele>76.9</ele>
        <time>2016-04-03T09:08:06.162Z</time>
      </trkpt>
      <trkpt lat="47.21681" lon="-1.70095">
        <ele>76.8</ele>
        <time>2016-04-03T09:08:07.110Z</time>
      </trkpt>
      <trkpt lat="47.21673" lon="-1.70096">
        <ele>76.8</ele>
        <time>2016-04-03T09:08:11.224Z</time>
      </trkpt>
      <trkpt lat="47.21672" lon="-1.70096">
        <ele>76.8</ele>
        <time>2016-04-03T09:08:12.120Z</time>
      </trkpt>
      <trkpt lat="47.21664" lon="-1.70098">
        <ele>76.9</ele>
        <time>2016-04-03T09:08:17.202Z</time>
      </trkpt>
      <trkpt lat="47.21662" lon="-1.70099">
        <ele>76.9</ele>
        <time>2016-04-03T09:08:18.123Z</time>
      </trkpt>
      <trkpt lat="47.21654" lon="-1.70105">
        <ele>76.9</ele>
        <time>2016-04-03T09:08:26.180Z</time>
      </trkpt>
      <trkpt lat="47.21654" lon="-1.70105">
        <ele>76.9</ele>
        <time>2016-04-03T09:08:27.113Z</time>
      </trkpt>
      <trkpt lat="47.21645" lon="-1.70108">
        <ele>77</ele>
        <time>2016-04-03T09:08:35.107Z</time>
      </trkpt>
      <trkpt lat="47.21644" lon="-1.70108">
        <ele>77</ele>
        <time>2016-04-03T09:08:36.118Z</time>
      </trkpt>
      <trkpt lat="47.21636" lon="-1.70113">
        <ele>77.3</ele>
        <time>2016-04-03T09:08:44.285Z</time>
      </trkpt>
      <trkpt lat="47.21635" lon="-1.70114">
        <ele>77.3</ele>
        <time>2016-04-03T09:08:45.122Z</time>
      </trkpt>
      <trkpt lat="47.21629" lon="-1.70121">
        <ele>77.8</ele>
        <time>2016-04-03T09:08:51.211Z</time>
      </trkpt>
      <trkpt lat="47.21628" lon="-1.70122">
        <ele>77.8</ele>
        <time>2016-04-03T09:08:52.109Z</time>
      </trkpt>
      <trkpt lat="47.21619" lon="-1.70125">
        <ele>78</ele>
        <time>2016-04-03T09:09:00.377Z</time>
      </trkpt>
      <trkpt lat="47.21618" lon="-1.70126">
        <ele>78</ele>
        <time>2016-04-03T09:09:01.059Z</time>
      </trkpt>
      <trkpt lat="47.21612" lon="-1.70129">
        <ele>78</ele>
        <time>2016-04-03T09:09:04.152Z</time>
      </trkpt>
      <trkpt lat="47.2161" lon="-1.70131">
        <ele>77.9</ele>
        <time>2016-04-03T09:09:05.123Z</time>
      </trkpt>
      <trkpt lat="47.21603" lon="-1.70137">
        <ele>77.9</ele>
        <time>2016-04-03T09:09:09.291Z</time>
      </trkpt>
      <trkpt lat="47.21602" lon="-1.70139">
        <ele>78</ele>
        <time>2016-04-03T09:09:10.111Z</time>
      </trkpt>
      <trkpt lat="47.21595" lon="-1.70146">
        <ele>78.1</ele>
        <time>2016-04-03T09:09:14.177Z</time>
      </trkpt>
      <trkpt lat="47.21594" lon="-1.70147">
        <ele>78.1</ele>
        <time>2016-04-03T09:09:15.110Z</time>
      </trkpt>
      <trkpt lat="47.21588" lon="-1.70157">
        <ele>77.8</ele>
        <time>2016-04-03T09:09:21.952Z</time>
      </trkpt>
      <trkpt lat="47.21587" lon="-1.70159">
        <ele>77.7</ele>
        <time>2016-04-03T09:09:22.271Z</time>
      </trkpt>
      <trkpt lat="47.21581" lon="-1.70167">
        <ele>77.3</ele>
        <time>2016-04-03T09:09:29.164Z</time>
      </trkpt>
      <trkpt lat="47.21579" lon="-1.70169">
        <ele>77.3</ele>
        <time>2016-04-03T09:09:30.105Z</time>
      </trkpt>
      <trkpt lat="47.21574" lon="-1.70178">
        <ele>76.9</ele>
        <time>2016-04-03T09:09:37.271Z</time>
      </trkpt>
      <trkpt lat="47.21573" lon="-1.70179">
        <ele>76.9</ele>
        <time>2016-04-03T09:09:38.122Z</time>
      </trkpt>
      <trkpt lat="47.21567" lon="-1.70186">
        <ele>77.1</ele>
        <time>2016-04-03T09:09:45.142Z</time>
      </trkpt>
      <trkpt lat="47.21565" lon="-1.70187">
        <ele>77.2</ele>
        <time>2016-04-03T09:09:46.120Z</time>
      </trkpt>
      <trkpt lat="47.21558" lon="-1.70192">
        <ele>77.3</ele>
        <time>2016-04-03T09:09:53.297Z</time>
      </trkpt>
      <trkpt lat="47.21556" lon="-1.70194">
        <ele>77.2</ele>
        <time>2016-04-03T09:09:54.118Z</time>
      </trkpt>
      <trkpt lat="47.21548" lon="-1.70197">
        <ele>76.7</ele>
        <time>2016-04-03T09:10:01.237Z</time>
      </trkpt>
      <trkpt lat="47.21547" lon="-1.70197">
        <ele>76.7</ele>
        <time>2016-04-03T09:10:02.066Z</time>
      </trkpt>
      <trkpt lat="47.21539" lon="-1.70204">
        <ele>76.4</ele>
        <time>2016-04-03T09:10:09.265Z</time>
      </trkpt>
      <trkpt lat="47.21538" lon="-1.70205">
        <ele>76.3</ele>
        <time>2016-04-03T09:10:10.131Z</time>
      </trkpt>
      <trkpt lat="47.21531" lon="-1.70213">
        <ele>76.1</ele>
        <time>2016-04-03T09:10:20.216Z</time>
      </trkpt>
      <trkpt lat="47.21529" lon="-1.70214">
        <ele>76.2</ele>
        <time>2016-04-03T09:10:21.134Z</time>
      </trkpt>
      <trkpt lat="47.21521" lon="-1.70219">
        <ele>76</ele>
        <time>2016-04-03T09:10:24.563Z</time>
      </trkpt>
      <trkpt lat="47.2152" lon="-1.70219">
        <ele>76</ele>
        <time>2016-04-03T09:10:25.140Z</time>
      </trkpt>
      <trkpt lat="47.21512" lon="-1.70225">
        <ele>76</ele>
        <time>2016-04-03T09:10:33.380Z</time>
      </trkpt>
      <trkpt lat="47.21511" lon="-1.70225">
        <ele>76</ele>
        <time>2016-04-03T09:10:34.081Z</time>
      </trkpt>
      <trkpt lat="47.21504" lon="-1.70229">
        <ele>75.9</ele>
        <time>2016-04-03T09:10:40.264Z</time>
      </trkpt>
      <trkpt lat="47.21501" lon="-1.7023">
        <ele>75.9</ele>
        <time>2016-04-03T09:10:41.133Z</time>
      </trkpt>
      <trkpt lat="47.21492" lon="-1.70234">
        <ele>75.8</ele>
        <time>2016-04-03T09:10:45.121Z</time>
      </trkpt>
      <trkpt lat="47.2149" lon="-1.70236">
        <ele>75.8</ele>
        <time>2016-04-03T09:10:46.127Z</time>
      </trkpt>
      <trkpt lat="47.21483" lon="-1.70241">
        <ele>75.7</ele>
        <time>2016-04-03T09:10:51.158Z</time>
      </trkpt>
      <trkpt lat="47.21481" lon="-1.70242">
        <ele>75.6</ele>
        <time>2016-04-03T09:10:52.133Z</time>
      </trkpt>
      <trkpt lat="47.21473" lon="-1.70246">
        <ele>75.8</ele>
        <time>2016-04-03T09:11:00.386Z</time>
      </trkpt>
      <trkpt lat="47.21472" lon="-1.70246">
        <ele>75.8</ele>
        <time>2016-04-03T09:11:01.072Z</time>
      </trkpt>
      <trkpt lat="47.21466" lon="-1.70251">
        <ele>75.6</ele>
        <time>2016-04-03T09:11:06.201Z</time>
      </trkpt>
      <trkpt lat="47.21464" lon="-1.70253">
        <ele>75.6</ele>
        <time>2016-04-03T09:11:07.116Z</time>
      </trkpt>
      <trkpt lat="47.21458" lon="-1.7026">
        <ele>75.2</ele>
        <time>2016-04-03T09:11:16.169Z</time>
      </trkpt>
      <trkpt lat="47.21457" lon="-1.70261">
        <ele>75.1</ele>
        <time>2016-04-03T09:11:17.135Z</time>
      </trkpt>
      <trkpt lat="47.21449" lon="-1.70267">
        <ele>75</ele>
        <time>2016-04-03T09:11:22.231Z</time>
      </trkpt>
      <trkpt lat="47.21447" lon="-1.70268">
        <ele>75.1</ele>
        <time>2016-04-03T09:11:23.159Z</time>
      </trkpt>
      <trkpt lat="47.2144" lon="-1.70274">
        <ele>74.9</ele>
        <time>2016-04-03T09:11:29.267Z</time>
      </trkpt>
      <trkpt lat="47.21439" lon="-1.70274">
        <ele>74.9</ele>
        <time>2016-04-03T09:11:30.111Z</time>
      </trkpt>
      <trkpt lat="47.21432" lon="-1.70276">
        <ele>74.6</ele>
        <time>2016-04-03T09:11:39.166Z</time>
      </trkpt>
      <trkpt lat="47.2143" lon="-1.70278">
        <ele>74.6</ele>
        <time>2016-04-03T09:11:40.138Z</time>
      </trkpt>
      <trkpt lat="47.21422" lon="-1.70283">
        <ele>75</ele>
        <time>2016-04-03T09:11:46.235Z</time>
      </trkpt>
      <trkpt lat="47.2142" lon="-1.70284">
        <ele>75.1</ele>
        <time>2016-04-03T09:11:47.136Z</time>
      </trkpt>
      <trkpt lat="47.21412" lon="-1.70287">
        <ele>75.3</ele>
        <time>2016-04-03T09:11:50.176Z</time>
      </trkpt>
      <trkpt lat="47.2141" lon="-1.70287">
        <ele>75.3</ele>
        <time>2016-04-03T09:11:51.134Z</time>
      </trkpt>
      <trkpt lat="47.21402" lon="-1.7029">
        <ele>75.4</ele>
        <time>2016-04-03T09:11:57.232Z</time>
      </trkpt>
      <trkpt lat="47.21401" lon="-1.70291">
        <ele>75.4</ele>
        <time>2016-04-03T09:11:58.089Z</time>
      </trkpt>
      <trkpt lat="47.21394" lon="-1.70295">
        <ele>75.4</ele>
        <time>2016-04-03T09:12:04.522Z</time>
      </trkpt>
      <trkpt lat="47.21392" lon="-1.70296">
        <ele>75.4</ele>
        <time>2016-04-03T09:12:05.126Z</time>
      </trkpt>
      <trkpt lat="47.21384" lon="-1.70299">
        <ele>75.5</ele>
        <time>2016-04-03T09:12:10.254Z</time>
      </trkpt>
      <trkpt lat="47.21383" lon="-1.70299">
        <ele>75.5</ele>
        <time>2016-04-03T09:12:11.114Z</time>
      </trkpt>
      <trkpt lat="47.21375" lon="-1.703">
        <ele>75</ele>
        <time>2016-04-03T09:12:16.238Z</time>
      </trkpt>
      <trkpt lat="47.21373" lon="-1.70301">
        <ele>74.8</ele>
        <time>2016-04-03T09:12:17.135Z</time>
      </trkpt>
      <trkpt lat="47.21367" lon="-1.7031">
        <ele>73.5</ele>
        <time>2016-04-03T09:12:22.225Z</time>
      </trkpt>
      <trkpt lat="47.21366" lon="-1.70311">
        <ele>73.2</ele>
        <time>2016-04-03T09:12:23.113Z</time>
      </trkpt>
      <trkpt lat="47.21363" lon="-1.70322">
        <ele>71.7</ele>
        <time>2016-04-03T09:12:30.188Z</time>
      </trkpt>
      <trkpt lat="47.21363" lon="-1.70326">
        <ele>71.5</ele>
        <time>2016-04-03T09:12:31.140Z</time>
      </trkpt>
      <trkpt lat="47.21361" lon="-1.70337">
        <ele>70.2</ele>
        <time>2016-04-03T09:12:36.209Z</time>
      </trkpt>
      <trkpt lat="47.2136" lon="-1.70339">
        <ele>70</ele>
        <time>2016-04-03T09:12:37.149Z</time>
      </trkpt>
      <trkpt lat="47.21358" lon="-1.70351">
        <ele>68.8</ele>
        <time>2016-04-03T09:12:44.197Z</time>
      </trkpt>
      <trkpt lat="47.21357" lon="-1.70352">
        <ele>68.7</ele>
        <time>2016-04-03T09:12:45.162Z</time>
      </trkpt>
      <trkpt lat="47.21356" lon="-1.70364">
        <ele>68.2</ele>
        <time>2016-04-03T09:12:51.198Z</time>
      </trkpt>
      <trkpt lat="47.21355" lon="-1.70366">
        <ele>68.1</ele>
        <time>2016-04-03T09:12:52.131Z</time>
      </trkpt>
      <trkpt lat="47.21353" lon="-1.70378">
        <ele>67.5</ele>
        <time>2016-04-03T09:12:59.209Z</time>
      </trkpt>
      <trkpt lat="47.21352" lon="-1.70379">
        <ele>67.4</ele>
        <time>2016-04-03T09:13:00.243Z</time>
      </trkpt>
      <trkpt lat="47.2135" lon="-1.70392">
        <ele>67.1</ele>
        <time>2016-04-03T09:13:05.498Z</time>
      </trkpt>
      <trkpt lat="47.2135" lon="-1.70393">
        <ele>67</ele>
        <time>2016-04-03T09:13:06.075Z</time>
      </trkpt>
      <trkpt lat="47.21348" lon="-1.70406">
        <ele>66.4</ele>
        <time>2016-04-03T09:13:14.152Z</time>
      </trkpt>
      <trkpt lat="47.21347" lon="-1.70407">
        <ele>66.3</ele>
        <time>2016-04-03T09:13:15.107Z</time>
      </trkpt>
      <trkpt lat="47.21346" lon="-1.7042">
        <ele>66.3</ele>
        <time>2016-04-03T09:13:20.191Z</time>
      </trkpt>
      <trkpt lat="47.21346" lon="-1.70422">
        <ele>66.2</ele>
        <time>2016-04-03T09:13:21.088Z</time>
      </trkpt>
      <trkpt lat="47.21345" lon="-1.70434">
        <ele>65.6</ele>
        <time>2016-04-03T09:13:26.139Z</time>
      </trkpt>
      <trkpt lat="47.21345" lon="-1.70436">
        <ele>65.6</ele>
        <time>2016-04-03T09:13:27.183Z</time>
      </trkpt>
      <trkpt lat="47.21343" lon="-1.70448">
        <ele>64.8</ele>
        <time>2016-04-03T09:13:33.168Z</time>
      </trkpt>
      <trkpt lat="47.21343" lon="-1.70451">
        <ele>64.8</ele>
        <time>2016-04-03T09:13:34.134Z</time>
      </trkpt>
      <trkpt lat="47.21342" lon="-1.70463">
        <ele>64.1</ele>
        <time>2016-04-03T09:13:39.159Z</time>
      </trkpt>
      <trkpt lat="47.21342" lon="-1.70464">
        <ele>64</ele>
        <time>2016-04-03T09:13:40.130Z</time>
      </trkpt>
      <trkpt lat="47.21341" lon="-1.70475">
        <ele>63.4</ele>
        <time>2016-04-03T09:13:45.274Z</time>
      </trkpt>
      <trkpt lat="47.2134" lon="-1.70478">
        <ele>63.2</ele>
        <time>2016-04-03T09:13:46.095Z</time>
      </trkpt>
      <trkpt lat="47.21338" lon="-1.70489">
        <ele>62.7</ele>
        <time>2016-04-03T09:13:52.196Z</time>
      </trkpt>
      <trkpt lat="47.21338" lon="-1.7049">
        <ele>62.5</ele>
        <time>2016-04-03T09:13:53.134Z</time>
      </trkpt>
      <trkpt lat="47.21336" lon="-1.70502">
        <ele>62.1</ele>
        <time>2016-04-03T09:13:59.283Z</time>
      </trkpt>
      <trkpt lat="47.21336" lon="-1.70504">
        <ele>62.1</ele>
        <time>2016-04-03T09:14:00.217Z</time>
      </trkpt>
      <trkpt lat="47.21336" lon="-1.70516">
        <ele>62.1</ele>
        <time>2016-04-03T09:14:05.167Z</time>
      </trkpt>
      <trkpt lat="47.21336" lon="-1.70519">
        <ele>62</ele>
        <time>2016-04-03T09:14:06.129Z</time>
      </trkpt>
      <trkpt lat="47.21336" lon="-1.70531">
        <ele>61.3</ele>
        <time>2016-04-03T09:14:13.125Z</time>
      </trkpt>
      <trkpt lat="47.21336" lon="-1.70533">
        <ele>61.2</ele>
        <time>2016-04-03T09:14:14.145Z</time>
      </trkpt>
      <trkpt lat="47.21339" lon="-1.70543">
        <ele>61.3</ele>
        <time>2016-04-03T09:14:20.233Z</time>
      </trkpt>
      <trkpt lat="47.2134" lon="-1.70544">
        <ele>61.3</ele>
        <time>2016-04-03T09:14:21.134Z</time>
      </trkpt>
      <trkpt lat="47.21345" lon="-1.70555">
        <ele>60.8</ele>
        <time>2016-04-03T09:14:41.324Z</time>
      </trkpt>
      <trkpt lat="47.21345" lon="-1.70555">
        <ele>60.7</ele>
        <time>2016-04-03T09:14:42.153Z</time>
      </trkpt>
      <trkpt lat="47.21342" lon="-1.70566">
        <ele>60.2</ele>
        <time>2016-04-03T09:14:50.149Z</time>
      </trkpt>
      <trkpt lat="47.21341" lon="-1.70567">
        <ele>60.2</ele>
        <time>2016-04-03T09:14:51.106Z</time>
      </trkpt>
      <trkpt lat="47.21333" lon="-1.70573">
        <ele>60.2</ele>
        <time>2016-04-03T09:15:00.313Z</time>
      </trkpt>
      <trkpt lat="47.21332" lon="-1.70574">
        <ele>60.3</ele>
        <time>2016-04-03T09:15:01.136Z</time>
      </trkpt>
      <trkpt lat="47.21327" lon="-1.70582">
        <ele>60.7</ele>
        <time>2016-04-03T09:15:07.151Z</time>
      </trkpt>
      <trkpt lat="47.21326" lon="-1.70585">
        <ele>60.7</ele>
        <time>2016-04-03T09:15:08.130Z</time>
      </trkpt>
      <trkpt lat="47.21324" lon="-1.70596">
        <ele>60.7</ele>
        <time>2016-04-03T09:15:13.120Z</time>
      </trkpt>
      <trkpt lat="47.21324" lon="-1.70598">
        <ele>60.7</ele>
        <time>2016-04-03T09:15:14.112Z</time>
      </trkpt>
      <trkpt lat="47.21322" lon="-1.70611">
        <ele>60.5</ele>
        <time>2016-04-03T09:15:21.224Z</time>
      </trkpt>
      <trkpt lat="47.21322" lon="-1.70612">
        <ele>60.5</ele>
        <time>2016-04-03T09:15:22.117Z</time>
      </trkpt>
      <trkpt lat="47.2132" lon="-1.70624">
        <ele>60.6</ele>
        <time>2016-04-03T09:15:30.233Z</time>
      </trkpt>
      <trkpt lat="47.21319" lon="-1.70626">
        <ele>60.6</ele>
        <time>2016-04-03T09:15:31.451Z</time>
      </trkpt>
      <trkpt lat="47.21318" lon="-1.70639">
        <ele>60.9</ele>
        <time>2016-04-03T09:15:37.116Z</time>
      </trkpt>
      <trkpt lat="47.21317" lon="-1.70642">
        <ele>60.9</ele>
        <time>2016-04-03T09:15:38.102Z</time>
      </trkpt>
      <trkpt lat="47.21315" lon="-1.70654">
        <ele>60.9</ele>
        <time>2016-04-03T09:15:44.211Z</time>
      </trkpt>
      <trkpt lat="47.21314" lon="-1.70655">
        <ele>60.9</ele>
        <time>2016-04-03T09:15:45.109Z</time>
      </trkpt>
      <trkpt lat="47.21313" lon="-1.70668">
        <ele>61.3</ele>
        <time>2016-04-03T09:15:52.254Z</time>
      </trkpt>
      <trkpt lat="47.21313" lon="-1.7067">
        <ele>61.3</ele>
        <time>2016-04-03T09:15:53.064Z</time>
      </trkpt>
      <trkpt lat="47.21311" lon="-1.70681">
        <ele>61.6</ele>
        <time>2016-04-03T09:16:00.302Z</time>
      </trkpt>
      <trkpt lat="47.2131" lon="-1.70683">
        <ele>61.6</ele>
        <time>2016-04-03T09:16:01.072Z</time>
      </trkpt>
      <trkpt lat="47.21309" lon="-1.70696">
        <ele>61.7</ele>
        <time>2016-04-03T09:16:07.200Z</time>
      </trkpt>
      <trkpt lat="47.21309" lon="-1.70698">
        <ele>61.7</ele>
        <time>2016-04-03T09:16:08.119Z</time>
      </trkpt>
      <trkpt lat="47.21306" lon="-1.70709">
        <ele>61.9</ele>
        <time>2016-04-03T09:16:15.170Z</time>
      </trkpt>
      <trkpt lat="47.21306" lon="-1.70711">
        <ele>61.9</ele>
        <time>2016-04-03T09:16:16.129Z</time>
      </trkpt>
      <trkpt lat="47.21305" lon="-1.70724">
        <ele>62</ele>
        <time>2016-04-03T09:16:22.266Z</time>
      </trkpt>
      <trkpt lat="47.21305" lon="-1.70726">
        <ele>62</ele>
        <time>2016-04-03T09:16:23.112Z</time>
      </trkpt>
      <trkpt lat="47.21303" lon="-1.70738">
        <ele>62.2</ele>
        <time>2016-04-03T09:16:31.209Z</time>
      </trkpt>
      <trkpt lat="47.21302" lon="-1.70739">
        <ele>62.2</ele>
        <time>2016-04-03T09:16:32.134Z</time>
      </trkpt>
      <trkpt lat="47.21301" lon="-1.70751">
        <ele>62.7</ele>
        <time>2016-04-03T09:16:39.189Z</time>
      </trkpt>
      <trkpt lat="47.21301" lon="-1.70753">
        <ele>62.8</ele>
        <time>2016-04-03T09:16:40.127Z</time>
      </trkpt>
      <trkpt lat="47.21299" lon="-1.70765">
        <ele>63.3</ele>
        <time>2016-04-03T09:16:52.189Z</time>
      </trkpt>
      <trkpt lat="47.21299" lon="-1.70766">
        <ele>63.3</ele>
        <time>2016-04-03T09:16:53.121Z</time>
      </trkpt>
      <trkpt lat="47.21291" lon="-1.7077">
        <ele>64.3</ele>
        <time>2016-04-03T09:17:05.187Z</time>
      </trkpt>
      <trkpt lat="47.2129" lon="-1.70771">
        <ele>64.3</ele>
        <time>2016-04-03T09:17:06.103Z</time>
      </trkpt>
      <trkpt lat="47.21286" lon="-1.70782">
        <ele>65.6</ele>
        <time>2016-04-03T09:17:15.201Z</time>
      </trkpt>
      <trkpt lat="47.21286" lon="-1.70785">
        <ele>65.8</ele>
        <time>2016-04-03T09:17:16.164Z</time>
      </trkpt>
      <trkpt lat="47.21285" lon="-1.70798">
        <ele>66.8</ele>
        <time>2016-04-03T09:17:22.341Z</time>
      </trkpt>
      <trkpt lat="47.21285" lon="-1.708">
        <ele>67.1</ele>
        <time>2016-04-03T09:17:23.146Z</time>
      </trkpt>
      <trkpt lat="47.21284" lon="-1.70813">
        <ele>68.4</ele>
        <time>2016-04-03T09:17:29.173Z</time>
      </trkpt>
      <trkpt lat="47.21284" lon="-1.70815">
        <ele>68.5</ele>
        <time>2016-04-03T09:17:30.116Z</time>
      </trkpt>
      <trkpt lat="47.21283" lon="-1.70827">
        <ele>69.7</ele>
        <time>2016-04-03T09:17:37.169Z</time>
      </trkpt>
      <trkpt lat="47.21282" lon="-1.70828">
        <ele>69.8</ele>
        <time>2016-04-03T09:17:38.114Z</time>
      </trkpt>
      <trkpt lat="47.21282" lon="-1.7084">
        <ele>70.1</ele>
        <time>2016-04-03T09:17:44.294Z</time>
      </trkpt>
      <trkpt lat="47.21282" lon="-1.70842">
        <ele>70.1</ele>
        <time>2016-04-03T09:17:45.123Z</time>
      </trkpt>
      <trkpt lat="47.21281" lon="-1.70853">
        <ele>70.4</ele>
        <time>2016-04-03T09:17:50.247Z</time>
      </trkpt>
      <trkpt lat="47.2128" lon="-1.70855">
        <ele>70.5</ele>
        <time>2016-04-03T09:17:51.096Z</time>
      </trkpt>
      <trkpt lat="47.2128" lon="-1.70868">
        <ele>71.1</ele>
        <time>2016-04-03T09:18:01.108Z</time>
      </trkpt>
      <trkpt lat="47.2128" lon="-1.70869">
        <ele>71.2</ele>
        <time>2016-04-03T09:18:02.126Z</time>
      </trkpt>
      <trkpt lat="47.21281" lon="-1.7088">
        <ele>71.5</ele>
        <time>2016-04-03T09:18:07.177Z</time>
      </trkpt>
      <trkpt lat="47.2128" lon="-1.70883">
        <ele>71.5</ele>
        <time>2016-04-03T09:18:08.120Z</time>
      </trkpt>
      <trkpt lat="47.21279" lon="-1.70896">
        <ele>71.9</ele>
        <time>2016-04-03T09:18:14.190Z</time>
      </trkpt>
      <trkpt lat="47.21279" lon="-1.70897">
        <ele>71.9</ele>
        <time>2016-04-03T09:18:15.114Z</time>
      </trkpt>
      <trkpt lat="47.21279" lon="-1.70908">
        <ele>72.3</ele>
        <time>2016-04-03T09:18:21.222Z</time>
      </trkpt>
      <trkpt lat="47.2128" lon="-1.7091">
        <ele>72.3</ele>
        <time>2016-04-03T09:18:22.113Z</time>
      </trkpt>
      <trkpt lat="47.21279" lon="-1.70923">
        <ele>72.6</ele>
        <time>2016-04-03T09:18:28.266Z</time>
      </trkpt>
      <trkpt lat="47.21279" lon="-1.70924">
        <ele>72.6</ele>
        <time>2016-04-03T09:18:29.138Z</time>
      </trkpt>
      <trkpt lat="47.21278" lon="-1.70936">
        <ele>72.7</ele>
        <time>2016-04-03T09:18:34.163Z</time>
      </trkpt>
      <trkpt lat="47.21278" lon="-1.70939">
        <ele>72.8</ele>
        <time>2016-04-03T09:18:35.378Z</time>
      </trkpt>
      <trkpt lat="47.21276" lon="-1.70951">
        <ele>73.1</ele>
        <time>2016-04-03T09:18:41.177Z</time>
      </trkpt>
      <trkpt lat="47.21276" lon="-1.70954">
        <ele>73.1</ele>
        <time>2016-04-03T09:18:42.095Z</time>
      </trkpt>
      <trkpt lat="47.21275" lon="-1.70966">
        <ele>73.2</ele>
        <time>2016-04-03T09:18:48.237Z</time>
      </trkpt>
      <trkpt lat="47.21275" lon="-1.70968">
        <ele>73.1</ele>
        <time>2016-04-03T09:18:49.126Z</time>
      </trkpt>
      <trkpt lat="47.21275" lon="-1.70981">
        <ele>73.2</ele>
        <time>2016-04-03T09:18:56.159Z</time>
      </trkpt>
      <trkpt lat="47.21274" lon="-1.70983">
        <ele>73.2</ele>
        <time>2016-04-03T09:18:57.114Z</time>
      </trkpt>
      <trkpt lat="47.21275" lon="-1.70996">
        <ele>73.4</ele>
        <time>2016-04-03T09:19:04.131Z</time>
      </trkpt>
      <trkpt lat="47.21275" lon="-1.70997">
        <ele>73.4</ele>
        <time>2016-04-03T09:19:05.097Z</time>
      </trkpt>
      <trkpt lat="47.21275" lon="-1.7101">
        <ele>73.5</ele>
        <time>2016-04-03T09:19:12.666Z</time>
      </trkpt>
      <trkpt lat="47.21275" lon="-1.71012">
        <ele>73.5</ele>
        <time>2016-04-03T09:19:13.090Z</time>
      </trkpt>
      <trkpt lat="47.21275" lon="-1.71024">
        <ele>73.9</ele>
        <time>2016-04-03T09:19:18.162Z</time>
      </trkpt>
      <trkpt lat="47.21275" lon="-1.71026">
        <ele>74</ele>
        <time>2016-04-03T09:19:19.249Z</time>
      </trkpt>
      <trkpt lat="47.21274" lon="-1.71037">
        <ele>73.9</ele>
        <time>2016-04-03T09:19:24.524Z</time>
      </trkpt>
      <trkpt lat="47.21273" lon="-1.7104">
        <ele>74</ele>
        <time>2016-04-03T09:19:25.091Z</time>
      </trkpt>
      <trkpt lat="47.21272" lon="-1.71051">
        <ele>74.2</ele>
        <time>2016-04-03T09:19:31.202Z</time>
      </trkpt>
      <trkpt lat="47.21272" lon="-1.71053">
        <ele>74.3</ele>
        <time>2016-04-03T09:19:32.157Z</time>
      </trkpt>
      <trkpt lat="47.21271" lon="-1.71065">
        <ele>74.3</ele>
        <time>2016-04-03T09:19:38.166Z</time>
      </trkpt>
      <trkpt lat="47.21271" lon="-1.71067">
        <ele>74.3</ele>
        <time>2016-04-03T09:19:39.136Z</time>
      </trkpt>
      <trkpt lat="47.2127" lon="-1.7108">
        <ele>74.5</ele>
        <time>2016-04-03T09:19:48.766Z</time>
      </trkpt>
      <trkpt lat="47.2127" lon="-1.71082">
        <ele>74.6</ele>
        <time>2016-04-03T09:19:49.200Z</time>
      </trkpt>
      <trkpt lat="47.21268" lon="-1.71094">
        <ele>74.9</ele>
        <time>2016-04-03T09:19:53.092Z</time>
      </trkpt>
      <trkpt lat="47.21268" lon="-1.71096">
        <ele>74.9</ele>
        <time>2016-04-03T09:19:54.075Z</time>
      </trkpt>
      <trkpt lat="47.21265" lon="-1.71106">
        <ele>75.2</ele>
        <time>2016-04-03T09:19:59.094Z</time>
      </trkpt>
      <trkpt lat="47.21264" lon="-1.71108">
        <ele>75.2</ele>
        <time>2016-04-03T09:20:00.087Z</time>
      </trkpt>
      <trkpt lat="47.21263" lon="-1.71121">
        <ele>75.5</ele>
        <time>2016-04-03T09:20:08.107Z</time>
      </trkpt>
      <trkpt lat="47.21263" lon="-1.71123">
        <ele>75.5</ele>
        <time>2016-04-03T09:20:09.084Z</time>
      </trkpt>
      <trkpt lat="47.2126" lon="-1.71134">
        <ele>75.7</ele>
        <time>2016-04-03T09:20:16.683Z</time>
      </trkpt>
      <trkpt lat="47.21259" lon="-1.71136">
        <ele>75.7</ele>
        <time>2016-04-03T09:20:17.177Z</time>
      </trkpt>
      <trkpt lat="47.21257" lon="-1.71147">
        <ele>75.8</ele>
        <time>2016-04-03T09:20:21.329Z</time>
      </trkpt>
      <trkpt lat="47.21257" lon="-1.71149">
        <ele>75.8</ele>
        <time>2016-04-03T09:20:22.134Z</time>
      </trkpt>
      <trkpt lat="47.21255" lon="-1.71161">
        <ele>75.8</ele>
        <time>2016-04-03T09:20:27.181Z</time>
      </trkpt>
      <trkpt lat="47.21255" lon="-1.71164">
        <ele>75.8</ele>
        <time>2016-04-03T09:20:28.144Z</time>
      </trkpt>
      <trkpt lat="47.21253" lon="-1.71176">
        <ele>75.8</ele>
        <time>2016-04-03T09:20:35.112Z</time>
      </trkpt>
      <trkpt lat="47.21253" lon="-1.71178">
        <ele>75.8</ele>
        <time>2016-04-03T09:20:36.108Z</time>
      </trkpt>
      <trkpt lat="47.21252" lon="-1.7119">
        <ele>75.5</ele>
        <time>2016-04-03T09:20:44.098Z</time>
      </trkpt>
      <trkpt lat="47.21252" lon="-1.71191">
        <ele>75.4</ele>
        <time>2016-04-03T09:20:45.178Z</time>
      </trkpt>
      <trkpt lat="47.2125" lon="-1.71203">
        <ele>75.4</ele>
        <time>2016-04-03T09:20:52.135Z</time>
      </trkpt>
      <trkpt lat="47.2125" lon="-1.71205">
        <ele>75.4</ele>
        <time>2016-04-03T09:20:53.136Z</time>
      </trkpt>
      <trkpt lat="47.21249" lon="-1.71218">
        <ele>75.2</ele>
        <time>2016-04-03T09:20:59.317Z</time>
      </trkpt>
      <trkpt lat="47.21249" lon="-1.7122">
        <ele>75.2</ele>
        <time>2016-04-03T09:21:00.217Z</time>
      </trkpt>
      <trkpt lat="47.21247" lon="-1.71231">
        <ele>74.8</ele>
        <time>2016-04-03T09:21:06.164Z</time>
      </trkpt>
      <trkpt lat="47.21247" lon="-1.71233">
        <ele>74.8</ele>
        <time>2016-04-03T09:21:07.143Z</time>
      </trkpt>
      <trkpt lat="47.21243" lon="-1.71244">
        <ele>74.9</ele>
        <time>2016-04-03T09:21:14.188Z</time>
      </trkpt>
      <trkpt lat="47.21242" lon="-1.71245">
        <ele>75</ele>
        <time>2016-04-03T09:21:15.092Z</time>
      </trkpt>
      <trkpt lat="47.21235" lon="-1.7125">
        <ele>75.4</ele>
        <time>2016-04-03T09:21:21.203Z</time>
      </trkpt>
      <trkpt lat="47.21233" lon="-1.7125">
        <ele>75.4</ele>
        <time>2016-04-03T09:21:22.139Z</time>
      </trkpt>
      <trkpt lat="47.21225" lon="-1.71253">
        <ele>75.1</ele>
        <time>2016-04-03T09:21:27.367Z</time>
      </trkpt>
      <trkpt lat="47.21224" lon="-1.71253">
        <ele>75</ele>
        <time>2016-04-03T09:21:28.142Z</time>
      </trkpt>
      <trkpt lat="47.21216" lon="-1.71255">
        <ele>74.5</ele>
        <time>2016-04-03T09:21:33.136Z</time>
      </trkpt>
      <trkpt lat="47.21214" lon="-1.71255">
        <ele>74.5</ele>
        <time>2016-04-03T09:21:34.137Z</time>
      </trkpt>
      <trkpt lat="47.21206" lon="-1.71258">
        <ele>73.9</ele>
        <time>2016-04-03T09:21:40.241Z</time>
      </trkpt>
      <trkpt lat="47.21205" lon="-1.71258">
        <ele>73.7</ele>
        <time>2016-04-03T09:21:41.147Z</time>
      </trkpt>
      <trkpt lat="47.21198" lon="-1.71265">
        <ele>72.7</ele>
        <time>2016-04-03T09:21:50.191Z</time>
      </trkpt>
      <trkpt lat="47.21197" lon="-1.71267">
        <ele>72.6</ele>
        <time>2016-04-03T09:21:51.145Z</time>
      </trkpt>
      <trkpt lat="47.2119" lon="-1.71275">
        <ele>71.7</ele>
        <time>2016-04-03T09:21:57.201Z</time>
      </trkpt>
      <trkpt lat="47.21189" lon="-1.71276">
        <ele>71.6</ele>
        <time>2016-04-03T09:21:58.246Z</time>
      </trkpt>
      <trkpt lat="47.21183" lon="-1.71284">
        <ele>71.1</ele>
        <time>2016-04-03T09:22:04.216Z</time>
      </trkpt>
      <trkpt lat="47.21182" lon="-1.71285">
        <ele>71</ele>
        <time>2016-04-03T09:22:05.131Z</time>
      </trkpt>
      <trkpt lat="47.21175" lon="-1.71291">
        <ele>70.1</ele>
        <time>2016-04-03T09:22:12.197Z</time>
      </trkpt>
      <trkpt lat="47.21174" lon="-1.71292">
        <ele>69.9</ele>
        <time>2016-04-03T09:22:13.276Z</time>
      </trkpt>
      <trkpt lat="47.21169" lon="-1.71301">
        <ele>68.9</ele>
        <time>2016-04-03T09:22:19.190Z</time>
      </trkpt>
      <trkpt lat="47.21168" lon="-1.71303">
        <ele>68.7</ele>
        <time>2016-04-03T09:22:20.144Z</time>
      </trkpt>
      <trkpt lat="47.21162" lon="-1.71303">
        <ele>68.8</ele>
        <time>2016-04-03T09:22:27.255Z</time>
      </trkpt>
      <trkpt lat="47.21159" lon="-1.71302">
        <ele>68.9</ele>
        <time>2016-04-03T09:22:28.142Z</time>
      </trkpt>
      <trkpt lat="47.21151" lon="-1.71303">
        <ele>69.7</ele>
        <time>2016-04-03T09:22:33.190Z</time>
      </trkpt>
      <trkpt lat="47.2115" lon="-1.71303">
        <ele>69.8</ele>
        <time>2016-04-03T09:22:34.143Z</time>
      </trkpt>
      <trkpt lat="47.21142" lon="-1.71309">
        <ele>68.5</ele>
        <time>2016-04-03T09:22:44.552Z</time>
      </trkpt>
      <trkpt lat="47.21141" lon="-1.7131">
        <ele>68.5</ele>
        <time>2016-04-03T09:22:45.183Z</time>
      </trkpt>
      <trkpt lat="47.21137" lon="-1.71319">
        <ele>68</ele>
        <time>2016-04-03T09:22:51.243Z</time>
      </trkpt>
      <trkpt lat="47.21136" lon="-1.71321">
        <ele>68</ele>
        <time>2016-04-03T09:22:52.253Z</time>
      </trkpt>
      <trkpt lat="47.21131" lon="-1.7133">
        <ele>67.8</ele>
        <time>2016-04-03T09:22:57.152Z</time>
      </trkpt>
      <trkpt lat="47.2113" lon="-1.71331">
        <ele>67.8</ele>
        <time>2016-04-03T09:22:58.097Z</time>
      </trkpt>
      <trkpt lat="47.21124" lon="-1.71341">
        <ele>67.8</ele>
        <time>2016-04-03T09:23:05.203Z</time>
      </trkpt>
      <trkpt lat="47.21123" lon="-1.71342">
        <ele>67.7</ele>
        <time>2016-04-03T09:23:06.092Z</time>
      </trkpt>
      <trkpt lat="47.21117" lon="-1.71351">
        <ele>67.2</ele>
        <time>2016-04-03T09:23:15.197Z</time>
      </trkpt>
      <trkpt lat="47.21116" lon="-1.71353">
        <ele>67.2</ele>
        <time>2016-04-03T09:23:16.138Z</time>
      </trkpt>
      <trkpt lat="47.21112" lon="-1.71362">
        <ele>67.2</ele>
        <time>2016-04-03T09:23:21.205Z</time>
      </trkpt>
      <trkpt lat="47.21111" lon="-1.71364">
        <ele>67.3</ele>
        <time>2016-04-03T09:23:22.135Z</time>
      </trkpt>
      <trkpt lat="47.21107" lon="-1.71376">
        <ele>67.7</ele>
        <time>2016-04-03T09:23:30.174Z</time>
      </trkpt>
      <trkpt lat="47.21107" lon="-1.71377">
        <ele>67.8</ele>
        <time>2016-04-03T09:23:31.124Z</time>
      </trkpt>
      <trkpt lat="47.21107" lon="-1.7139">
        <ele>68.1</ele>
        <time>2016-04-03T09:23:38.214Z</time>
      </trkpt>
      <trkpt lat="47.21107" lon="-1.71393">
        <ele>68.2</ele>
        <time>2016-04-03T09:23:39.118Z</time>
      </trkpt>
      <trkpt lat="47.21107" lon="-1.71405">
        <ele>68.5</ele>
        <time>2016-04-03T09:23:46.372Z</time>
      </trkpt>
      <trkpt lat="47.21107" lon="-1.71407">
        <ele>68.6</ele>
        <time>2016-04-03T09:23:47.138Z</time>
      </trkpt>
      <trkpt lat="47.21107" lon="-1.7142">
        <ele>69.2</ele>
        <time>2016-04-03T09:23:54.229Z</time>
      </trkpt>
      <trkpt lat="47.21107" lon="-1.71424">
        <ele>69.2</ele>
        <time>2016-04-03T09:23:55.141Z</time>
      </trkpt>
      <trkpt lat="47.21106" lon="-1.71436">
        <ele>69.2</ele>
        <time>2016-04-03T09:24:01.295Z</time>
      </trkpt>
      <trkpt lat="47.21106" lon="-1.71438">
        <ele>69.2</ele>
        <time>2016-04-03T09:24:02.093Z</time>
      </trkpt>
      <trkpt lat="47.21106" lon="-1.71451">
        <ele>69.6</ele>
        <time>2016-04-03T09:24:11.271Z</time>
      </trkpt>
      <trkpt lat="47.21106" lon="-1.71453">
        <ele>69.7</ele>
        <time>2016-04-03T09:24:12.153Z</time>
      </trkpt>
      <trkpt lat="47.21106" lon="-1.71466">
        <ele>69.9</ele>
        <time>2016-04-03T09:24:18.320Z</time>
      </trkpt>
      <trkpt lat="47.21106" lon="-1.71468">
        <ele>69.9</ele>
        <time>2016-04-03T09:24:19.122Z</time>
      </trkpt>
      <trkpt lat="47.21107" lon="-1.71481">
        <ele>69.9</ele>
        <time>2016-04-03T09:24:26.204Z</time>
      </trkpt>
      <trkpt lat="47.21107" lon="-1.71482">
        <ele>69.9</ele>
        <time>2016-04-03T09:24:27.141Z</time>
      </trkpt>
      <trkpt lat="47.21106" lon="-1.71494">
        <ele>70.2</ele>
        <time>2016-04-03T09:24:33.520Z</time>
      </trkpt>
      <trkpt lat="47.21106" lon="-1.71496">
        <ele>70.3</ele>
        <time>2016-04-03T09:24:34.138Z</time>
      </trkpt>
      <trkpt lat="47.21106" lon="-1.71509">
        <ele>70.5</ele>
        <time>2016-04-03T09:24:41.204Z</time>
      </trkpt>
      <trkpt lat="47.21106" lon="-1.7151">
        <ele>70.6</ele>
        <time>2016-04-03T09:24:42.132Z</time>
      </trkpt>
      <trkpt lat="47.21105" lon="-1.71522">
        <ele>71.2</ele>
        <time>2016-04-03T09:24:48.181Z</time>
      </trkpt>
      <trkpt lat="47.21105" lon="-1.71524">
        <ele>71.3</ele>
        <time>2016-04-03T09:24:49.144Z</time>
      </trkpt>
      <trkpt lat="47.21106" lon="-1.71536">
        <ele>71.9</ele>
        <time>2016-04-03T09:24:55.180Z</time>
      </trkpt>
      <trkpt lat="47.21106" lon="-1.71538">
        <ele>72</ele>
        <time>2016-04-03T09:24:56.170Z</time>
      </trkpt>
      <trkpt lat="47.21107" lon="-1.71551">
        <ele>72.5</ele>
        <time>2016-04-03T09:25:02.283Z</time>
      </trkpt>
      <trkpt lat="47.21107" lon="-1.71553">
        <ele>72.5</ele>
        <time>2016-04-03T09:25:03.145Z</time>
      </trkpt>
      <trkpt lat="47.21107" lon="-1.71564">
        <ele>72.6</ele>
        <time>2016-04-03T09:25:08.229Z</time>
      </trkpt>
      <trkpt lat="47.21107" lon="-1.71567">
        <ele>72.7</ele>
        <time>2016-04-03T09:25:09.138Z</time>
      </trkpt>
      <trkpt lat="47.21107" lon="-1.7158">
        <ele>72.9</ele>
        <time>2016-04-03T09:25:15.239Z</time>
      </trkpt>
      <trkpt lat="47.21107" lon="-1.71582">
        <ele>73</ele>
        <time>2016-04-03T09:25:16.138Z</time>
      </trkpt>
      <trkpt lat="47.21106" lon="-1.71595">
        <ele>73.1</ele>
        <time>2016-04-03T09:25:22.231Z</time>
      </trkpt>
      <trkpt lat="47.21105" lon="-1.71595">
        <ele>73.2</ele>
        <time>2016-04-03T09:25:23.141Z</time>
      </trkpt>
      <trkpt lat="47.21103" lon="-1.71606">
        <ele>73.2</ele>
        <time>2016-04-03T09:25:29.196Z</time>
      </trkpt>
      <trkpt lat="47.21103" lon="-1.71608">
        <ele>73.3</ele>
        <time>2016-04-03T09:25:30.145Z</time>
      </trkpt>
      <trkpt lat="47.21102" lon="-1.71619">
        <ele>73.4</ele>
        <time>2016-04-03T09:25:36.268Z</time>
      </trkpt>
      <trkpt lat="47.21102" lon="-1.71623">
        <ele>73.4</ele>
        <time>2016-04-03T09:25:37.183Z</time>
      </trkpt>
      <trkpt lat="47.21103" lon="-1.71635">
        <ele>73.7</ele>
        <time>2016-04-03T09:25:43.227Z</time>
      </trkpt>
      <trkpt lat="47.21103" lon="-1.71637">
        <ele>73.7</ele>
        <time>2016-04-03T09:25:44.137Z</time>
      </trkpt>
      <trkpt lat="47.21104" lon="-1.71649">
        <ele>73.9</ele>
        <time>2016-04-03T09:25:49.196Z</time>
      </trkpt>
      <trkpt lat="47.21104" lon="-1.7165">
        <ele>74</ele>
        <time>2016-04-03T09:25:50.236Z</time>
      </trkpt>
      <trkpt lat="47.21104" lon="-1.71663">
        <ele>74.4</ele>
        <time>2016-04-03T09:25:56.212Z</time>
      </trkpt>
      <trkpt lat="47.21104" lon="-1.71665">
        <ele>74.5</ele>
        <time>2016-04-03T09:25:57.151Z</time>
      </trkpt>
      <trkpt lat="47.21103" lon="-1.71678">
        <ele>75.1</ele>
        <time>2016-04-03T09:26:04.248Z</time>
      </trkpt>
      <trkpt lat="47.21104" lon="-1.71679">
        <ele>75.2</ele>
        <time>2016-04-03T09:26:05.161Z</time>
      </trkpt>
      <trkpt lat="47.21104" lon="-1.71691">
        <ele>75.8</ele>
        <time>2016-04-03T09:26:11.226Z</time>
      </trkpt>
      <trkpt lat="47.21104" lon="-1.71692">
        <ele>75.9</ele>
        <time>2016-04-03T09:26:12.140Z</time>
      </trkpt>
      <trkpt lat="47.21104" lon="-1.71703">
        <ele>76.2</ele>
        <time>2016-04-03T09:26:17.225Z</time>
      </trkpt>
      <trkpt lat="47.21103" lon="-1.71706">
        <ele>76.2</ele>
        <time>2016-04-03T09:26:18.146Z</time>
      </trkpt>
      <trkpt lat="47.21101" lon="-1.71718">
        <ele>76.2</ele>
        <time>2016-04-03T09:26:23.225Z</time>
      </trkpt>
      <trkpt lat="47.21101" lon="-1.7172">
        <ele>76.2</ele>
        <time>2016-04-03T09:26:24.144Z</time>
      </trkpt>
      <trkpt lat="47.21098" lon="-1.71731">
        <ele>76</ele>
        <time>2016-04-03T09:26:29.223Z</time>
      </trkpt>
      <trkpt lat="47.21098" lon="-1.71733">
        <ele>76</ele>
        <time>2016-04-03T09:26:30.144Z</time>
      </trkpt>
      <trkpt lat="47.21097" lon="-1.71746">
        <ele>76.2</ele>
        <time>2016-04-03T09:26:39.207Z</time>
      </trkpt>
      <trkpt lat="47.21097" lon="-1.71749">
        <ele>76.3</ele>
        <time>2016-04-03T09:26:40.363Z</time>
      </trkpt>
      <trkpt lat="47.21098" lon="-1.71761">
        <ele>77</ele>
        <time>2016-04-03T09:26:48.226Z</time>
      </trkpt>
      <trkpt lat="47.21099" lon="-1.71763">
        <ele>77.1</ele>
        <time>2016-04-03T09:26:49.143Z</time>
      </trkpt>
      <trkpt lat="47.211" lon="-1.71775">
        <ele>77.5</ele>
        <time>2016-04-03T09:26:55.314Z</time>
      </trkpt>
      <trkpt lat="47.211" lon="-1.71777">
        <ele>77.6</ele>
        <time>2016-04-03T09:26:56.134Z</time>
      </trkpt>
      <trkpt lat="47.21101" lon="-1.71788">
        <ele>78.3</ele>
        <time>2016-04-03T09:27:02.182Z</time>
      </trkpt>
      <trkpt lat="47.21101" lon="-1.71791">
        <ele>78.3</ele>
        <time>2016-04-03T09:27:03.218Z</time>
      </trkpt>
      <trkpt lat="47.211" lon="-1.71803">
        <ele>78.4</ele>
        <time>2016-04-03T09:27:10.206Z</time>
      </trkpt>
      <trkpt lat="47.211" lon="-1.71806">
        <ele>78.4</ele>
        <time>2016-04-03T09:27:11.145Z</time>
      </trkpt>
      <trkpt lat="47.21101" lon="-1.71819">
        <ele>78.6</ele>
        <time>2016-04-03T09:27:17.208Z</time>
      </trkpt>
      <trkpt lat="47.21101" lon="-1.71821">
        <ele>78.7</ele>
        <time>2016-04-03T09:27:18.132Z</time>
      </trkpt>
      <trkpt lat="47.21103" lon="-1.71832">
        <ele>79.6</ele>
        <time>2016-04-03T09:27:24.215Z</time>
      </trkpt>
      <trkpt lat="47.21103" lon="-1.71835">
        <ele>79.8</ele>
        <time>2016-04-03T09:27:25.145Z</time>
      </trkpt>
      <trkpt lat="47.21106" lon="-1.71846">
        <ele>80.3</ele>
        <time>2016-04-03T09:27:29.168Z</time>
      </trkpt>
      <trkpt lat="47.21107" lon="-1.71848">
        <ele>80.3</ele>
        <time>2016-04-03T09:27:30.140Z</time>
      </trkpt>
      <trkpt lat="47.21109" lon="-1.7186">
        <ele>80.3</ele>
        <time>2016-04-03T09:27:36.224Z</time>
      </trkpt>
      <trkpt lat="47.2111" lon="-1.71863">
        <ele>80.3</ele>
        <time>2016-04-03T09:27:37.256Z</time>
      </trkpt>
      <trkpt lat="47.2111" lon="-1.71875">
        <ele>80</ele>
        <time>2016-04-03T09:27:43.231Z</time>
      </trkpt>
      <trkpt lat="47.2111" lon="-1.71878">
        <ele>79.9</ele>
        <time>2016-04-03T09:27:44.162Z</time>
      </trkpt>
      <trkpt lat="47.21109" lon="-1.7189">
        <ele>79.1</ele>
        <time>2016-04-03T09:27:50.366Z</time>
      </trkpt>
      <trkpt lat="47.21109" lon="-1.71893">
        <ele>79</ele>
        <time>2016-04-03T09:27:51.152Z</time>
      </trkpt>
      <trkpt lat="47.21104" lon="-1.71904">
        <ele>78.9</ele>
        <time>2016-04-03T09:27:56.191Z</time>
      </trkpt>
      <trkpt lat="47.21103" lon="-1.71905">
        <ele>78.8</ele>
        <time>2016-04-03T09:27:57.199Z</time>
      </trkpt>
      <trkpt lat="47.21096" lon="-1.71912">
        <ele>78.5</ele>
        <time>2016-04-03T09:28:03.148Z</time>
      </trkpt>
      <trkpt lat="47.21094" lon="-1.71913">
        <ele>78.4</ele>
        <time>2016-04-03T09:28:04.128Z</time>
      </trkpt>
      <trkpt lat="47.21086" lon="-1.71918">
        <ele>77.9</ele>
        <time>2016-04-03T09:28:11.223Z</time>
      </trkpt>
      <trkpt lat="47.21085" lon="-1.71918">
        <ele>77.8</ele>
        <time>2016-04-03T09:28:12.138Z</time>
      </trkpt>
      <trkpt lat="47.21078" lon="-1.71922">
        <ele>77.3</ele>
        <time>2016-04-03T09:28:18.209Z</time>
      </trkpt>
      <trkpt lat="47.21077" lon="-1.71923">
        <ele>77.3</ele>
        <time>2016-04-03T09:28:19.183Z</time>
      </trkpt>
      <trkpt lat="47.21069" lon="-1.71927">
        <ele>76.9</ele>
        <time>2016-04-03T09:28:25.197Z</time>
      </trkpt>
      <trkpt lat="47.21068" lon="-1.71928">
        <ele>76.8</ele>
        <time>2016-04-03T09:28:26.140Z</time>
      </trkpt>
      <trkpt lat="47.21061" lon="-1.71933">
        <ele>76.4</ele>
        <time>2016-04-03T09:28:32.223Z</time>
      </trkpt>
      <trkpt lat="47.21059" lon="-1.71934">
        <ele>76.3</ele>
        <time>2016-04-03T09:28:33.144Z</time>
      </trkpt>
      <trkpt lat="47.21052" lon="-1.71938">
        <ele>76.1</ele>
        <time>2016-04-03T09:28:38.217Z</time>
      </trkpt>
      <trkpt lat="47.21051" lon="-1.71939">
        <ele>76.1</ele>
        <time>2016-04-03T09:28:39.123Z</time>
      </trkpt>
      <trkpt lat="47.21043" lon="-1.71943">
        <ele>75.8</ele>
        <time>2016-04-03T09:28:45.246Z</time>
      </trkpt>
      <trkpt lat="47.21041" lon="-1.71944">
        <ele>75.8</ele>
        <time>2016-04-03T09:28:46.128Z</time>
      </trkpt>
      <trkpt lat="47.21034" lon="-1.71951">
        <ele>75.5</ele>
        <time>2016-04-03T09:28:54.556Z</time>
      </trkpt>
      <trkpt lat="47.21033" lon="-1.71952">
        <ele>75.5</ele>
        <time>2016-04-03T09:28:55.099Z</time>
      </trkpt>
      <trkpt lat="47.21034" lon="-1.71965">
        <ele>75.3</ele>
        <time>2016-04-03T09:28:59.143Z</time>
      </trkpt>
      <trkpt lat="47.21034" lon="-1.71967">
        <ele>75.2</ele>
        <time>2016-04-03T09:29:00.166Z</time>
      </trkpt>
      <trkpt lat="47.21029" lon="-1.71976">
        <ele>74.6</ele>
        <time>2016-04-03T09:29:08.200Z</time>
      </trkpt>
      <trkpt lat="47.21028" lon="-1.71976">
        <ele>74.6</ele>
        <time>2016-04-03T09:29:09.144Z</time>
      </trkpt>
      <trkpt lat="47.2102" lon="-1.71983">
        <ele>74.6</ele>
        <time>2016-04-03T09:29:15.211Z</time>
      </trkpt>
      <trkpt lat="47.21019" lon="-1.71984">
        <ele>74.6</ele>
        <time>2016-04-03T09:29:16.143Z</time>
      </trkpt>
      <trkpt lat="47.21013" lon="-1.71992">
        <ele>74.4</ele>
        <time>2016-04-03T09:29:22.307Z</time>
      </trkpt>
      <trkpt lat="47.21012" lon="-1.71993">
        <ele>74.4</ele>
        <time>2016-04-03T09:29:23.364Z</time>
      </trkpt>
      <trkpt lat="47.21005" lon="-1.72">
        <ele>74.2</ele>
        <time>2016-04-03T09:29:30.146Z</time>
      </trkpt>
      <trkpt lat="47.21005" lon="-1.72001">
        <ele>74.3</ele>
        <time>2016-04-03T09:29:31.090Z</time>
      </trkpt>
      <trkpt lat="47.21007" lon="-1.72013">
        <ele>74.7</ele>
        <time>2016-04-03T09:29:45.137Z</time>
      </trkpt>
      <trkpt lat="47.21008" lon="-1.72014">
        <ele>74.8</ele>
        <time>2016-04-03T09:29:46.085Z</time>
      </trkpt>
      <trkpt lat="47.21009" lon="-1.72027">
        <ele>74.6</ele>
        <time>2016-04-03T09:29:59.370Z</time>
      </trkpt>
      <trkpt lat="47.21009" lon="-1.72028">
        <ele>74.5</ele>
        <time>2016-04-03T09:30:00.159Z</time>
      </trkpt>
      <trkpt lat="47.2101" lon="-1.72041">
        <ele>74.1</ele>
        <time>2016-04-03T09:30:06.175Z</time>
      </trkpt>
      <trkpt lat="47.2101" lon="-1.72042">
        <ele>74.1</ele>
        <time>2016-04-03T09:30:07.085Z</time>
      </trkpt>
      <trkpt lat="47.21011" lon="-1.72055">
        <ele>73.5</ele>
        <time>2016-04-03T09:30:13.198Z</time>
      </trkpt>
      <trkpt lat="47.2101" lon="-1.72057">
        <ele>73.4</ele>
        <time>2016-04-03T09:30:14.088Z</time>
      </trkpt>
      <trkpt lat="47.21009" lon="-1.72068">
        <ele>72.7</ele>
        <time>2016-04-03T09:30:19.146Z</time>
      </trkpt>
      <trkpt lat="47.21009" lon="-1.7207">
        <ele>72.6</ele>
        <time>2016-04-03T09:30:20.086Z</time>
      </trkpt>
      <trkpt lat="47.21009" lon="-1.72082">
        <ele>72.2</ele>
        <time>2016-04-03T09:30:27.180Z</time>
      </trkpt>
      <trkpt lat="47.2101" lon="-1.72084">
        <ele>72.2</ele>
        <time>2016-04-03T09:30:28.080Z</time>
      </trkpt>
      <trkpt lat="47.2101" lon="-1.72097">
        <ele>71.8</ele>
        <time>2016-04-03T09:30:36.232Z</time>
      </trkpt>
      <trkpt lat="47.2101" lon="-1.72099">
        <ele>71.7</ele>
        <time>2016-04-03T09:30:37.081Z</time>
      </trkpt>
      <trkpt lat="47.21012" lon="-1.72111">
        <ele>71.4</ele>
        <time>2016-04-03T09:30:43.386Z</time>
      </trkpt>
      <trkpt lat="47.21012" lon="-1.72113">
        <ele>71.5</ele>
        <time>2016-04-03T09:30:44.093Z</time>
      </trkpt>
      <trkpt lat="47.21015" lon="-1.72125">
        <ele>71.3</ele>
        <time>2016-04-03T09:30:49.138Z</time>
      </trkpt>
      <trkpt lat="47.21015" lon="-1.72127">
        <ele>71.3</ele>
        <time>2016-04-03T09:30:50.090Z</time>
      </trkpt>
      <trkpt lat="47.21018" lon="-1.72137">
        <ele>71.2</ele>
        <time>2016-04-03T09:30:54.149Z</time>
      </trkpt>
      <trkpt lat="47.21019" lon="-1.72139">
        <ele>71.1</ele>
        <time>2016-04-03T09:30:55.094Z</time>
      </trkpt>
      <trkpt lat="47.21021" lon="-1.7215">
        <ele>70.5</ele>
        <time>2016-04-03T09:31:03.148Z</time>
      </trkpt>
      <trkpt lat="47.21022" lon="-1.72152">
        <ele>70.5</ele>
        <time>2016-04-03T09:31:04.090Z</time>
      </trkpt>
      <trkpt lat="47.21025" lon="-1.72162">
        <ele>70.3</ele>
        <time>2016-04-03T09:31:10.164Z</time>
      </trkpt>
      <trkpt lat="47.21025" lon="-1.72165">
        <ele>70.3</ele>
        <time>2016-04-03T09:31:11.097Z</time>
      </trkpt>
      <trkpt lat="47.21027" lon="-1.72176">
        <ele>70</ele>
        <time>2016-04-03T09:31:19.217Z</time>
      </trkpt>
      <trkpt lat="47.21027" lon="-1.72178">
        <ele>70</ele>
        <time>2016-04-03T09:31:20.089Z</time>
      </trkpt>
      <trkpt lat="47.21026" lon="-1.7219">
        <ele>69.7</ele>
        <time>2016-04-03T09:31:25.203Z</time>
      </trkpt>
      <trkpt lat="47.21026" lon="-1.72192">
        <ele>69.7</ele>
        <time>2016-04-03T09:31:26.084Z</time>
      </trkpt>
      <trkpt lat="47.21023" lon="-1.72205">
        <ele>69.3</ele>
        <time>2016-04-03T09:31:33.168Z</time>
      </trkpt>
      <trkpt lat="47.21023" lon="-1.72207">
        <ele>69.2</ele>
        <time>2016-04-03T09:31:34.085Z</time>
      </trkpt>
      <trkpt lat="47.2102" lon="-1.72219">
        <ele>69.5</ele>
        <time>2016-04-03T09:31:39.137Z</time>
      </trkpt>
      <trkpt lat="47.2102" lon="-1.7222">
        <ele>69.5</ele>
        <time>2016-04-03T09:31:40.090Z</time>
      </trkpt>
      <trkpt lat="47.21018" lon="-1.72231">
        <ele>69.3</ele>
        <time>2016-04-03T09:31:47.130Z</time>
      </trkpt>
      <trkpt lat="47.21018" lon="-1.72233">
        <ele>69.3</ele>
        <time>2016-04-03T09:31:48.097Z</time>
      </trkpt>
      <trkpt lat="47.21018" lon="-1.72245">
        <ele>69.5</ele>
        <time>2016-04-03T09:31:53.173Z</time>
      </trkpt>
      <trkpt lat="47.21019" lon="-1.72247">
        <ele>69.5</ele>
        <time>2016-04-03T09:31:54.094Z</time>
      </trkpt>
      <trkpt lat="47.21019" lon="-1.7226">
        <ele>69.7</ele>
        <time>2016-04-03T09:32:01.151Z</time>
      </trkpt>
      <trkpt lat="47.21019" lon="-1.72262">
        <ele>69.6</ele>
        <time>2016-04-03T09:32:02.086Z</time>
      </trkpt>
      <trkpt lat="47.21019" lon="-1.72275">
        <ele>69.3</ele>
        <time>2016-04-03T09:32:09.145Z</time>
      </trkpt>
      <trkpt lat="47.21019" lon="-1.72275">
        <ele>69.4</ele>
        <time>2016-04-03T09:32:10.087Z</time>
      </trkpt>
      <trkpt lat="47.21021" lon="-1.72288">
        <ele>70.2</ele>
        <time>2016-04-03T09:32:17.159Z</time>
      </trkpt>
      <trkpt lat="47.21021" lon="-1.72291">
        <ele>70.2</ele>
        <time>2016-04-03T09:32:18.090Z</time>
      </trkpt>
      <trkpt lat="47.21023" lon="-1.72302">
        <ele>70.4</ele>
        <time>2016-04-03T09:32:23.164Z</time>
      </trkpt>
      <trkpt lat="47.21023" lon="-1.72304">
        <ele>70.5</ele>
        <time>2016-04-03T09:32:24.090Z</time>
      </trkpt>
      <trkpt lat="47.21024" lon="-1.72317">
        <ele>70.7</ele>
        <time>2016-04-03T09:32:28.237Z</time>
      </trkpt>
      <trkpt lat="47.21025" lon="-1.7232">
        <ele>70.8</ele>
        <time>2016-04-03T09:32:29.173Z</time>
      </trkpt>
      <trkpt lat="47.21025" lon="-1.72332">
        <ele>70.7</ele>
        <time>2016-04-03T09:32:35.238Z</time>
      </trkpt>
      <trkpt lat="47.21026" lon="-1.72334">
        <ele>70.7</ele>
        <time>2016-04-03T09:32:36.150Z</time>
      </trkpt>
      <trkpt lat="47.21024" lon="-1.72345">
        <ele>70.2</ele>
        <time>2016-04-03T09:32:43.703Z</time>
      </trkpt>
      <trkpt lat="47.21024" lon="-1.72347">
        <ele>70.2</ele>
        <time>2016-04-03T09:32:44.147Z</time>
      </trkpt>
      <trkpt lat="47.21024" lon="-1.72359">
        <ele>70</ele>
        <time>2016-04-03T09:32:49.264Z</time>
      </trkpt>
      <trkpt lat="47.21024" lon="-1.72361">
        <ele>70.1</ele>
        <time>2016-04-03T09:32:50.156Z</time>
      </trkpt>
      <trkpt lat="47.21025" lon="-1.72373">
        <ele>70.5</ele>
        <time>2016-04-03T09:32:56.169Z</time>
      </trkpt>
      <trkpt lat="47.21025" lon="-1.72375">
        <ele>70.6</ele>
        <time>2016-04-03T09:32:57.158Z</time>
      </trkpt>
      <trkpt lat="47.21026" lon="-1.72386">
        <ele>70.9</ele>
        <time>2016-04-03T09:33:02.145Z</time>
      </trkpt>
      <trkpt lat="47.21026" lon="-1.72389">
        <ele>70.9</ele>
        <time>2016-04-03T09:33:03.172Z</time>
      </trkpt>
      <trkpt lat="47.21028" lon="-1.72399">
        <ele>71</ele>
        <time>2016-04-03T09:33:07.170Z</time>
      </trkpt>
      <trkpt lat="47.21029" lon="-1.72402">
        <ele>71.1</ele>
        <time>2016-04-03T09:33:08.225Z</time>
      </trkpt>
      <trkpt lat="47.21031" lon="-1.72414">
        <ele>71.3</ele>
        <time>2016-04-03T09:33:13.198Z</time>
      </trkpt>
      <trkpt lat="47.21032" lon="-1.72417">
        <ele>71.3</ele>
        <time>2016-04-03T09:33:14.149Z</time>
      </trkpt>
      <trkpt lat="47.21033" lon="-1.72429">
        <ele>71.3</ele>
        <time>2016-04-03T09:33:19.186Z</time>
      </trkpt>
      <trkpt lat="47.21033" lon="-1.72431">
        <ele>71.3</ele>
        <time>2016-04-03T09:33:20.159Z</time>
      </trkpt>
      <trkpt lat="47.21035" lon="-1.72444">
        <ele>70.9</ele>
        <time>2016-04-03T09:33:29.213Z</time>
      </trkpt>
      <trkpt lat="47.21036" lon="-1.72446">
        <ele>70.9</ele>
        <time>2016-04-03T09:33:30.119Z</time>
      </trkpt>
      <trkpt lat="47.21037" lon="-1.72459">
        <ele>70.9</ele>
        <time>2016-04-03T09:33:36.141Z</time>
      </trkpt>
      <trkpt lat="47.21038" lon="-1.72462">
        <ele>71</ele>
        <time>2016-04-03T09:33:37.142Z</time>
      </trkpt>
      <trkpt lat="47.21041" lon="-1.72473">
        <ele>71.2</ele>
        <time>2016-04-03T09:33:41.201Z</time>
      </trkpt>
      <trkpt lat="47.21042" lon="-1.72475">
        <ele>71.2</ele>
        <time>2016-04-03T09:33:42.088Z</time>
      </trkpt>
      <trkpt lat="47.21044" lon="-1.72486">
        <ele>71.4</ele>
        <time>2016-04-03T09:33:47.167Z</time>
      </trkpt>
      <trkpt lat="47.21044" lon="-1.72489">
        <ele>71.4</ele>
        <time>2016-04-03T09:33:48.147Z</time>
      </trkpt>
      <trkpt lat="47.21047" lon="-1.725">
        <ele>71.3</ele>
        <time>2016-04-03T09:33:54.243Z</time>
      </trkpt>
      <trkpt lat="47.21048" lon="-1.72502">
        <ele>71.3</ele>
        <time>2016-04-03T09:33:55.124Z</time>
      </trkpt>
      <trkpt lat="47.21051" lon="-1.72514">
        <ele>71.3</ele>
        <time>2016-04-03T09:34:00.462Z</time>
      </trkpt>
      <trkpt lat="47.21052" lon="-1.72515">
        <ele>71.2</ele>
        <time>2016-04-03T09:34:01.084Z</time>
      </trkpt>
      <trkpt lat="47.21055" lon="-1.72525">
        <ele>71</ele>
        <time>2016-04-03T09:34:06.230Z</time>
      </trkpt>
      <trkpt lat="47.21056" lon="-1.72527">
        <ele>71</ele>
        <time>2016-04-03T09:34:07.118Z</time>
      </trkpt>
      <trkpt lat="47.2106" lon="-1.72539">
        <ele>71.1</ele>
        <time>2016-04-03T09:34:13.238Z</time>
      </trkpt>
      <trkpt lat="47.21061" lon="-1.72541">
        <ele>71.1</ele>
        <time>2016-04-03T09:34:14.154Z</time>
      </trkpt>
      <trkpt lat="47.21065" lon="-1.72552">
        <ele>70.9</ele>
        <time>2016-04-03T09:34:19.226Z</time>
      </trkpt>
      <trkpt lat="47.21066" lon="-1.72554">
        <ele>70.9</ele>
        <time>2016-04-03T09:34:20.169Z</time>
      </trkpt>
      <trkpt lat="47.21069" lon="-1.72564">
        <ele>70.8</ele>
        <time>2016-04-03T09:34:25.249Z</time>
      </trkpt>
      <trkpt lat="47.2107" lon="-1.72566">
        <ele>70.7</ele>
        <time>2016-04-03T09:34:26.157Z</time>
      </trkpt>
      <trkpt lat="47.21074" lon="-1.72578">
        <ele>70.3</ele>
        <time>2016-04-03T09:34:31.227Z</time>
      </trkpt>
      <trkpt lat="47.21074" lon="-1.72579">
        <ele>70.1</ele>
        <time>2016-04-03T09:34:32.306Z</time>
      </trkpt>
      <trkpt lat="47.21078" lon="-1.7259">
        <ele>69.2</ele>
        <time>2016-04-03T09:34:39.252Z</time>
      </trkpt>
      <trkpt lat="47.21078" lon="-1.72592">
        <ele>69.1</ele>
        <time>2016-04-03T09:34:40.155Z</time>
      </trkpt>
      <trkpt lat="47.2108" lon="-1.72604">
        <ele>68.2</ele>
        <time>2016-04-03T09:34:48.152Z</time>
      </trkpt>
      <trkpt lat="47.21081" lon="-1.72605">
        <ele>68.1</ele>
        <time>2016-04-03T09:34:49.145Z</time>
      </trkpt>
      <trkpt lat="47.21082" lon="-1.72616">
        <ele>67.6</ele>
        <time>2016-04-03T09:34:53.228Z</time>
      </trkpt>
      <trkpt lat="47.21082" lon="-1.72618">
        <ele>67.4</ele>
        <time>2016-04-03T09:34:54.146Z</time>
      </trkpt>
      <trkpt lat="47.21083" lon="-1.7263">
        <ele>67</ele>
        <time>2016-04-03T09:35:01.104Z</time>
      </trkpt>
      <trkpt lat="47.21083" lon="-1.72633">
        <ele>66.9</ele>
        <time>2016-04-03T09:35:02.141Z</time>
      </trkpt>
      <trkpt lat="47.21083" lon="-1.72644">
        <ele>66.7</ele>
        <time>2016-04-03T09:35:06.161Z</time>
      </trkpt>
      <trkpt lat="47.21083" lon="-1.72646">
        <ele>66.6</ele>
        <time>2016-04-03T09:35:07.164Z</time>
      </trkpt>
      <trkpt lat="47.21083" lon="-1.7266">
        <ele>65.6</ele>
        <time>2016-04-03T09:35:13.231Z</time>
      </trkpt>
      <trkpt lat="47.21084" lon="-1.72662">
        <ele>65.3</ele>
        <time>2016-04-03T09:35:14.108Z</time>
      </trkpt>
      <trkpt lat="47.21085" lon="-1.72673">
        <ele>64.6</ele>
        <time>2016-04-03T09:35:19.166Z</time>
      </trkpt>
      <trkpt lat="47.21085" lon="-1.72675">
        <ele>64.4</ele>
        <time>2016-04-03T09:35:20.165Z</time>
      </trkpt>
      <trkpt lat="47.21087" lon="-1.72688">
        <ele>64.2</ele>
        <time>2016-04-03T09:35:26.199Z</time>
      </trkpt>
      <trkpt lat="47.21088" lon="-1.7269">
        <ele>64.2</ele>
        <time>2016-04-03T09:35:27.150Z</time>
      </trkpt>
      <trkpt lat="47.21087" lon="-1.72702">
        <ele>64.3</ele>
        <time>2016-04-03T09:35:41.233Z</time>
      </trkpt>
      <trkpt lat="47.21087" lon="-1.72703">
        <ele>64.2</ele>
        <time>2016-04-03T09:35:42.149Z</time>
      </trkpt>
      <trkpt lat="47.21095" lon="-1.72709">
        <ele>66.9</ele>
        <time>2016-04-03T09:36:40.090Z</time>
      </trkpt>
      <trkpt lat="47.21095" lon="-1.7271">
        <ele>66.9</ele>
        <time>2016-04-03T09:36:41.155Z</time>
      </trkpt>
      <trkpt lat="47.2109" lon="-1.7272">
        <ele>67</ele>
        <time>2016-04-03T09:37:09.227Z</time>
      </trkpt>
      <trkpt lat="47.21089" lon="-1.72722">
        <ele>67.1</ele>
        <time>2016-04-03T09:37:10.108Z</time>
      </trkpt>
      <trkpt lat="47.21084" lon="-1.72732">
        <ele>67.7</ele>
        <time>2016-04-03T09:37:17.225Z</time>
      </trkpt>
      <trkpt lat="47.21084" lon="-1.72733">
        <ele>67.7</ele>
        <time>2016-04-03T09:37:18.153Z</time>
      </trkpt>
      <trkpt lat="47.21077" lon="-1.72739">
        <ele>68.2</ele>
        <time>2016-04-03T09:37:26.187Z</time>
      </trkpt>
      <trkpt lat="47.21076" lon="-1.7274">
        <ele>68.2</ele>
        <time>2016-04-03T09:37:27.147Z</time>
      </trkpt>
      <trkpt lat="47.21068" lon="-1.72747">
        <ele>68.7</ele>
        <time>2016-04-03T09:37:34.324Z</time>
      </trkpt>
      <trkpt lat="47.21067" lon="-1.72748">
        <ele>68.7</ele>
        <time>2016-04-03T09:37:35.086Z</time>
      </trkpt>
      <trkpt lat="47.21064" lon="-1.72759">
        <ele>68.8</ele>
        <time>2016-04-03T09:37:40.183Z</time>
      </trkpt>
      <trkpt lat="47.21063" lon="-1.72762">
        <ele>68.8</ele>
        <time>2016-04-03T09:37:41.161Z</time>
      </trkpt>
      <trkpt lat="47.21059" lon="-1.72772">
        <ele>68.8</ele>
        <time>2016-04-03T09:37:45.153Z</time>
      </trkpt>
      <trkpt lat="47.21058" lon="-1.72774">
        <ele>68.8</ele>
        <time>2016-04-03T09:37:46.163Z</time>
      </trkpt>
      <trkpt lat="47.21056" lon="-1.72786">
        <ele>68.7</ele>
        <time>2016-04-03T09:37:52.260Z</time>
      </trkpt>
      <trkpt lat="47.21056" lon="-1.72787">
        <ele>68.6</ele>
        <time>2016-04-03T09:37:53.162Z</time>
      </trkpt>
      <trkpt lat="47.21051" lon="-1.72797">
        <ele>68.3</ele>
        <time>2016-04-03T09:37:59.282Z</time>
      </trkpt>
      <trkpt lat="47.2105" lon="-1.72799">
        <ele>68.3</ele>
        <time>2016-04-03T09:38:00.285Z</time>
      </trkpt>
      <trkpt lat="47.21044" lon="-1.72808">
        <ele>67.7</ele>
        <time>2016-04-03T09:38:05.429Z</time>
      </trkpt>
      <trkpt lat="47.21043" lon="-1.72809">
        <ele>67.6</ele>
        <time>2016-04-03T09:38:06.168Z</time>
      </trkpt>
      <trkpt lat="47.21037" lon="-1.72819">
        <ele>67.3</ele>
        <time>2016-04-03T09:38:11.257Z</time>
      </trkpt>
      <trkpt lat="47.21036" lon="-1.7282">
        <ele>67.3</ele>
        <time>2016-04-03T09:38:12.138Z</time>
      </trkpt>
      <trkpt lat="47.21031" lon="-1.72829">
        <ele>67.3</ele>
        <time>2016-04-03T09:38:17.234Z</time>
      </trkpt>
      <trkpt lat="47.2103" lon="-1.7283">
        <ele>67.2</ele>
        <time>2016-04-03T09:38:18.147Z</time>
      </trkpt>
      <trkpt lat="47.21022" lon="-1.72834">
        <ele>66.8</ele>
        <time>2016-04-03T09:38:23.223Z</time>
      </trkpt>
      <trkpt lat="47.2102" lon="-1.72835">
        <ele>66.7</ele>
        <time>2016-04-03T09:38:24.095Z</time>
      </trkpt>
      <trkpt lat="47.21013" lon="-1.72841">
        <ele>66.1</ele>
        <time>2016-04-03T09:38:30.215Z</time>
      </trkpt>
      <trkpt lat="47.21012" lon="-1.72842">
        <ele>66</ele>
        <time>2016-04-03T09:38:31.142Z</time>
      </trkpt>
      <trkpt lat="47.21005" lon="-1.72849">
        <ele>65.1</ele>
        <time>2016-04-03T09:38:38.143Z</time>
      </trkpt>
      <trkpt lat="47.21004" lon="-1.7285">
        <ele>65</ele>
        <time>2016-04-03T09:38:39.137Z</time>
      </trkpt>
      <trkpt lat="47.21001" lon="-1.72861">
        <ele>64.8</ele>
        <time>2016-04-03T09:38:45.104Z</time>
      </trkpt>
      <trkpt lat="47.21" lon="-1.72863">
        <ele>64.8</ele>
        <time>2016-04-03T09:38:46.146Z</time>
      </trkpt>
      <trkpt lat="47.20996" lon="-1.72875">
        <ele>65.1</ele>
        <time>2016-04-03T09:38:52.309Z</time>
      </trkpt>
      <trkpt lat="47.20994" lon="-1.72876">
        <ele>65.2</ele>
        <time>2016-04-03T09:38:53.173Z</time>
      </trkpt>
      <trkpt lat="47.20988" lon="-1.72878">
        <ele>65</ele>
        <time>2016-04-03T09:38:55.229Z</time>
      </trkpt>
      <trkpt lat="47.20985" lon="-1.72877">
        <ele>64.9</ele>
        <time>2016-04-03T09:38:56.138Z</time>
      </trkpt>
      <trkpt lat="47.20977" lon="-1.72875">
        <ele>64.6</ele>
        <time>2016-04-03T09:39:00.439Z</time>
      </trkpt>
      <trkpt lat="47.20975" lon="-1.72874">
        <ele>64.5</ele>
        <time>2016-04-03T09:39:01.066Z</time>
      </trkpt>
      <trkpt lat="47.20967" lon="-1.72875">
        <ele>63.6</ele>
        <time>2016-04-03T09:39:06.162Z</time>
      </trkpt>
      <trkpt lat="47.20965" lon="-1.72874">
        <ele>63.4</ele>
        <time>2016-04-03T09:39:07.080Z</time>
      </trkpt>
      <trkpt lat="47.20958" lon="-1.72878">
        <ele>62.7</ele>
        <time>2016-04-03T09:39:11.246Z</time>
      </trkpt>
      <trkpt lat="47.20957" lon="-1.72878">
        <ele>62.5</ele>
        <time>2016-04-03T09:39:12.083Z</time>
      </trkpt>
      <trkpt lat="47.2095" lon="-1.72882">
        <ele>61.3</ele>
        <time>2016-04-03T09:39:18.113Z</time>
      </trkpt>
      <trkpt lat="47.20949" lon="-1.72884">
        <ele>61.2</ele>
        <time>2016-04-03T09:39:19.113Z</time>
      </trkpt>
      <trkpt lat="47.20951" lon="-1.72896">
        <ele>60.6</ele>
        <time>2016-04-03T09:39:29.276Z</time>
      </trkpt>
      <trkpt lat="47.20952" lon="-1.72898">
        <ele>60.6</ele>
        <time>2016-04-03T09:39:30.149Z</time>
      </trkpt>
      <trkpt lat="47.20954" lon="-1.7291">
        <ele>60.3</ele>
        <time>2016-04-03T09:39:35.147Z</time>
      </trkpt>
      <trkpt lat="47.20955" lon="-1.72912">
        <ele>60.2</ele>
        <time>2016-04-03T09:39:36.103Z</time>
      </trkpt>
      <trkpt lat="47.20961" lon="-1.72922">
        <ele>59.4</ele>
        <time>2016-04-03T09:39:42.226Z</time>
      </trkpt>
      <trkpt lat="47.20962" lon="-1.72924">
        <ele>59.2</ele>
        <time>2016-04-03T09:39:43.142Z</time>
      </trkpt>
      <trkpt lat="47.20966" lon="-1.72935">
        <ele>58.7</ele>
        <time>2016-04-03T09:39:49.248Z</time>
      </trkpt>
      <trkpt lat="47.20966" lon="-1.72936">
        <ele>58.6</ele>
        <time>2016-04-03T09:39:50.167Z</time>
      </trkpt>
      <trkpt lat="47.20968" lon="-1.72948">
        <ele>58.4</ele>
        <time>2016-04-03T09:39:55.138Z</time>
      </trkpt>
      <trkpt lat="47.20968" lon="-1.7295">
        <ele>58.4</ele>
        <time>2016-04-03T09:39:56.150Z</time>
      </trkpt>
      <trkpt lat="47.20971" lon="-1.72961">
        <ele>58.3</ele>
        <time>2016-04-03T09:40:04.267Z</time>
      </trkpt>
      <trkpt lat="47.20971" lon="-1.72962">
        <ele>58.4</ele>
        <time>2016-04-03T09:40:05.153Z</time>
      </trkpt>
      <trkpt lat="47.20973" lon="-1.72974">
        <ele>58.3</ele>
        <time>2016-04-03T09:40:11.252Z</time>
      </trkpt>
      <trkpt lat="47.20974" lon="-1.72976">
        <ele>58.4</ele>
        <time>2016-04-03T09:40:12.132Z</time>
      </trkpt>
      <trkpt lat="47.20976" lon="-1.72988">
        <ele>58.9</ele>
        <time>2016-04-03T09:40:17.247Z</time>
      </trkpt>
      <trkpt lat="47.20977" lon="-1.72989">
        <ele>59</ele>
        <time>2016-04-03T09:40:18.149Z</time>
      </trkpt>
      <trkpt lat="47.20981" lon="-1.73">
        <ele>59.5</ele>
        <time>2016-04-03T09:40:26.264Z</time>
      </trkpt>
      <trkpt lat="47.20982" lon="-1.73001">
        <ele>59.5</ele>
        <time>2016-04-03T09:40:27.099Z</time>
      </trkpt>
      <trkpt lat="47.20989" lon="-1.73007">
        <ele>59.1</ele>
        <time>2016-04-03T09:40:46.533Z</time>
      </trkpt>
      <trkpt lat="47.20989" lon="-1.73008">
        <ele>59</ele>
        <time>2016-04-03T09:40:47.150Z</time>
      </trkpt>
      <trkpt lat="47.20992" lon="-1.7302">
        <ele>57.9</ele>
        <time>2016-04-03T09:40:54.606Z</time>
      </trkpt>
      <trkpt lat="47.20992" lon="-1.73021">
        <ele>57.8</ele>
        <time>2016-04-03T09:40:55.106Z</time>
      </trkpt>
      <trkpt lat="47.20988" lon="-1.73033">
        <ele>57.1</ele>
        <time>2016-04-03T09:41:09.271Z</time>
      </trkpt>
      <trkpt lat="47.20988" lon="-1.73034">
        <ele>57.2</ele>
        <time>2016-04-03T09:41:10.112Z</time>
      </trkpt>
      <trkpt lat="47.20991" lon="-1.73045">
        <ele>56.9</ele>
        <time>2016-04-03T09:41:20.262Z</time>
      </trkpt>
      <trkpt lat="47.20991" lon="-1.73047">
        <ele>56.9</ele>
        <time>2016-04-03T09:41:21.154Z</time>
      </trkpt>
      <trkpt lat="47.20994" lon="-1.73056">
        <ele>56.8</ele>
        <time>2016-04-03T09:41:27.215Z</time>
      </trkpt>
      <trkpt lat="47.20995" lon="-1.7306">
        <ele>56.8</ele>
        <time>2016-04-03T09:41:28.149Z</time>
      </trkpt>
      <trkpt lat="47.21" lon="-1.73069">
        <ele>57.1</ele>
        <time>2016-04-03T09:41:36.280Z</time>
      </trkpt>
      <trkpt lat="47.21001" lon="-1.73071">
        <ele>57.1</ele>
        <time>2016-04-03T09:41:37.145Z</time>
      </trkpt>
      <trkpt lat="47.21005" lon="-1.73081">
        <ele>57</ele>
        <time>2016-04-03T09:41:44.257Z</time>
      </trkpt>
      <trkpt lat="47.21006" lon="-1.73082">
        <ele>56.9</ele>
        <time>2016-04-03T09:41:45.154Z</time>
      </trkpt>
      <trkpt lat="47.21011" lon="-1.73092">
        <ele>56.7</ele>
        <time>2016-04-03T09:41:51.253Z</time>
      </trkpt>
      <trkpt lat="47.21012" lon="-1.73094">
        <ele>56.6</ele>
        <time>2016-04-03T09:41:52.177Z</time>
      </trkpt>
      <trkpt lat="47.21016" lon="-1.73105">
        <ele>56.2</ele>
        <time>2016-04-03T09:41:58.159Z</time>
      </trkpt>
      <trkpt lat="47.21016" lon="-1.73106">
        <ele>56.1</ele>
        <time>2016-04-03T09:41:59.127Z</time>
      </trkpt>
      <trkpt lat="47.21022" lon="-1.73115">
        <ele>56.2</ele>
        <time>2016-04-03T09:42:07.244Z</time>
      </trkpt>
      <trkpt lat="47.21023" lon="-1.73117">
        <ele>56.1</ele>
        <time>2016-04-03T09:42:08.145Z</time>
      </trkpt>
      <trkpt lat="47.21027" lon="-1.73127">
        <ele>55.9</ele>
        <time>2016-04-03T09:42:14.244Z</time>
      </trkpt>
      <trkpt lat="47.21028" lon="-1.73129">
        <ele>55.9</ele>
        <time>2016-04-03T09:42:15.205Z</time>
      </trkpt>
      <trkpt lat="47.21032" lon="-1.73139">
        <ele>55.6</ele>
        <time>2016-04-03T09:42:20.180Z</time>
      </trkpt>
      <trkpt lat="47.21033" lon="-1.73141">
        <ele>55.5</ele>
        <time>2016-04-03T09:42:21.154Z</time>
      </trkpt>
      <trkpt lat="47.21036" lon="-1.73151">
        <ele>55.1</ele>
        <time>2016-04-03T09:42:28.188Z</time>
      </trkpt>
      <trkpt lat="47.21037" lon="-1.73153">
        <ele>55.1</ele>
        <time>2016-04-03T09:42:29.148Z</time>
      </trkpt>
      <trkpt lat="47.2104" lon="-1.73165">
        <ele>55.4</ele>
        <time>2016-04-03T09:42:38.253Z</time>
      </trkpt>
      <trkpt lat="47.2104" lon="-1.73167">
        <ele>55.4</ele>
        <time>2016-04-03T09:42:39.135Z</time>
      </trkpt>
      <trkpt lat="47.21042" lon="-1.73179">
        <ele>55.3</ele>
        <time>2016-04-03T09:42:45.231Z</time>
      </trkpt>
      <trkpt lat="47.21042" lon="-1.7318">
        <ele>55.3</ele>
        <time>2016-04-03T09:42:46.133Z</time>
      </trkpt>
      <trkpt lat="47.21045" lon="-1.73192">
        <ele>55</ele>
        <time>2016-04-03T09:42:54.254Z</time>
      </trkpt>
      <trkpt lat="47.21045" lon="-1.73194">
        <ele>54.9</ele>
        <time>2016-04-03T09:42:55.145Z</time>
      </trkpt>
      <trkpt lat="47.21048" lon="-1.73207">
        <ele>54.6</ele>
        <time>2016-04-03T09:43:01.467Z</time>
      </trkpt>
      <trkpt lat="47.21049" lon="-1.73209">
        <ele>54.7</ele>
        <time>2016-04-03T09:43:02.143Z</time>
      </trkpt>
      <trkpt lat="47.21051" lon="-1.73221">
        <ele>54.3</ele>
        <time>2016-04-03T09:43:08.238Z</time>
      </trkpt>
      <trkpt lat="47.21052" lon="-1.73224">
        <ele>54.2</ele>
        <time>2016-04-03T09:43:09.153Z</time>
      </trkpt>
      <trkpt lat="47.21057" lon="-1.73235">
        <ele>54.2</ele>
        <time>2016-04-03T09:43:15.247Z</time>
      </trkpt>
      <trkpt lat="47.21058" lon="-1.73236">
        <ele>54.2</ele>
        <time>2016-04-03T09:43:16.156Z</time>
      </trkpt>
      <trkpt lat="47.21067" lon="-1.73237">
        <ele>54.4</ele>
        <time>2016-04-03T09:43:24.698Z</time>
      </trkpt>
      <trkpt lat="47.21068" lon="-1.73237">
        <ele>54.4</ele>
        <time>2016-04-03T09:43:25.092Z</time>
      </trkpt>
      <trkpt lat="47.21076" lon="-1.73232">
        <ele>54.7</ele>
        <time>2016-04-03T09:43:33.243Z</time>
      </trkpt>
      <trkpt lat="47.21077" lon="-1.73231">
        <ele>54.7</ele>
        <time>2016-04-03T09:43:34.223Z</time>
      </trkpt>
      <trkpt lat="47.21085" lon="-1.73228">
        <ele>55</ele>
        <time>2016-04-03T09:43:40.261Z</time>
      </trkpt>
      <trkpt lat="47.21086" lon="-1.73228">
        <ele>55.1</ele>
        <time>2016-04-03T09:43:41.149Z</time>
      </trkpt>
      <trkpt lat="47.21094" lon="-1.73222">
        <ele>55.2</ele>
        <time>2016-04-03T09:43:46.214Z</time>
      </trkpt>
      <trkpt lat="47.21095" lon="-1.7322">
        <ele>55.2</ele>
        <time>2016-04-03T09:43:47.153Z</time>
      </trkpt>
      <trkpt lat="47.21102" lon="-1.73213">
        <ele>54.9</ele>
        <time>2016-04-03T09:43:54.144Z</time>
      </trkpt>
      <trkpt lat="47.21103" lon="-1.73213">
        <ele>54.9</ele>
        <time>2016-04-03T09:43:55.102Z</time>
      </trkpt>
      <trkpt lat="47.21111" lon="-1.73208">
        <ele>54.7</ele>
        <time>2016-04-03T09:44:03.261Z</time>
      </trkpt>
      <trkpt lat="47.21112" lon="-1.73208">
        <ele>54.8</ele>
        <time>2016-04-03T09:44:04.155Z</time>
      </trkpt>
      <trkpt lat="47.21119" lon="-1.732">
        <ele>55.5</ele>
        <time>2016-04-03T09:44:13.233Z</time>
      </trkpt>
      <trkpt lat="47.2112" lon="-1.73199">
        <ele>55.5</ele>
        <time>2016-04-03T09:44:14.098Z</time>
      </trkpt>
      <trkpt lat="47.21124" lon="-1.7321">
        <ele>54.6</ele>
        <time>2016-04-03T09:44:25.138Z</time>
      </trkpt>
      <trkpt lat="47.21124" lon="-1.73212">
        <ele>54.4</ele>
        <time>2016-04-03T09:44:26.145Z</time>
      </trkpt>
      <trkpt lat="47.21124" lon="-1.73223">
        <ele>54.1</ele>
        <time>2016-04-03T09:44:30.216Z</time>
      </trkpt>
      <trkpt lat="47.21124" lon="-1.73225">
        <ele>54.1</ele>
        <time>2016-04-03T09:44:31.124Z</time>
      </trkpt>
      <trkpt lat="47.21122" lon="-1.73237">
        <ele>54</ele>
        <time>2016-04-03T09:44:35.222Z</time>
      </trkpt>
      <trkpt lat="47.21122" lon="-1.73239">
        <ele>53.8</ele>
        <time>2016-04-03T09:44:36.144Z</time>
      </trkpt>
      <trkpt lat="47.21121" lon="-1.73251">
        <ele>53.7</ele>
        <time>2016-04-03T09:44:42.273Z</time>
      </trkpt>
      <trkpt lat="47.2112" lon="-1.73252">
        <ele>53.8</ele>
        <time>2016-04-03T09:44:43.158Z</time>
      </trkpt>
      <trkpt lat="47.21117" lon="-1.73264">
        <ele>53.6</ele>
        <time>2016-04-03T09:44:49.215Z</time>
      </trkpt>
      <trkpt lat="47.21116" lon="-1.73266">
        <ele>53.6</ele>
        <time>2016-04-03T09:44:50.108Z</time>
      </trkpt>
      <trkpt lat="47.21113" lon="-1.73277">
        <ele>52.6</ele>
        <time>2016-04-03T09:44:56.137Z</time>
      </trkpt>
      <trkpt lat="47.21112" lon="-1.73279">
        <ele>52.4</ele>
        <time>2016-04-03T09:44:57.248Z</time>
      </trkpt>
      <trkpt lat="47.21109" lon="-1.7329">
        <ele>51.7</ele>
        <time>2016-04-03T09:45:03.526Z</time>
      </trkpt>
      <trkpt lat="47.21109" lon="-1.73293">
        <ele>51.6</ele>
        <time>2016-04-03T09:45:04.086Z</time>
      </trkpt>
      <trkpt lat="47.21109" lon="-1.73305">
        <ele>50.2</ele>
        <time>2016-04-03T09:45:11.319Z</time>
      </trkpt>
      <trkpt lat="47.21109" lon="-1.73306">
        <ele>50.1</ele>
        <time>2016-04-03T09:45:12.128Z</time>
      </trkpt>
      <trkpt lat="47.21108" lon="-1.73317">
        <ele>49.7</ele>
        <time>2016-04-03T09:45:17.178Z</time>
      </trkpt>
      <trkpt lat="47.21108" lon="-1.73319">
        <ele>49.6</ele>
        <time>2016-04-03T09:45:18.179Z</time>
      </trkpt>
      <trkpt lat="47.21105" lon="-1.73332">
        <ele>49</ele>
        <time>2016-04-03T09:45:25.217Z</time>
      </trkpt>
      <trkpt lat="47.21105" lon="-1.73333">
        <ele>49</ele>
        <time>2016-04-03T09:45:26.141Z</time>
      </trkpt>
      <trkpt lat="47.21103" lon="-1.73346">
        <ele>48.1</ele>
        <time>2016-04-03T09:45:33.177Z</time>
      </trkpt>
      <trkpt lat="47.21103" lon="-1.73347">
        <ele>48</ele>
        <time>2016-04-03T09:45:34.124Z</time>
      </trkpt>
      <trkpt lat="47.21102" lon="-1.73357">
        <ele>47.6</ele>
        <time>2016-04-03T09:45:38.654Z</time>
      </trkpt>
      <trkpt lat="47.21102" lon="-1.7336">
        <ele>47.4</ele>
        <time>2016-04-03T09:45:39.080Z</time>
      </trkpt>
      <trkpt lat="47.21101" lon="-1.73374">
        <ele>45.7</ele>
        <time>2016-04-03T09:45:45.213Z</time>
      </trkpt>
      <trkpt lat="47.21101" lon="-1.73375">
        <ele>45.5</ele>
        <time>2016-04-03T09:45:46.133Z</time>
      </trkpt>
      <trkpt lat="47.21101" lon="-1.73388">
        <ele>44.3</ele>
        <time>2016-04-03T09:45:54.179Z</time>
      </trkpt>
      <trkpt lat="47.21101" lon="-1.7339">
        <ele>44.2</ele>
        <time>2016-04-03T09:45:55.132Z</time>
      </trkpt>
      <trkpt lat="47.21099" lon="-1.73401">
        <ele>43.5</ele>
        <time>2016-04-03T09:46:02.249Z</time>
      </trkpt>
      <trkpt lat="47.21098" lon="-1.73404">
        <ele>43.5</ele>
        <time>2016-04-03T09:46:03.120Z</time>
      </trkpt>
      <trkpt lat="47.21095" lon="-1.73416">
        <ele>43</ele>
        <time>2016-04-03T09:46:11.180Z</time>
      </trkpt>
      <trkpt lat="47.21095" lon="-1.73417">
        <ele>42.9</ele>
        <time>2016-04-03T09:46:12.127Z</time>
      </trkpt>
      <trkpt lat="47.21096" lon="-1.73426">
        <ele>43.1</ele>
        <time>2016-04-03T09:46:16.192Z</time>
      </trkpt>
      <trkpt lat="47.21096" lon="-1.73431">
        <ele>43.1</ele>
        <time>2016-04-03T09:46:17.143Z</time>
      </trkpt>
      <trkpt lat="47.21098" lon="-1.73442">
        <ele>43.3</ele>
        <time>2016-04-03T09:46:20.192Z</time>
      </trkpt>
      <trkpt lat="47.21099" lon="-1.73444">
        <ele>43.4</ele>
        <time>2016-04-03T09:46:21.131Z</time>
      </trkpt>
      <trkpt lat="47.21104" lon="-1.73453">
        <ele>44.3</ele>
        <time>2016-04-03T09:46:26.299Z</time>
      </trkpt>
      <trkpt lat="47.21104" lon="-1.73456">
        <ele>44.5</ele>
        <time>2016-04-03T09:46:27.128Z</time>
      </trkpt>
      <trkpt lat="47.21105" lon="-1.73468">
        <ele>45.4</ele>
        <time>2016-04-03T09:46:35.540Z</time>
      </trkpt>
      <trkpt lat="47.21105" lon="-1.73469">
        <ele>45.4</ele>
        <time>2016-04-03T09:46:36.143Z</time>
      </trkpt>
      <trkpt lat="47.21107" lon="-1.73481">
        <ele>46.2</ele>
        <time>2016-04-03T09:46:43.583Z</time>
      </trkpt>
      <trkpt lat="47.21107" lon="-1.73483">
        <ele>46.3</ele>
        <time>2016-04-03T09:46:44.092Z</time>
      </trkpt>
      <trkpt lat="47.21108" lon="-1.73495">
        <ele>47.5</ele>
        <time>2016-04-03T09:46:50.160Z</time>
      </trkpt>
      <trkpt lat="47.21108" lon="-1.73497">
        <ele>47.8</ele>
        <time>2016-04-03T09:46:51.090Z</time>
      </trkpt>
      <trkpt lat="47.21109" lon="-1.73509">
        <ele>48.6</ele>
        <time>2016-04-03T09:46:59.306Z</time>
      </trkpt>
      <trkpt lat="47.21109" lon="-1.73511">
        <ele>48.7</ele>
        <time>2016-04-03T09:47:00.143Z</time>
      </trkpt>
      <trkpt lat="47.21107" lon="-1.73524">
        <ele>49.2</ele>
        <time>2016-04-03T09:47:06.200Z</time>
      </trkpt>
      <trkpt lat="47.21107" lon="-1.73525">
        <ele>49.3</ele>
        <time>2016-04-03T09:47:07.147Z</time>
      </trkpt>
      <trkpt lat="47.21106" lon="-1.73536">
        <ele>49.3</ele>
        <time>2016-04-03T09:47:12.167Z</time>
      </trkpt>
      <trkpt lat="47.21106" lon="-1.73539">
        <ele>49.3</ele>
        <time>2016-04-03T09:47:13.122Z</time>
      </trkpt>
      <trkpt lat="47.2111" lon="-1.73548">
        <ele>49.8</ele>
        <time>2016-04-03T09:47:19.227Z</time>
      </trkpt>
      <trkpt lat="47.21111" lon="-1.7355">
        <ele>49.9</ele>
        <time>2016-04-03T09:47:20.367Z</time>
      </trkpt>
      <trkpt lat="47.21117" lon="-1.73556">
        <ele>50.2</ele>
        <time>2016-04-03T09:47:24.182Z</time>
      </trkpt>
      <trkpt lat="47.21119" lon="-1.73557">
        <ele>50.4</ele>
        <time>2016-04-03T09:47:25.115Z</time>
      </trkpt>
      <trkpt lat="47.21127" lon="-1.73562">
        <ele>51.1</ele>
        <time>2016-04-03T09:47:32.235Z</time>
      </trkpt>
      <trkpt lat="47.21128" lon="-1.73563">
        <ele>51.2</ele>
        <time>2016-04-03T09:47:33.121Z</time>
      </trkpt>
      <trkpt lat="47.21136" lon="-1.73564">
        <ele>52.3</ele>
        <time>2016-04-03T09:47:42.134Z</time>
      </trkpt>
      <trkpt lat="47.21137" lon="-1.73564">
        <ele>52.4</ele>
        <time>2016-04-03T09:47:43.114Z</time>
      </trkpt>
      <trkpt lat="47.21145" lon="-1.73566">
        <ele>52.7</ele>
        <time>2016-04-03T09:47:50.236Z</time>
      </trkpt>
      <trkpt lat="47.21147" lon="-1.73566">
        <ele>52.8</ele>
        <time>2016-04-03T09:47:51.146Z</time>
      </trkpt>
      <trkpt lat="47.21155" lon="-1.73568">
        <ele>53.3</ele>
        <time>2016-04-03T09:47:58.530Z</time>
      </trkpt>
      <trkpt lat="47.21157" lon="-1.73568">
        <ele>53.3</ele>
        <time>2016-04-03T09:47:59.120Z</time>
      </trkpt>
      <trkpt lat="47.21164" lon="-1.73574">
        <ele>53.5</ele>
        <time>2016-04-03T09:48:05.222Z</time>
      </trkpt>
      <trkpt lat="47.21165" lon="-1.73575">
        <ele>53.6</ele>
        <time>2016-04-03T09:48:06.146Z</time>
      </trkpt>
      <trkpt lat="47.21173" lon="-1.73579">
        <ele>53.5</ele>
        <time>2016-04-03T09:48:13.172Z</time>
      </trkpt>
      <trkpt lat="47.21175" lon="-1.7358">
        <ele>53.5</ele>
        <time>2016-04-03T09:48:14.125Z</time>
      </trkpt>
      <trkpt lat="47.21182" lon="-1.73584">
        <ele>53.3</ele>
        <time>2016-04-03T09:48:22.843Z</time>
      </trkpt>
      <trkpt lat="47.21184" lon="-1.73584">
        <ele>53.4</ele>
        <time>2016-04-03T09:48:23.085Z</time>
      </trkpt>
      <trkpt lat="47.21192" lon="-1.73582">
        <ele>53.2</ele>
        <time>2016-04-03T09:48:38.177Z</time>
      </trkpt>
      <trkpt lat="47.21192" lon="-1.73582">
        <ele>53.2</ele>
        <time>2016-04-03T09:48:39.134Z</time>
      </trkpt>
      <trkpt lat="47.21198" lon="-1.73581">
        <ele>53.3</ele>
        <time>2016-04-03T09:49:05.990Z</time>
      </trkpt>
    </trkseg>
  </trk>
</gpx>